[[{"header":{"parameterUnit":"m.s-1","parameterCategory":1,"la1":30.6,"la2":28.766,"lo1":-90.7593,"lo2":-88.6598,"dy":0.0162,"dx":0.0183,"nx":116,"ny":114,"refTime":"2024-04-19T12:00:00:Z","depth":0,"parameterNumber":2,"parameterNumberName":"U-component_of_WINDS"},"data":[0.0,0.0,0.0,0.0,0.0,0.0,0.0,0.0,0.0,0.0,0.0,0.0,0.0,0.0,0.0,0.0,0.0,0.0,0.0,0.0,0.0,0.0,0.0,0.0,0.0,0.0,0.0,0.0,0.0,0.0,0.0,0.0,0.0,0.0,0.0,0.0,0.0,0.0,0.0,0.0,0.0,0.0,0.0,0.0,0.0,0.0,0.0,0.0,0.0,0.0,0.0,0.0,0.0,0.0,0.0,0.0,0.0,0.0,0.0,0.0,0.0,0.0,0.0,0.0,0.0,0.0,0.0,0.0,0.0,0.0,0.0,0.0,0.0,0.0,0.0,0.0,0.0,0.0,0.0,0.0,0.0,0.0,0.0,0.0,0.0,0.0,0.0,0.0,0.0,0.0,0.0,0.0,0.0,0.0,0.0,0.0,0.0,0.0,0.0,0.0,0.0,0.0,0.0,0.0,0.0,0.0,0.0,0.0,0.0,0.0,0.0,0.0,0.0,0.0,0.0,0.0,0.0,0.0,0.0,0.0,0.0,0.0,0.0,0.0,0.0,0.0,0.0,0.0,0.0,0.0,0.0,0.0,0.0,0.0,0.0,0.0,0.0,0.0,0.0,0.0,0.0,0.0,0.0,0.0,0.0,0.0,0.0,0.0,0.0,0.0,0.0,0.0,0.0,0.0,0.0,0.0,0.0,0.0,0.0,0.0,0.0,0.0,0.0,0.0,0.0,0.0,0.0,0.0,0.0,0.0,0.0,0.0,0.0,0.0,0.0,0.0,0.0,0.0,0.0,0.0,0.0,0.0,0.0,0.0,0.0,0.0,0.0,0.0,0.0,0.0,0.0,0.0,0.0,0.0,0.0,0.0,0.0,0.0,0.0,0.0,0.0,0.0,0.0,0.0,0.0,0.0,0.0,0.0,0.0,0.0,0.0,0.0,0.0,0.0,0.0,0.0,0.0,0.0,0.0,0.0,0.0,0.0,0.0,0.0,0.0,0.0,0.0,0.0,0.0,0.0,0.0,0.0,0.0,0.0,0.0,0.0,0.0,0.0,0.0,0.0,0.0,0.0,0.0,0.0,0.0,0.0,0.0,0.0,0.0,0.0,0.0,0.0,0.0,0.0,0.0,0.0,0.0,0.0,0.0,0.0,0.0,0.0,0.0,0.0,0.0,0.0,0.0,0.0,0.0,0.0,0.0,0.0,0.0,0.0,0.0,0.0,0.0,0.0,0.0,0.0,0.0,0.0,0.0,0.0,0.0,0.0,0.0,0.0,0.0,0.0,0.0,0.0,0.0,0.0,0.0,0.0,0.0,0.0,0.0,0.0,0.0,0.0,0.0,0.0,0.0,0.0,0.0,0.0,0.0,0.0,0.0,0.0,0.0,0.0,0.0,0.0,0.0,0.0,0.0,0.0,0.0,0.0,0.0,0.0,0.0,0.0,0.0,0.0,0.0,0.0,0.0,0.0,0.0,0.0,0.0,0.0,0.0,0.0,0.0,0.0,0.0,0.0,0.0,0.0,0.0,0.0,0.0,0.0,0.0,0.0,0.0,0.0,0.0,0.0,0.0,0.0,0.0,0.0,0.0,0.0,0.0,0.0,0.0,0.0,0.0,0.0,0.0,0.0,0.0,0.0,0.0,0.0,0.0,0.0,0.0,0.0,0.0,0.0,0.0,0.0,0.0,0.0,0.0,0.0,0.0,0.0,0.0,0.0,0.0,0.0,0.0,0.0,0.0,0.0,0.0,0.0,0.0,0.0,0.0,0.0,0.0,0.0,0.0,0.0,0.0,0.0,0.0,0.0,0.0,0.0,0.0,0.0,0.0,0.0,0.0,0.0,0.0,0.0,0.0,0.0,0.0,0.0,0.0,0.0,0.0,0.0,0.0,0.0,0.0,0.0,0.0,0.0,0.0,0.0,0.0,0.0,0.0,0.0,0.0,0.0,0.0,0.0,0.0,0.0,0.0,0.0,0.0,0.0,0.0,0.0,0.0,0.0,0.0,0.0,0.0,0.0,0.0,0.0,0.0,0.0,0.0,0.0,0.0,0.0,0.0,0.0,0.0,0.0,0.0,0.0,0.0,0.0,0.0,0.0,0.0,0.0,0.0,0.0,0.0,0.0,0.0,0.0,0.0,0.0,0.0,0.0,0.0,0.0,0.0,0.0,0.0,0.0,0.0,0.0,0.0,0.0,0.0,0.0,0.0,0.0,0.0,0.0,0.0,0.0,0.0,0.0,0.0,0.0,0.0,0.0,0.0,0.0,0.0,0.0,0.0,0.0,0.0,0.0,0.0,0.0,0.0,0.0,0.0,0.0,0.0,0.0,0.0,0.0,0.0,0.0,0.0,0.0,0.0,0.0,0.0,0.0,0.0,0.0,0.0,0.0,0.0,0.0,0.0,0.0,0.0,0.0,0.0,0.0,0.0,0.0,0.0,0.0,0.0,0.0,0.0,0.0,0.0,0.0,0.0,0.0,0.0,0.0,0.0,0.0,0.0,0.0,0.0,0.0,0.0,0.0,0.0,0.0,0.0,0.0,0.0,0.0,0.0,0.0,0.0,0.0,0.0,0.0,0.0,0.0,0.0,0.0,0.0,0.0,0.0,0.0,0.0,0.0,0.0,0.0,0.0,0.0,0.0,0.0,0.0,0.0,0.0,0.0,0.0,0.0,0.0,0.0,0.0,0.0,0.0,0.0,0.0,0.0,0.0,0.0,0.0,0.0,0.0,0.0,0.0,0.0,0.0,0.0,0.0,0.0,0.0,0.0,0.0,0.0,0.0,0.0,0.0,0.0,0.0,0.0,0.0,0.0,0.0,0.0,0.0,0.0,0.0,0.0,0.0,0.0,0.0,0.0,0.0,0.0,0.0,0.0,0.0,0.0,0.0,0.0,0.0,0.0,0.0,0.0,0.0,0.0,0.0,0.0,0.0,0.0,0.0,0.0,0.0,0.0,0.0,0.0,0.0,0.0,0.0,0.0,0.0,0.0,0.0,0.0,0.0,0.0,0.0,0.0,0.0,0.0,0.0,0.0,0.0,0.0,0.0,0.0,0.0,0.0,0.0,0.0,0.0,0.0,0.0,0.0,0.0,0.0,0.0,0.0,0.0,0.0,0.0,0.0,0.0,0.0,0.0,0.0,0.0,0.0,0.0,0.0,0.0,0.0,0.0,0.0,0.0,0.0,0.0,0.0,0.0,0.0,0.0,0.0,0.0,0.0,0.0,0.0,0.0,0.0,0.0,0.0,0.0,0.0,0.0,0.0,0.0,0.0,0.0,0.0,0.0,0.0,0.0,0.0,0.0,0.0,0.0,0.0,0.0,0.0,0.0,0.0,0.0,0.0,0.0,0.0,0.0,0.0,0.0,0.0,0.0,0.0,0.0,0.0,0.0,0.0,0.0,0.0,0.0,0.0,0.0,0.0,0.0,0.0,0.0,0.0,0.0,0.0,0.0,0.0,0.0,0.0,0.0,0.0,0.0,0.0,0.0,0.0,0.0,0.0,0.0,0.0,0.0,0.0,0.0,0.0,0.0,0.0,0.0,0.0,0.0,0.0,0.0,0.0,0.0,0.0,0.0,0.0,0.0,0.0,0.0,0.0,0.0,0.0,0.0,0.0,0.0,0.0,0.0,0.0,0.0,0.0,0.0,0.0,0.0,0.0,0.0,0.0,0.0,0.0,0.0,0.0,0.0,0.0,0.0,0.0,0.0,0.0,0.0,0.0,0.0,0.0,0.0,0.0,0.0,0.0,0.0,0.0,0.0,0.0,0.0,0.0,0.0,0.0,0.0,0.0,0.0,0.0,0.0,0.0,0.0,0.0,0.0,0.0,0.0,0.0,0.0,0.0,0.0,0.0,0.0,0.0,0.0,0.0,0.0,0.0,0.0,0.0,0.0,0.0,0.0,0.0,0.0,0.0,0.0,0.0,0.0,0.0,0.0,0.0,0.0,0.0,0.0,0.0,0.0,0.0,0.0,0.0,0.0,0.0,0.0,0.0,0.0,0.0,0.0,0.0,0.0,0.0,0.0,0.0,0.0,0.0,0.0,0.0,0.0,0.0,0.0,0.0,0.0,0.0,0.0,0.0,0.0,0.0,0.0,0.0,0.0,0.0,0.0,0.0,0.0,0.0,0.0,0.0,0.0,0.0,0.0,0.0,0.0,0.0,0.0,0.0,0.0,0.0,0.0,0.0,0.0,0.0,0.0,0.0,0.0,0.0,0.0,0.0,0.0,0.0,0.0,0.0,0.0,0.0,0.0,0.0,0.0,0.0,0.0,0.0,0.0,0.0,0.0,0.0,0.0,0.0,0.0,0.0,0.0,0.0,0.0,0.0,0.0,0.0,0.0,0.0,0.0,0.0,0.0,0.0,0.0,0.0,0.0,0.0,0.0,0.0,0.0,0.0,0.0,0.0,0.0,0.0,0.0,0.0,0.0,0.0,0.0,0.0,0.0,0.0,0.0,0.0,0.0,0.0,0.0,0.0,0.0,0.0,0.0,0.0,0.0,0.0,0.0,0.0,0.0,0.0,0.0,0.0,0.0,0.0,0.0,0.0,0.0,0.0,0.0,0.0,0.0,0.0,0.0,0.0,0.0,0.0,0.0,0.0,0.0,0.0,0.0,0.0,0.0,0.0,0.0,0.0,0.0,0.0,0.0,0.0,0.0,0.0,0.0,0.0,0.0,0.0,0.0,0.0,0.0,0.0,0.0,0.0,0.0,0.0,0.0,0.0,0.0,0.0,0.0,0.0,0.0,0.0,0.0,0.0,0.0,0.0,0.0,0.0,0.0,0.0,0.0,0.0,0.0,0.0,0.0,0.0,0.0,0.0,0.0,0.0,0.0,0.0,0.0,0.0,0.0,0.0,0.0,0.0,0.0,0.0,0.0,0.0,0.0,0.0,0.0,0.0,0.0,0.0,0.0,0.0,0.0,0.0,0.0,0.0,0.0,0.0,0.0,0.0,0.0,0.0,0.0,0.0,0.0,0.0,0.0,0.0,0.0,0.0,0.0,0.0,0.0,0.0,0.0,0.0,0.0,0.0,0.0,0.0,0.0,0.0,0.0,0.0,0.0,0.0,0.0,0.0,0.0,0.0,0.0,0.0,0.0,0.0,0.0,0.0,0.0,0.0,0.0,0.0,0.0,0.0,0.0,0.0,0.0,0.0,0.0,0.0,0.0,0.0,0.0,0.0,0.0,0.0,0.0,0.0,0.0,0.0,0.0,0.0,0.0,0.0,0.0,0.0,0.0,0.0,0.0,0.0,0.0,0.0,0.0,0.0,0.0,0.0,0.0,0.0,0.0,0.0,0.0,0.0,0.0,0.0,0.0,0.0,0.0,0.0,0.0,0.0,0.0,0.0,0.0,0.0,0.0,0.0,0.0,0.0,0.0,0.0,0.0,0.0,0.0,0.0,0.0,0.0,0.0,0.0,0.0,0.0,0.0,0.0,0.0,0.0,0.0,0.0,0.0,0.0,0.0,0.0,0.0,0.0,0.0,0.0,0.0,0.0,0.0,0.0,0.0,0.0,0.0,0.0,0.0,0.0,0.0,0.0,0.0,0.0,0.0,0.0,0.0,0.0,0.0,0.0,0.0,0.0,0.0,0.0,0.0,0.0,0.0,0.0,0.0,0.0,0.0,0.0,0.0,0.0,0.0,0.0,0.0,0.0,0.0,0.0,0.0,0.0,0.0,0.0,0.0,0.0,0.0,0.0,0.0,0.0,0.0,0.0,0.0,0.0,0.0,0.0,0.0,0.0,0.0,0.0,0.0,0.0,0.0,0.0,0.0,0.0,0.0,0.0,0.0,0.0,0.0,0.0,0.0,0.0,0.0,0.0,0.0,0.0,0.0,0.0,0.0,0.0,0.0,0.0,0.0,0.0,0.0,0.0,0.0,0.0,0.0,0.0,0.0,0.0,0.0,0.0,0.0,0.0,0.0,0.0,0.0,0.0,0.0,0.0,0.0,0.0,0.0,0.0,0.0,0.0,0.0,0.0,0.0,0.0,0.0,0.0,0.0,0.0,0.0,0.0,0.0,0.0,0.0,0.0,0.0,0.0,0.0,0.0,0.0,0.0,0.0,0.0,0.0,0.0,0.0,0.0,5.1548,0.0,0.0,0.0,0.0,0.0,0.0,0.0,0.0,0.0,0.0,0.0,0.0,0.0,0.0,0.0,0.0,0.0,0.0,0.0,0.0,0.0,0.0,0.0,0.0,4.9848,4.9591,4.9591,4.9591,4.9407,4.9003,0.0,0.0,0.0,0.0,0.0,0.0,0.0,4.8306,4.8306,4.9114,5.0126,5.1362,5.2145,0.0,0.0,0.0,0.0,0.0,0.0,0.0,0.0,0.0,0.0,0.0,0.0,0.0,0.0,0.0,0.0,0.0,0.0,0.0,0.0,0.0,0.0,0.0,0.0,0.0,0.0,0.0,0.0,0.0,0.0,0.0,0.0,0.0,0.0,0.0,0.0,0.0,0.0,0.0,0.0,0.0,0.0,0.0,0.0,0.0,0.0,0.0,0.0,0.0,0.0,0.0,0.0,0.0,0.0,0.0,0.0,0.0,0.0,0.0,0.0,0.0,0.0,0.0,0.0,0.0,0.0,0.0,0.0,0.0,0.0,0.0,0.0,0.0,5.2895,0.0,0.0,0.0,0.0,0.0,0.0,0.0,0.0,0.0,0.0,0.0,0.0,0.0,0.0,0.0,0.0,0.0,0.0,0.0,0.0,0.0,4.8563,4.9297,4.871,4.86,4.9297,4.871,4.8306,4.8306,4.8196,0.0,0.0,0.0,4.8086,4.8086,4.8233,4.8453,4.8746,5.0839,5.2594,5.4086,0.0,0.0,0.0,0.0,0.0,0.0,0.0,0.0,0.0,0.0,0.0,0.0,0.0,0.0,0.0,0.0,0.0,0.0,0.0,0.0,0.0,0.0,0.0,0.0,0.0,0.0,0.0,0.0,0.0,0.0,0.0,0.0,0.0,0.0,0.0,0.0,0.0,0.0,0.0,0.0,0.0,0.0,0.0,0.0,0.0,0.0,0.0,0.0,0.0,0.0,0.0,0.0,0.0,0.0,0.0,0.0,0.0,0.0,0.0,0.0,0.0,0.0,0.0,0.0,0.0,0.0,0.0,6.1124,6.2076,6.2732,6.2732,6.2849,6.2974,6.1935,5.9627,5.6511,5.5395,0.0,0.0,0.0,0.0,0.0,0.0,0.0,0.0,0.0,0.0,0.0,0.0,0.0,0.0,0.0,0.0,0.0,0.0,0.0,4.8343,4.8453,4.8379,4.8343,4.8453,4.8379,4.8306,4.8306,4.7645,4.7278,4.7278,4.7278,4.7278,4.7278,4.7939,4.9003,5.0472,5.4179,5.6483,5.7418,5.9711,5.9795,5.7813,5.5023,0.0,0.0,0.0,0.0,0.0,0.0,0.0,0.0,0.0,0.0,0.0,0.0,0.0,0.0,0.0,0.0,0.0,0.0,0.0,0.0,0.0,0.0,0.0,0.0,0.0,0.0,0.0,0.0,0.0,0.0,0.0,0.0,0.0,0.0,0.0,0.0,0.0,0.0,0.0,0.0,0.0,0.0,0.0,4.8526,4.9994,0.0,0.0,0.0,0.0,0.0,0.0,0.0,0.0,0.0,0.0,0.0,0.0,0.0,5.824,5.9178,6.3913,6.5778,6.4882,6.8651,7.0405,7.0343,7.0343,7.0903,7.1745,7.009,0.0,5.9935,5.7627,0.0,0.0,0.0,0.0,0.0,0.0,0.0,0.0,0.0,0.0,0.0,0.0,0.0,0.0,0.0,0.0,0.0,0.0,0.0,0.0,0.0,4.9554,5.0362,5.0362,5.2454,5.2784,5.0508,5.0472,4.9517,4.7167,4.6691,4.6434,4.6434,4.7205,4.9774,5.4179,5.8694,6.1542,6.2784,6.5254,6.575,6.4567,6.2727,5.9795,5.6161,5.4289,0.0,0.0,0.0,0.0,0.0,0.0,0.0,0.0,0.0,0.0,0.0,0.0,0.0,0.0,0.0,0.0,0.0,0.0,0.0,0.0,0.0,0.0,0.0,0.0,0.0,0.0,0.0,0.0,0.0,0.0,0.0,0.0,0.0,0.0,0.0,0.0,0.0,0.0,0.0,4.8343,5.0325,5.0141,5.0912,5.0141,0.0,0.0,0.0,0.0,0.0,0.0,0.0,0.0,0.0,5.9743,6.2068,6.4086,6.5827,6.9629,7.1738,7.2123,7.4275,7.5521,7.5909,7.5801,7.6008,7.6403,7.505,7.2245,6.8282,6.382,6.0358,5.7627,0.0,0.0,0.0,0.0,5.2049,5.3087,0.0,0.0,0.0,0.0,0.0,0.0,0.0,0.0,0.0,0.0,0.0,0.0,4.9481,5.1756,5.3371,5.3812,5.6381,5.6528,5.3115,5.2491,5.0729,4.7278,4.614,4.559,4.559,4.8012,5.2454,5.8988,6.3429,6.6427,6.7992,7.0287,7.0778,6.9794,6.9409,6.5632,5.9465,5.7593,5.5207,0.0,0.0,0.0,0.0,0.0,0.0,0.0,0.0,0.0,0.0,0.0,0.0,0.0,0.0,0.0,0.0,0.0,0.0,0.0,0.0,0.0,0.0,0.0,0.0,0.0,0.0,0.0,0.0,0.0,0.0,0.0,0.0,0.0,0.0,0.0,0.0,0.0,0.0,5.0582,5.238,5.0986,5.3335,5.3335,0.0,0.0,0.0,0.0,0.0,0.0,5.9134,6.0236,6.2438,6.6109,6.8605,7.077,7.2569,7.4959,7.6662,7.7719,7.8303,7.8951,7.9746,7.9765,7.9782,7.9627,7.8667,7.7284,7.5245,6.9513,6.4897,6.1358,6.0512,5.8858,5.6934,5.6511,5.7049,5.7973,0.0,0.0,0.0,0.0,0.0,0.0,0.0,0.0,0.0,0.0,0.0,5.0398,5.2711,5.5133,5.7189,5.8731,5.8327,5.7262,5.5537,5.183,4.893,4.7205,4.5626,4.4782,4.4782,5.161,5.8364,6.4897,6.8164,7.0624,7.2218,7.3891,7.3854,7.2328,7.3083,7.1064,6.6843,6.2144,5.9171,5.7152,0.0,0.0,0.0,0.0,0.0,0.0,0.0,0.0,0.0,0.0,0.0,0.0,0.0,0.0,0.0,0.0,0.0,0.0,0.0,0.0,0.0,0.0,0.0,0.0,0.0,0.0,0.0,0.0,0.0,0.0,0.0,0.0,0.0,0.0,0.0,0.0,0.0,0.0,0.0,5.4252,5.9685,0.0,0.0,0.0,0.0,5.7556,5.8364,6.1006,6.5742,6.7504,7.055,7.5285,7.7818,7.9176,7.9286,8.0231,8.0341,7.9643,8.03,8.0938,8.1575,8.2205,8.2338,8.2061,8.1285,7.99,7.79,7.2783,6.909,6.6397,6.3205,6.1396,6.0358,5.8781,5.9204,6.0589,0.0,0.0,0.0,0.0,0.0,4.3681,4.4268,4.4562,4.5112,4.6177,4.915,5.1867,5.3775,5.8474,6.1924,6.3025,6.4751,6.442,6.1263,5.6748,5.3261,5.1132,4.7462,4.7205,5.0875,5.7042,6.2401,6.6843,7.1615,7.4515,7.5652,7.7268,7.7451,7.6423,7.6166,7.4661,7.2018,6.7173,6.2952,5.9245,5.5647,5.1977,0.0,0.0,0.0,0.0,0.0,0.0,0.0,0.0,0.0,0.0,0.0,0.0,0.0,0.0,0.0,0.0,0.0,0.0,0.0,0.0,0.0,0.0,0.0,0.0,0.0,0.0,0.0,0.0,0.0,0.0,0.0,0.0,0.0,0.0,0.0,0.0,0.0,5.9722,6.42,0.0,6.2181,6.3576,6.4751,6.5007,6.7687,7.077,7.4111,7.5322,7.7414,8.0718,8.1672,8.237,8.2884,8.2663,8.2406,8.2113,8.1807,8.2023,8.2698,8.2793,8.3003,8.3256,8.2309,8.1246,7.9977,7.7592,7.4476,7.1091,6.9898,6.8244,6.6474,6.5859,6.6013,6.6436,0.0,0.0,0.0,0.0,0.0,4.3497,4.3497,4.3938,4.4892,4.6507,5.0031,5.3628,5.6895,6.2328,6.6256,6.7614,6.9192,6.8274,6.3943,5.8841,5.4656,5.1683,4.8967,5.0582,5.7079,6.1704,6.6182,7.0513,7.4845,7.7378,7.8185,7.9543,7.9764,7.8993,7.8405,7.7268,7.5506,7.2018,6.7577,6.2585,5.9318,5.5757,5.1903,0.0,0.0,0.0,0.0,0.0,0.0,0.0,0.0,0.0,0.0,0.0,0.0,0.0,0.0,0.0,0.0,0.0,0.0,0.0,0.0,0.0,0.0,0.0,0.0,0.0,0.0,0.0,0.0,0.0,0.0,0.0,0.0,0.0,0.0,5.8033,6.2842,6.3943,6.8605,7.0807,6.8385,7.011,7.1688,7.2532,7.5322,7.7928,8.0094,8.0975,8.226,8.4168,8.4499,8.4756,8.5013,8.4205,8.3691,8.3398,8.2839,8.2913,8.3543,8.3575,8.3383,8.295,8.2808,8.1785,8.0208,7.9939,7.7977,7.513,7.4553,7.2976,7.0937,7.0667,7.0552,7.0398,0.0,0.0,0.0,0.0,0.0,4.3497,4.3497,4.3497,4.4635,4.7829,5.1206,5.5757,6.2071,6.6512,7.0,7.2386,7.1064,6.8091,6.3246,5.7593,5.2637,4.8636,5.0178,5.4876,6.2879,6.5485,6.9853,7.6166,7.7855,7.9066,7.9837,8.0645,8.0608,7.9837,7.9837,7.8919,7.7341,7.6497,7.2973,6.7504,6.2622,5.9612,5.7409,0.0,0.0,0.0,0.0,0.0,0.0,0.0,0.0,0.0,0.0,0.0,0.0,0.0,0.0,0.0,0.0,0.0,0.0,0.0,0.0,0.0,0.0,0.0,0.0,0.0,0.0,0.0,0.0,0.0,0.0,0.0,0.0,0.0,5.473,6.1667,6.6769,6.688,7.323,7.6607,7.4258,7.6937,7.914,7.991,8.0718,8.1893,8.3434,8.4205,8.4976,8.5747,8.6518,8.6554,8.5747,8.4976,8.4205,8.3434,8.3261,8.3488,8.4216,8.4785,8.3639,8.1292,8.2901,8.1708,7.8707,7.9515,7.9323,7.8323,7.6669,7.5014,7.3399,7.2552,7.2206,7.1898,0.0,0.0,0.0,4.3497,4.3497,4.3497,4.3497,4.3497,4.4232,4.6287,5.1977,5.7373,6.1484,6.8164,7.2899,7.4147,7.2239,6.9412,6.5705,5.8547,5.3628,5.194,5.6198,6.1594,6.7944,7.1064,7.4331,7.7892,7.9543,8.0461,8.0681,8.1489,8.1452,8.0681,8.0681,8.0094,7.9029,7.7598,7.5763,7.3303,6.7871,6.3649,6.0199,0.0,0.0,0.0,0.0,0.0,0.0,0.0,0.0,0.0,0.0,0.0,0.0,0.0,0.0,0.0,0.0,0.0,0.0,0.0,0.0,0.0,0.0,0.0,0.0,0.0,0.0,0.0,0.0,0.0,0.0,0.0,5.7886,6.2291,6.2291,6.7724,7.2826,7.5763,7.9947,8.2333,8.1672,8.2957,8.3911,8.4132,8.4903,8.5563,8.6004,8.5123,8.4682,8.4903,8.5159,8.5159,8.4939,8.4719,8.4499,8.4278,8.307,8.2853,8.3488,8.4179,8.429,8.3984,8.373,8.3054,8.2131,8.1131,7.9862,7.84,7.7361,7.5515,7.3476,7.3245,7.2322,7.0937,0.0,0.0,0.0,4.3497,4.3497,4.3497,4.3497,4.3497,4.4452,4.7095,5.2894,5.8437,6.2695,6.8862,7.2899,7.3377,7.1505,6.8201,6.3246,5.7262,5.4517,5.6055,6.1249,6.6426,7.1381,7.5068,7.8002,8.0094,8.1048,8.1672,8.2039,8.248,8.226,8.1525,8.2223,8.1672,8.0241,7.9617,7.8295,7.6313,7.2679,6.8788,6.4787,6.1337,5.8914,5.7116,5.484,5.4179,5.3922,5.0729,0.0,0.0,0.0,0.0,0.0,0.0,0.0,0.0,0.0,0.0,0.0,0.0,0.0,0.0,0.0,0.0,0.0,0.0,0.0,0.0,0.0,0.0,0.0,0.0,6.3466,6.9045,7.1101,7.4184,7.7635,8.1379,8.3765,8.5233,8.5563,8.604,8.6297,8.6297,8.6738,8.6995,8.6995,8.6114,8.5306,8.4609,8.527,8.527,8.4609,8.4609,8.4756,8.5086,8.3141,8.2707,8.3674,8.4064,8.3756,8.3023,8.3431,8.2593,8.09,8.0285,7.9208,0.0,0.0,0.0,0.0,0.0,7.2399,7.0706,0.0,0.0,0.0,4.3351,4.3351,4.3387,4.3497,4.3497,4.4966,4.904,5.3812,5.8914,6.442,6.8715,7.1174,7.1174,6.9449,6.5411,5.8437,5.5427,5.6025,6.0735,6.5734,7.0208,7.4152,7.8062,8.0865,8.248,8.248,8.2847,8.3544,8.3544,8.3141,8.2517,8.3875,8.3324,8.1452,8.1893,8.0424,7.7781,7.668,7.3927,7.0,6.5485,6.3282,6.2144,5.9134,5.7116,5.5721,5.4436,0.0,0.0,0.0,0.0,0.0,0.0,0.0,0.0,0.0,0.0,0.0,0.0,0.0,0.0,0.0,0.0,0.0,0.0,0.0,0.0,0.0,0.0,0.0,0.0,6.9082,7.4955,7.9653,8.0424,8.1525,8.4389,8.5453,8.6224,8.6921,8.6995,8.6995,8.6995,8.6995,8.6995,8.6995,0.0,0.0,0.0,0.0,8.604,8.4609,8.4682,8.5086,8.5747,8.3434,8.3013,8.4302,8.4125,8.2725,8.0502,8.2553,8.1285,7.7784,7.84,7.8092,7.7323,7.7746,7.7015,7.5476,7.363,7.2091,7.086,0.0,0.0,4.1772,4.2433,4.2543,4.2763,4.3387,4.3497,4.4929,4.8967,5.3775,5.8474,6.2805,6.7504,7.033,7.033,6.7063,6.3025,5.829,5.8033,6.0469,6.6006,7.0311,7.4749,7.9397,8.0984,8.2517,8.4132,8.4132,8.4205,8.4389,8.4389,8.4278,8.4132,8.3801,8.3728,8.3801,8.2003,8.1232,8.1012,7.8222,7.5432,7.2753,7.0513,6.9155,6.8201,6.6256,6.5375,6.4494,6.0382,5.9355,5.9245,5.6397,0.0,0.0,0.0,0.0,0.0,0.0,0.0,0.0,0.0,0.0,0.0,0.0,0.0,0.0,0.0,0.0,0.0,0.0,0.0,0.0,6.8054,7.4147,7.9617,8.3177,8.4242,8.4866,8.549,8.6297,8.6848,8.6995,8.6995,8.6995,8.6995,8.6995,8.6995,8.6995,8.5783,8.4939,8.4609,8.4903,8.4903,8.4609,8.5233,8.5637,8.5783,8.4022,0.0,8.3549,8.326,8.2869,8.233,8.2488,8.1708,8.0323,7.9785,7.8669,7.7092,7.5207,7.4284,7.363,7.0514,7.0052,7.0706,0.0,4.0561,4.1258,4.1625,4.1699,4.1992,4.2763,4.291,4.4048,4.7278,5.161,5.5611,5.8841,6.2108,6.4053,6.4053,6.108,5.9164,5.9096,6.1419,6.4931,6.9589,7.4676,7.8473,8.0818,8.2941,8.4389,8.5196,8.5196,8.5196,8.5196,8.5196,8.4976,8.4609,8.5049,8.4756,8.3985,8.3581,8.27,8.1489,8.0241,7.8552,7.6497,7.4037,7.2863,7.2275,7.066,6.9339,6.7797,6.4567,6.3172,6.2401,5.9979,5.7813,5.5574,0.0,0.0,0.0,0.0,0.0,0.0,0.0,0.0,0.0,0.0,0.0,0.0,0.0,0.0,5.6932,5.9391,0.0,6.8568,7.2973,7.7818,8.1966,8.4792,8.5894,8.6407,8.6407,8.6775,8.6995,8.6995,8.6995,8.6995,8.6995,8.6995,8.6995,8.6995,8.6261,8.5453,8.4646,8.538,8.5416,8.4609,8.538,8.6004,8.6371,8.4389,8.3398,8.3427,8.3056,8.2432,8.1661,8.1686,8.0977,7.9708,7.8438,7.7169,7.5822,7.4168,7.3514,7.3245,7.1091,7.0552,7.0783,0.0,0.0,4.0708,4.0855,4.0891,4.1148,4.1956,4.2213,4.324,4.581,4.9297,5.2454,5.4876,5.6418,5.7116,5.6638,5.5684,5.6619,6.0178,6.4967,6.9368,7.3262,7.8753,8.1672,8.1671,8.4378,8.5857,8.604,8.604,8.604,8.604,8.604,8.5673,8.5123,8.6261,8.5783,8.4168,8.5159,8.4168,8.1966,8.2113,8.1525,8.0131,7.6864,7.5506,7.5175,7.356,7.1211,6.8715,6.7393,6.5778,6.4127,6.2915,6.1887,6.0089,5.473,5.4216,0.0,0.0,0.0,0.0,0.0,0.0,0.0,0.0,0.0,5.4987,5.6455,5.8914,6.1924,6.5521,6.8825,7.2679,7.7671,8.0975,8.3618,8.5747,8.6591,8.6995,8.6995,8.6995,8.6995,8.6995,8.6995,8.6995,8.6995,8.6995,8.6995,8.6995,8.6995,8.6407,8.5123,8.6334,8.6407,8.5086,8.5527,8.6114,8.6738,8.4499,8.3398,8.339,8.2869,8.1904,8.0641,8.0805,7.9939,7.8361,7.6861,7.563,7.463,7.3822,7.3399,7.3129,7.2283,7.1514,7.0898,0.0,0.0,0.0,3.99,4.001,4.0304,4.1111,4.1846,4.3424,4.6581,4.8673,5.0765,5.3225,5.4289,5.3922,5.1793,5.528,5.8684,6.1226,6.7963,7.3978,7.8702,8.2341,8.4505,8.5207,8.5568,8.6151,8.6885,8.6885,8.6885,8.6885,8.6885,8.6811,8.6738,8.6151,8.6187,8.6518,8.527,8.4939,8.5086,8.303,8.2517,8.2663,7.9396,7.7708,7.6827,7.5212,7.2165,6.8862,6.8678,6.71,6.5264,6.5778,6.4897,6.2842,5.8584,0.0,5.3445,4.8343,4.6287,4.6361,4.9774,5.1793,5.4032,0.0,0.0,6.409,6.4971,6.8201,7.1468,7.334,7.635,7.947,8.2296,8.4242,8.5747,8.6738,8.6958,8.6995,8.6995,8.6995,8.6995,8.6995,8.6995,8.6995,8.6995,8.6995,8.6995,8.6995,8.6995,8.6921,8.6738,8.6921,8.6921,8.6738,8.6114,8.5857,8.5894,8.4205,8.3398,8.339,8.227,8.1641,8.1387,8.0423,7.94,7.8438,7.7515,7.6169,7.463,7.3822,7.3014,7.2245,7.136,7.0975,7.0898,0.0,0.0,0.0,3.9129,3.9203,3.946,4.0267,4.0671,4.1552,4.3387,4.5039,4.6617,4.8086,4.8967,4.8673,4.6728,5.1867,5.6776,6.0481,6.8548,7.5361,8.0099,8.3495,8.5453,8.5783,8.6261,8.6664,8.6995,8.6995,8.6995,8.6995,8.6995,8.6995,8.6995,8.6664,8.6444,8.6297,8.6077,8.538,8.4352,8.3801,8.2957,8.1746,7.947,7.7194,7.4808,7.1798,6.8715,0.0,0.0,6.3282,6.2768,6.453,6.3319,6.075,5.807,5.5904,0.0,5.1903,5.1536,0.0,0.0,5.7299,6.0199,6.2695,6.5044,6.732,6.9522,7.2459,7.5395,7.7965,7.958,8.1452,0.0,8.4976,8.5563,8.6811,8.6995,8.6848,8.6371,8.5894,8.56,8.56,8.6444,8.6628,8.5673,8.6481,8.6995,8.6995,8.6995,8.6995,8.6995,8.6995,8.6995,8.6995,8.6664,8.6261,8.5783,8.4646,8.3361,8.2031,8.2233,8.1982,8.1232,7.9703,7.8554,7.7707,7.6322,7.5091,7.3937,7.3053,7.2206,7.1398,7.1014,7.0898,7.0898,0.0,0.0,0.0,3.8689,3.8689,3.8909,3.946,3.9753,4.012,4.0708,4.1992,4.313,4.3975,4.4745,4.4782,4.3608,4.904,5.461,5.9509,6.8126,7.5373,8.0579,8.3975,8.5894,8.6114,8.6701,8.6995,8.6995,8.6995,8.6995,8.6995,8.6995,8.6995,8.6995,8.6995,8.6701,8.6151,8.6775,8.5857,8.4058,8.4205,8.281,8.0424,7.8112,7.4808,7.0991,6.8091,6.5191,0.0,0.0,5.9061,5.9391,6.119,6.0419,5.851,5.6675,5.4509,5.2858,5.3555,0.0,0.0,5.84,6.1887,6.5154,6.6623,6.8385,7.0477,7.3266,7.5763,7.8295,8.1158,8.2039,8.3177,8.571,8.5637,8.5673,8.6848,8.6811,8.6224,8.4939,8.4095,8.3361,8.2663,8.4866,8.604,8.5343,8.6334,8.6995,8.6995,8.6995,8.6995,8.6995,8.6995,8.6995,8.6995,8.6554,8.604,8.5453,8.4425,8.303,8.137,8.2158,8.1901,8.0669,7.94,7.8284,7.7169,7.5668,7.4437,7.3399,7.2552,7.1668,7.0898,7.0898,7.0898,7.0898,0.0,0.0,0.0,0.0,3.8689,3.8726,3.8726,3.9386,3.99,3.9937,4.0671,4.1479,4.2286,4.3094,4.3534,4.3497,4.8012,5.3261,5.8867,6.6826,7.4258,8.069,8.4095,8.6151,8.6958,8.6995,8.6995,8.6995,8.6995,8.6995,8.6995,8.6995,8.6995,8.6995,8.6995,8.6995,8.6995,8.6995,8.6518,8.56,8.4058,8.2003,7.9396,7.5359,7.0403,6.5558,6.5411,0.0,0.0,0.0,5.5721,5.5757,5.5831,5.6859,0.0,5.517,5.1646,4.9003,5.1426,0.0,5.3628,5.9905,6.398,6.7247,7.0403,7.2973,7.5175,7.6827,7.914,8.1379,8.303,8.4609,8.593,8.6811,8.6958,8.6958,8.6995,8.6334,8.4939,8.259,8.1599,8.0167,7.7781,8.1856,8.5306,8.6811,8.6995,8.6995,8.6995,8.6995,8.6995,8.6995,8.6995,8.6995,8.6995,8.5453,8.4646,8.4609,8.303,8.2223,8.2141,8.1821,8.0946,7.9862,7.9785,7.8823,7.7207,7.6322,7.4976,7.3399,7.2552,7.1668,7.0898,7.0898,7.0898,7.0898,0.0,0.0,0.0,0.0,0.0,3.8689,3.8689,3.8946,3.9093,3.9093,4.0267,0.0,0.0,0.0,0.0,0.0,4.6471,5.0545,5.5684,6.3613,7.0513,7.5909,8.1819,8.5123,8.5416,8.6444,8.6995,8.6995,8.6995,8.6995,8.6995,8.6995,8.6995,8.6995,8.6995,8.6995,8.6995,8.6444,8.5416,8.4022,8.1856,7.9543,7.6717,7.1064,6.6402,6.2218,0.0,0.0,0.0,0.0,0.0,0.0,5.2674,5.2454,5.1206,4.9297,4.9701,5.1169,5.3078,0.0,6.0199,6.4567,6.8091,7.1174,7.3891,7.5542,7.6827,7.7928,7.7084,7.6497,7.7561,7.7341,7.7965,8.0938,8.1856,8.3141,8.582,8.4572,8.292,8.1562,8.0681,7.9828,7.8763,8.1307,8.3214,8.3765,8.5783,8.6995,8.6995,8.6995,8.6995,8.6995,8.6995,8.6995,8.6995,8.593,8.5123,8.4572,8.1893,8.0849,8.1244,8.038,8.0325,8.0769,7.9505,7.8631,7.79,7.5399,7.4014,7.336,7.1898,7.1168,7.0898,7.0898,7.0898,7.0898,0.0,0.0,0.0,0.0,0.0,0.0,0.0,0.0,0.0,0.0,0.0,0.0,0.0,0.0,0.0,0.0,0.0,4.8196,5.2821,5.8804,6.4604,7.0036,7.4771,7.7671,7.8552,7.958,8.0534,8.1415,8.226,8.3287,8.4425,8.4719,8.5013,8.527,8.527,8.527,8.5233,8.4132,8.2553,8.0534,7.7231,7.4074,7.0697,6.4824,6.0382,0.0,0.0,0.0,0.0,0.0,0.0,4.7609,4.8636,4.8269,4.7535,4.7939,5.0362,5.3592,5.6932,6.1153,6.5485,6.9302,7.2275,7.4698,7.657,7.7414,7.7855,7.8075,7.6019,7.4111,7.4074,7.2973,7.312,7.6313,7.7268,7.9213,8.3838,8.2443,8.0938,8.1012,7.9434,7.8244,0.0,0.0,8.1136,8.1975,8.4296,8.5857,8.6151,8.6151,8.6407,8.6995,8.6995,8.6885,8.6591,8.5783,8.4682,8.3287,8.1232,8.0271,8.0338,7.9854,7.9437,7.9095,7.8673,7.7823,7.6553,7.4399,7.3514,7.3322,7.1591,7.0898,7.0898,7.0898,7.0898,7.0898,0.0,0.0,0.0,0.0,0.0,0.0,0.0,0.0,0.0,0.0,0.0,0.0,0.0,0.0,0.0,0.0,0.0,0.0,5.0178,5.2858,5.7042,6.3209,6.387,6.5154,6.7467,6.7614,6.8825,7.1138,7.3413,7.613,7.9176,7.9947,8.0718,8.1379,8.1415,8.1415,8.1232,7.969,7.7635,7.5028,7.0293,6.6072,6.2034,5.7189,5.2931,0.0,0.0,0.0,0.0,0.0,0.0,4.5773,4.4378,4.5039,4.7095,5.1059,5.3482,5.6271,6.2511,6.6072,6.9119,7.3817,7.613,7.7488,7.8332,7.8516,7.8185,7.7157,7.5542,7.3744,0.0,0.0,7.1248,7.3156,7.3597,7.5689,8.1452,8.0241,7.9323,0.0,0.0,0.0,0.0,0.0,0.0,8.1523,8.2819,8.3875,8.4682,8.4719,8.5416,8.6958,8.6995,8.6628,8.5783,8.4903,8.3287,8.0938,8.0901,8.0382,7.9427,7.9992,7.8447,7.5397,7.7521,7.6592,7.363,7.3553,7.3476,7.3283,7.1552,7.0898,7.0898,7.0898,7.0898,7.0898,0.0,0.0,0.0,0.0,0.0,0.0,0.0,0.0,0.0,0.0,0.0,0.0,0.0,0.0,0.0,0.0,0.0,0.0,4.5296,4.9921,5.3335,5.4987,6.086,6.4383,6.5007,6.6769,6.7981,6.8605,6.9229,6.9963,7.077,7.0991,7.0881,7.0513,7.1138,7.0734,6.9596,6.9192,6.7907,6.5925,6.2915,6.0713,5.8694,5.3849,5.0986,0.0,0.0,0.0,0.0,0.0,0.0,0.0,4.937,5.0949,5.2674,5.4913,5.8437,6.2254,6.5118,6.8972,7.2753,7.5175,7.6093,7.6644,7.7451,7.7194,7.5836,7.2606,6.8715,6.4861,0.0,6.1117,6.3319,6.9192,7.2129,0.0,8.2223,8.2039,0.0,7.9025,0.0,7.8663,7.7005,7.9251,0.0,8.0519,8.3447,8.5527,8.6371,8.6407,8.6591,8.6995,8.6995,8.6628,8.5783,8.3801,8.1893,8.0094,7.9507,7.9017,7.857,7.8564,7.8339,7.7913,7.7713,7.6746,7.5284,7.4014,7.3129,7.2437,7.1321,7.0898,7.0898,7.0898,7.0898,7.0898,0.0,0.0,0.0,0.0,0.0,0.0,0.0,0.0,0.0,0.0,0.0,0.0,0.0,0.0,0.0,0.0,0.0,0.0,0.0,4.6471,4.8563,4.9297,5.3004,5.539,5.6088,5.7446,5.8474,5.9171,6.0639,6.1887,6.2915,6.3649,6.3906,6.3833,6.3943,6.3649,6.3099,6.2034,6.0639,0.0,0.0,5.4069,5.2307,4.8893,4.7315,0.0,0.0,0.0,0.0,0.0,0.0,4.9591,5.3812,5.5794,5.7299,6.1447,0.0,6.732,7.0,7.323,7.6056,7.6974,7.7194,7.6754,7.5065,7.4037,7.1908,6.6439,6.2842,5.9465,5.5427,5.5941,5.8877,6.4751,0.0,0.0,8.0351,8.0173,7.9449,0.0,7.8972,0.0,7.8272,8.0235,8.1434,8.1225,8.3411,8.5086,8.5894,8.5967,8.6114,8.6481,8.6481,8.5747,8.4242,8.2517,8.0865,7.925,7.8442,7.7946,7.7713,7.7475,7.7126,7.6692,7.7099,7.6169,7.4284,7.3745,7.2976,7.2091,7.1245,7.0898,7.0898,7.0898,7.0898,7.0898,0.0,0.0,0.0,0.0,0.0,0.0,0.0,0.0,0.0,0.0,4.0744,4.1405,0.0,0.0,0.0,0.0,0.0,0.0,0.0,0.0,4.4085,4.5369,4.4268,4.4305,4.57,4.5847,4.6581,4.7976,5.0839,5.3261,5.5244,5.6638,5.7556,5.796,5.7409,5.7409,5.7703,5.5721,5.3995,5.2417,4.9701,4.7315,4.5259,0.0,0.0,0.0,0.0,0.0,0.0,0.0,5.1573,5.1756,5.8143,6.0566,6.2254,6.8678,7.0807,7.1835,7.5322,7.7488,7.8699,7.8479,7.8332,7.7011,7.2239,7.0183,6.7283,6.0199,0.0,5.5941,5.2344,5.3628,5.6785,6.1337,0.0,7.033,7.7291,7.7056,7.745,8.0717,7.8283,7.7179,7.935,8.0454,8.1391,8.243,8.3157,8.3985,8.4866,8.4829,8.5013,8.56,8.5416,8.4315,8.2223,8.1195,7.991,7.8405,7.7561,7.7061,7.6961,7.6658,7.5611,7.4208,7.6133,7.513,7.2245,7.3014,7.2822,7.1937,7.1206,7.0898,7.0898,7.0898,7.0898,7.0898,0.0,0.0,0.0,0.0,0.0,0.0,0.0,0.0,0.0,0.0,4.1442,4.1405,0.0,0.0,0.0,0.0,0.0,0.0,0.0,0.0,0.0,4.2947,4.3938,4.4635,4.4892,4.5553,4.603,4.6324,4.6874,4.7058,4.6801,4.7095,4.6581,4.5443,4.5993,4.5553,4.4488,4.4709,4.4268,4.3424,4.3534,4.3314,4.2983,0.0,0.0,0.0,0.0,0.0,0.0,0.0,5.5133,5.7556,6.3392,6.754,7.0587,7.2496,7.4478,7.6203,7.69,7.8332,7.925,7.7892,7.7047,7.5432,7.1248,6.7614,0.0,0.0,5.3995,5.1646,5.0251,5.1977,5.6051,6.3466,6.6953,7.047,7.5581,7.7697,7.8592,0.0,7.7563,7.7706,7.9046,7.9391,0.0,8.2359,8.3665,8.5049,8.6518,8.5967,8.5343,8.4829,8.3508,8.2627,8.2186,8.0094,7.8516,7.7524,7.6717,7.6421,7.6714,7.606,7.5702,7.5588,7.5293,0.0,7.2206,7.236,7.1898,7.1091,7.0975,7.0898,7.0898,7.0898,7.0898,7.0937,0.0,0.0,0.0,0.0,0.0,0.0,0.0,4.0561,4.1405,4.3864,4.3828,4.3424,4.2983,4.3277,4.3497,0.0,0.0,0.0,0.0,0.0,0.0,0.0,0.0,0.0,4.4085,4.4452,4.4452,4.4011,0.0,4.4011,4.2837,4.3681,4.324,4.1699,4.2103,4.1809,4.1111,4.1075,4.1167,4.1428,4.2055,4.2382,0.0,0.0,0.0,0.0,0.0,0.0,0.0,0.0,5.4069,5.8107,6.5925,7.055,7.3377,7.4588,7.6387,7.8002,7.8002,7.9176,7.991,7.7855,7.6387,7.356,6.6145,0.0,0.0,0.0,4.8746,4.7865,4.6654,4.9114,5.3408,5.9832,6.3613,6.7761,7.3688,7.5406,7.637,7.7181,7.6871,7.688,7.7905,7.8589,7.962,8.1225,8.2577,8.4242,8.6261,8.5233,8.4168,8.3361,8.2186,8.1158,8.0314,7.9176,7.7965,7.668,7.6212,7.5962,7.6066,7.5535,7.5318,7.5284,7.4899,7.3245,7.0975,7.1822,7.1168,6.9706,7.0552,7.0898,7.0898,7.0898,7.0898,7.0937,0.0,0.0,0.0,0.0,0.0,0.0,4.1507,4.1699,4.2763,4.5993,4.6397,4.5883,4.4415,4.4121,4.3864,0.0,0.0,0.0,0.0,0.0,0.0,0.0,0.0,0.0,0.0,0.0,0.0,4.264,4.3302,0.0,0.0,0.0,0.0,0.0,4.0977,4.0835,4.0651,3.9932,4.0265,0.0,0.0,4.2332,0.0,0.0,0.0,0.0,0.0,0.0,0.0,0.0,5.1793,5.6051,6.4567,6.9743,7.2936,7.4404,7.635,7.8185,7.8699,7.9764,8.0131,7.7451,7.5469,7.1541,6.1484,5.7556,0.0,4.5663,4.4745,4.5149,4.4415,4.6911,5.0765,0.0,5.9318,6.3852,7.1276,7.244,7.3687,7.673,7.6302,0.0,7.7108,7.791,0.0,8.0403,8.1595,8.3104,8.5159,8.3911,8.2774,8.1966,8.1012,7.9874,7.8589,7.8222,7.7304,7.5836,7.5439,7.5147,7.4972,7.4714,7.4418,7.4168,7.4168,7.236,6.9552,7.1245,7.0514,6.859,7.0244,7.0898,7.0898,7.0898,7.0937,7.0975,0.0,0.0,0.0,0.0,0.0,0.0,4.0,4.1919,4.4415,4.7682,4.8086,4.7755,4.6874,4.614,4.5076,0.0,0.0,0.0,0.0,0.0,0.0,0.0,0.0,0.0,0.0,0.0,0.0,4.3825,4.3937,0.0,0.0,0.0,0.0,0.0,0.0,4.0021,3.9259,3.8951,0.0,0.0,0.0,0.0,0.0,0.0,0.0,0.0,0.0,0.0,0.0,0.0,0.0,5.205,5.6602,6.3246,6.9522,7.0403,0.0,0.0,7.9066,7.98,7.914,7.5946,7.3377,6.9449,6.1117,0.0,5.205,4.6764,4.4635,4.4342,4.6397,4.7095,4.9407,0.0,0.0,5.9249,6.7847,7.0253,7.2371,7.5809,0.0,0.0,7.8197,7.7486,7.8212,8.1449,8.2016,8.2627,8.3581,8.281,8.1929,8.1158,7.9617,7.8736,7.8589,7.7084,7.5909,7.4992,7.3976,7.3426,7.3237,7.2928,7.2696,7.2437,7.2437,7.0937,0.0,7.0321,6.9975,6.859,7.0244,7.0898,7.0898,7.0898,7.1014,7.1091,0.0,0.0,0.0,0.0,0.0,0.0,4.1765,4.247,4.4305,4.8526,4.9077,4.8967,4.8636,4.7865,4.6324,4.3718,0.0,0.0,0.0,0.0,0.0,0.0,0.0,0.0,0.0,0.0,4.366,4.3998,4.3823,0.0,0.0,0.0,0.0,0.0,0.0,4.0666,3.9427,0.0,0.0,0.0,0.0,0.0,0.0,0.0,0.0,0.0,0.0,0.0,0.0,0.0,0.0,0.0,4.86,5.3041,0.0,0.0,6.8531,7.2899,7.4882,7.7194,7.8405,7.5616,7.1982,6.7136,5.9501,0.0,5.0362,4.5443,4.3938,4.3791,4.4745,4.4929,4.6397,0.0,0.0,0.0,6.2263,6.4339,6.7302,7.3405,7.4622,7.579,7.7872,7.7311,7.7486,7.8996,7.9206,7.9837,8.1158,8.0938,8.0388,7.958,7.8442,7.7598,7.7084,7.5946,7.519,7.4717,7.4649,7.4243,7.3535,7.3772,7.3253,7.2206,7.2206,7.0167,0.0,6.9783,6.9321,6.7167,6.986,7.0898,7.0898,7.0898,7.0706,7.0413,0.0,0.0,0.0,0.0,0.0,3.9908,4.2426,4.2727,4.4158,4.8306,4.9077,4.9224,4.9224,4.8233,4.6691,4.4415,4.3754,0.0,0.0,0.0,0.0,0.0,0.0,0.0,0.0,0.0,4.3726,4.4175,4.3943,4.3767,0.0,0.0,4.3415,4.1531,0.0,0.0,0.0,0.0,0.0,0.0,0.0,0.0,0.0,0.0,0.0,0.0,0.0,0.0,0.0,0.0,0.0,0.0,0.0,0.0,0.0,0.0,6.3319,6.8458,7.0807,7.4074,7.6313,7.4331,6.9816,6.4237,0.0,0.0,4.8526,4.4342,4.3497,4.3497,4.3497,4.3497,4.4488,0.0,0.0,5.1182,5.8388,6.072,6.398,7.0132,7.1973,7.3822,7.6547,7.7631,7.8062,7.805,7.7818,7.8112,7.8993,7.8809,7.8552,7.8222,7.7414,7.657,7.5763,7.4955,7.4421,7.4197,7.4319,7.3677,7.2421,7.3223,7.2668,7.1091,7.1591,6.986,0.0,6.9706,6.9206,6.6936,6.9783,7.0898,7.086,7.0629,7.0321,6.9939,0.0,0.0,0.0,0.0,0.0,3.9537,4.0919,4.247,4.4342,4.6838,4.7829,4.8306,4.8306,4.6874,4.592,4.5883,4.4415,0.0,0.0,0.0,0.0,0.0,0.0,0.0,0.0,0.0,4.3855,4.4599,4.4599,4.4943,4.5586,4.5586,4.5124,4.4261,0.0,0.0,0.0,0.0,0.0,0.0,0.0,0.0,0.0,0.0,0.0,0.0,0.0,0.0,0.0,0.0,0.0,0.0,0.0,4.3534,4.4856,0.0,5.785,6.3759,6.7834,7.0697,7.2386,7.1541,6.6476,6.0603,0.0,5.1206,4.6471,4.4011,4.3497,4.3497,4.3497,4.3497,4.4305,0.0,0.0,0.0,5.7226,6.0786,6.3566,6.5845,6.8225,7.1032,7.4254,7.8441,8.0645,7.98,7.9029,7.8222,7.7378,7.657,7.6497,7.7304,7.6533,7.5726,7.4918,7.4111,7.3572,7.3341,7.2245,7.0761,6.8917,7.0277,7.0014,6.8552,7.0206,6.9937,0.0,7.0206,6.9898,6.8552,7.0244,7.0898,7.0783,7.0014,6.9937,6.9939,0.0,0.0,0.0,0.0,0.0,0.0,4.0152,4.1185,4.2727,4.5149,4.6177,4.7095,4.8196,4.6874,4.5883,4.5883,4.4415,0.0,0.0,0.0,0.0,0.0,0.0,0.0,0.0,0.0,4.4745,4.5741,4.5521,4.5645,4.6066,4.6066,4.5319,4.3942,4.4096,0.0,0.0,0.0,0.0,0.0,0.0,0.0,0.0,0.0,0.0,0.0,0.0,0.0,0.0,0.0,0.0,0.0,0.0,0.0,0.0,4.6617,5.1206,5.6051,5.8988,6.1557,6.3246,6.2401,5.9024,5.5097,5.216,4.8783,4.5736,4.3864,4.3497,4.3497,4.3497,4.3497,4.4672,4.8233,0.0,0.0,5.7189,6.0786,6.4286,6.8327,7.3421,7.6765,7.7262,7.7468,7.7781,7.8075,7.6864,7.6203,7.646,7.624,7.5946,7.5689,7.4882,7.4331,7.4074,7.2753,7.2405,7.3116,7.2165,7.0953,6.9472,7.1074,7.0552,6.8513,7.0167,6.9937,6.8552,7.0206,6.9898,6.859,7.0244,7.0898,7.0821,7.0102,6.9629,6.9155,0.0,0.0,0.0,0.0,0.0,0.0,3.9933,4.0399,4.1295,4.313,4.3791,4.4819,4.6728,4.5516,4.4892,4.581,4.4552,0.0,0.0,0.0,0.0,0.0,0.0,0.0,4.4599,4.4599,4.5306,4.6778,4.6225,4.6335,4.6967,4.6661,4.5781,4.4479,4.4707,4.4509,0.0,0.0,0.0,0.0,0.0,0.0,4.4401,0.0,0.0,0.0,0.0,0.0,0.0,0.0,0.0,0.0,0.0,0.0,0.0,0.0,4.6397,4.9591,5.3225,5.6014,5.7813,5.7593,5.4656,5.1463,4.9921,0.0,4.4709,4.3718,4.3975,4.4195,4.3608,4.3975,4.5039,4.6985,4.882,5.1242,5.4766,5.8584,6.2695,6.7283,7.2994,7.6653,7.6754,7.6937,7.7011,7.6864,7.5946,7.5322,7.5212,7.5175,7.4845,7.4037,7.3817,7.3413,7.2789,7.2005,7.1764,7.2025,7.1781,7.075,6.9283,7.0937,7.0514,6.8513,7.0167,7.0321,0.0,7.0475,7.0283,6.9436,7.0167,7.0437,7.0321,6.9333,6.8718,6.8326,0.0,0.0,0.0,0.0,0.0,0.0,0.0,4.0037,4.0157,4.0928,4.1075,4.1992,4.4305,4.3204,4.324,4.5516,4.4642,0.0,0.0,0.0,0.0,0.0,0.0,0.0,4.4676,4.4676,4.5607,4.7548,4.68,4.6967,4.8009,4.7317,4.6509,4.5586,4.5586,4.5586,0.0,0.0,0.0,0.0,4.5263,4.5137,0.0,0.0,0.0,0.0,0.0,0.0,0.0,0.0,0.0,0.0,0.0,0.0,0.0,0.0,0.0,0.0,0.0,5.3004,5.4913,5.5684,5.2491,4.915,4.915,4.6214,0.0,4.3644,4.4856,4.5443,4.4011,4.5002,4.559,4.4158,4.7829,5.0949,5.1132,5.5464,6.0052,6.398,6.8699,7.2144,7.3502,7.6533,7.7781,7.6203,7.6056,7.5322,7.3707,7.3597,7.323,7.2349,7.3104,7.2773,7.1377,7.1732,7.1406,7.041,7.0951,7.0178,6.8282,7.009,6.9937,6.8398,7.009,7.0783,7.0706,7.0706,7.0706,7.0667,6.9898,6.9629,6.9436,6.7975,6.7501,6.751,0.0,0.0,0.0,0.0,0.0,0.0,0.0,0.0,0.0,0.0,4.0744,4.1552,4.2727,4.2543,4.2763,0.0,0.0,0.0,0.0,0.0,0.0,0.0,0.0,0.0,4.5381,4.5342,4.5899,4.7069,4.7453,4.753,4.7201,4.7625,4.7009,4.5586,4.5586,4.5586,0.0,0.0,0.0,0.0,4.5494,4.5341,0.0,0.0,0.0,0.0,4.3631,4.3497,0.0,0.0,0.0,0.0,0.0,0.0,0.0,0.0,4.3497,4.3791,4.5112,0.0,4.6361,4.6581,4.5773,4.4929,0.0,4.4195,0.0,0.0,0.0,4.5957,4.6214,4.7058,4.7829,4.8049,5.0141,5.2344,5.4216,6.0272,0.0,6.7504,7.205,7.4409,7.2936,7.5139,7.6533,7.613,7.5542,7.4478,7.2863,7.2789,7.2129,7.0697,7.1226,7.1635,7.1895,7.0834,6.991,6.9201,6.9988,6.9023,6.659,6.9552,6.9629,6.7513,6.9244,6.959,6.9013,6.9013,6.9013,6.8975,6.8783,6.8706,6.8629,6.7833,6.7557,6.7515,0.0,0.0,0.0,0.0,0.0,0.0,0.0,0.0,0.0,0.0,4.0267,4.1001,4.2176,4.2286,4.2717,0.0,0.0,0.0,0.0,0.0,0.0,0.0,0.0,4.5419,4.5586,4.5586,4.6201,4.7471,4.7509,4.7509,4.7471,4.7509,4.6855,4.5586,4.5586,4.5586,4.5586,0.0,0.0,0.0,4.5381,0.0,0.0,0.0,0.0,0.0,4.3078,4.3167,0.0,4.3497,4.3497,4.3497,0.0,0.0,0.0,0.0,4.3497,4.3497,4.3497,4.3497,4.3681,4.4415,4.4048,4.3681,4.4415,0.0,0.0,0.0,0.0,4.603,4.6471,4.6911,4.7462,4.8269,4.9811,5.238,5.6638,6.13,6.5118,6.7504,7.044,7.2312,7.2496,7.4368,7.5395,7.5028,7.4258,7.3266,7.2018,7.1615,7.1121,7.0523,7.04,7.0549,7.0958,7.063,6.97,6.8269,6.9757,6.928,6.7128,6.9706,6.9937,6.8282,6.8436,6.8475,6.8359,6.759,6.7705,6.8359,6.8052,6.7936,6.7898,6.7359,6.7155,6.711,0.0,0.0,0.0,0.0,0.0,0.0,0.0,0.0,0.0,0.0,0.0,0.0,0.0,0.0,0.0,0.0,0.0,0.0,0.0,0.0,0.0,0.0,4.5438,4.5586,4.5586,4.5586,4.6278,4.774,4.7163,4.7201,4.7702,4.7163,4.6432,4.5586,4.5586,4.5586,4.5586,4.5586,4.5438,0.0,4.5137,0.0,0.0,0.0,0.0,0.0,0.0,0.0,0.0,4.3277,4.324,4.3167,4.3277,0.0,0.0,0.0,0.0,0.0,4.3277,4.3314,4.3718,4.548,4.4672,4.3901,4.5516,0.0,0.0,0.0,0.0,0.0,4.6434,4.6874,0.0,0.0,0.0,5.2821,5.8914,6.1263,6.3356,6.6182,6.776,6.9522,7.1908,7.3597,7.4258,7.356,7.2642,7.1798,7.0991,7.0293,7.0106,7.0511,6.9985,6.9705,6.976,7.0649,6.998,6.7751,6.9731,6.9821,6.8244,6.9821,7.0052,6.9206,6.7744,0.0,6.7898,6.6474,6.6744,6.7975,6.7436,6.7218,6.7176,6.6756,6.6615,6.6592,0.0,0.0,0.0,0.0,0.0,0.0,0.0,0.0,0.0,0.0,0.0,0.0,0.0,0.0,0.0,0.0,0.0,0.0,0.0,0.0,0.0,4.5494,4.5568,4.5586,4.5586,4.5586,4.574,4.597,4.6586,4.6586,4.6009,4.6624,4.6432,4.5586,4.5586,4.5586,4.5586,4.5586,4.5568,4.5514,4.5222,0.0,0.0,0.0,0.0,0.0,0.0,0.0,0.0,4.2249,4.2029,4.1589,4.2286,0.0,0.0,0.0,0.0,0.0,4.2286,4.247,4.302,4.5333,4.4672,4.3901,4.5516,4.4635,4.4342,0.0,0.0,0.0,0.0,5.1242,5.2234,0.0,0.0,5.7226,6.163,6.4273,6.5925,6.6439,7.022,7.2165,7.0624,7.1908,7.2826,7.2679,7.1321,7.011,6.9302,6.9155,6.9036,6.8836,6.9197,6.9582,7.0038,7.0217,6.961,6.8317,6.9371,6.8975,6.7321,6.8321,6.8321,6.7475,0.0,6.6782,6.6244,6.6013,6.6128,6.6436,6.632,6.6415,6.6571,6.6576,6.6615,6.6514,0.0,0.0,0.0,0.0,0.0,0.0,0.0,0.0,0.0,0.0,0.0,0.0,0.0,0.0,0.0,0.0,0.0,0.0,0.0,0.0,4.5438,4.5586,4.5586,4.5586,4.5586,4.5586,4.5817,4.6317,4.6701,4.6701,4.6317,4.624,4.597,4.5586,4.5586,4.5586,4.5586,4.5586,4.5514,4.5341,0.0,0.0,0.0,0.0,0.0,0.0,0.0,0.0,0.0,0.0,4.1772,4.1258,4.2066,0.0,0.0,0.0,0.0,0.0,4.1552,4.1992,4.2983,4.5847,4.5002,4.4378,4.7792,4.592,0.0,0.0,0.0,0.0,0.0,0.0,5.227,5.3885,0.0,6.1887,6.3319,6.4861,6.6182,6.7026,6.9082,7.0183,6.9522,7.0917,7.1688,7.1248,7.011,6.9302,6.8935,6.8794,6.8777,6.8928,6.9472,6.9763,6.9873,7.0333,6.9808,6.8436,6.9706,6.9206,6.7128,6.8475,6.8359,6.7051,0.0,6.582,6.582,6.4999,6.523,6.6128,6.6307,6.6437,6.6515,6.6697,6.6462,6.6039,0.0,0.0,0.0,0.0,0.0,0.0,0.0,0.0,0.0,0.0,0.0,0.0,0.0,0.0,0.0,0.0,0.0,0.0,0.0,4.526,4.5393,4.5586,4.5586,4.5586,4.5586,4.5778,4.624,4.6894,4.6894,4.6817,4.6586,4.5893,4.5586,4.5586,4.5586,4.5586,4.5586,4.5586,4.5438,4.5201,0.0,0.0,0.0,0.0,0.0,0.0,0.0,0.0,0.0,0.0,0.0,0.0,0.0,0.0,0.0,4.0583,4.0588,4.0598,4.0781,4.1258,4.2506,4.5736,4.5002,4.4819,4.9921,0.0,0.0,0.0,0.0,0.0,0.0,5.0839,0.0,5.796,6.2475,6.5411,6.5742,6.6329,6.7247,6.8641,6.8825,6.8972,6.9412,7.0403,7.0697,6.9889,6.9082,6.8659,6.8783,6.8593,6.884,6.9472,6.9693,6.9757,6.9706,7.0129,6.9783,6.8744,7.0014,6.9475,6.7436,6.859,6.8244,6.6744,6.5474,6.5282,6.5859,6.4691,6.4999,6.623,6.6307,6.6206,6.6105,6.6214,6.5859,6.5273,0.0,0.0,0.0,0.0,0.0,0.0,0.0,0.0,0.0,0.0,0.0,0.0,0.0,0.0,0.0,0.0,0.0,0.0,0.0,4.423,4.4739,4.5547,4.5586,4.5586,4.5586,4.6394,4.6855,4.6894,4.6894,4.6509,4.5701,4.5624,4.5586,4.5586,4.5586,4.5586,4.5586,4.5586,4.5586,4.555,4.5222,0.0,0.0,0.0,0.0,0.0,0.0,0.0,0.0,0.0,0.0,0.0,0.0,0.0,3.8897,3.9166,3.9061,3.9056,3.979,4.001,4.0855,4.4085,4.4195,4.4966,5.0618,4.8122,0.0,5.2821,0.0,0.0,0.0,5.4656,5.6492,6.0676,6.3576,6.6586,7.0293,7.0844,7.1211,7.2055,7.2165,7.1872,7.1211,7.055,6.9853,6.9045,6.8238,6.8041,6.849,6.8501,6.8978,7.0026,6.9298,6.9145,6.9706,6.8975,6.8936,6.9629,6.9744,6.9283,6.8282,6.759,6.6821,6.5974,6.5859,6.5897,6.609,6.5974,6.6192,6.65,6.5705,6.5002,6.4488,6.4492,6.4453,6.4297,0.0,0.0,0.0,0.0,0.0,0.0,0.0,0.0,0.0,0.0,0.0,0.0,0.0,0.0,0.0,0.0,0.0,0.0,0.0,4.379,4.4537,4.5547,4.5586,4.5586,4.5586,4.5932,4.6355,4.6894,4.6894,4.674,4.6394,4.5855,4.5586,4.5586,4.5586,4.5586,4.5586,4.5586,4.5586,4.5586,4.5457,4.4422,0.0,0.0,0.0,0.0,0.0,0.0,0.0,0.0,4.0201,3.9564,4.0489,4.0103,3.9275,3.9364,3.9197,3.9036,3.9332,4.0013,4.1442,4.4635,4.4452,0.0,0.0,4.937,4.8379,5.3371,5.2491,0.0,0.0,0.0,5.9391,6.1961,6.5264,6.8091,6.9596,7.0257,7.066,7.0954,7.0991,7.0697,6.9889,6.9522,6.9009,6.8201,6.8181,6.8037,6.7719,6.8316,6.8867,6.9294,6.8824,6.8685,6.8898,6.8552,6.8282,6.809,6.8629,6.8436,6.759,6.7244,6.6705,6.6013,6.6013,6.6128,6.6307,6.6384,6.65,6.6536,6.5789,6.4989,6.4297,6.4297,6.3945,6.3437,0.0,0.0,0.0,0.0,0.0,0.0,0.0,0.0,0.0,0.0,0.0,0.0,0.0,0.0,0.0,0.0,0.0,0.0,4.2184,4.2869,4.3694,4.4778,4.4816,4.4932,4.5163,4.5201,4.574,4.6894,4.6894,4.6778,4.6471,4.5893,4.5586,4.5586,4.5316,4.5201,4.5163,4.4932,4.4816,4.4816,4.4816,4.397,0.0,0.0,0.0,0.0,0.0,0.0,0.0,0.0,4.0274,3.9889,4.0485,4.0208,3.9603,3.9731,3.9438,3.9154,3.9415,4.0096,4.1479,4.4709,4.4305,0.0,5.1279,5.0839,5.0472,5.5317,5.517,0.0,0.0,0.0,0.0,0.0,6.5815,6.8421,6.9192,6.9743,7.011,7.011,7.011,6.9853,6.9221,6.9147,6.8882,6.8235,6.8558,6.8466,6.7734,6.8374,6.8788,6.8686,6.8224,6.7975,6.7975,6.7744,6.7321,6.6782,6.7398,6.7475,6.709,6.7167,6.6782,6.6115,6.6151,6.6129,6.6051,6.6128,6.5903,6.5397,6.4965,6.4258,6.3476,6.3476,6.3086,6.2578,0.0,0.0,0.0,0.0,0.0,0.0,0.0,0.0,4.1282,4.1282,4.1684,0.0,0.0,0.0,0.0,0.0,0.0,0.0,4.0469,4.1316,4.2162,4.3047,4.3085,4.347,4.4278,4.4316,4.5163,4.6894,4.6894,4.6432,4.5586,4.5586,4.5586,4.5547,4.4701,4.4316,4.4239,4.347,4.3124,4.3085,4.3085,4.2585,4.1816,0.0,0.0,0.0,0.0,0.0,0.0,0.0,4.0321,4.0158,4.0406,4.0082,3.9687,4.004,3.9641,3.9293,4.0123,4.0133,4.0671,4.3901,4.3534,0.0,5.2527,5.2527,5.2637,5.9061,6.1043,6.108,5.9501,5.9905,0.0,6.2548,6.4897,6.7357,6.9743,7.0073,7.0073,7.0073,7.0073,7.0032,6.9729,6.9703,6.9565,6.931,6.9313,6.9171,6.8803,6.8798,6.8648,6.8371,6.7552,6.709,6.709,6.6282,6.5974,6.609,6.6115,6.6461,6.709,6.7282,6.6936,6.614,6.6329,6.5967,6.5282,6.5282,6.4396,6.3008,6.3008,6.2461,6.1719,6.1719,6.1719,6.1719,0.0,0.0,0.0,0.0,0.0,0.0,0.0,0.0,4.0526,3.9989,4.0496,0.0,0.0,0.0,0.0,0.0,0.0,0.0,3.8738,3.99,4.107,4.2146,4.2777,4.3201,4.3431,4.4008,4.4855,4.597,4.5355,4.4932,4.4662,4.4124,4.3855,4.3893,4.4778,4.4547,4.3508,4.447,4.4162,4.3085,4.3085,4.2585,4.1816,0.0,0.0,0.0,0.0,0.0,0.0,0.0,0.0,0.0,4.0454,4.0389,4.0478,4.1813,4.1074,4.0252,4.2268,4.198,0.0,4.4744,4.556,0.0,0.0,5.1925,0.0,0.0,6.0162,5.9795,5.9318,6.1777,0.0,6.2915,6.5669,6.8037,6.8328,6.9063,6.9369,6.9014,6.9313,6.9484,6.9397,6.9439,6.9369,6.9313,6.9058,6.8666,6.8002,6.7744,6.756,6.7475,6.6705,6.6513,6.709,6.6397,6.6051,6.6115,6.6245,6.6419,6.6615,6.6692,6.6615,6.6461,6.6499,6.6151,6.5457,6.4833,6.395,6.3008,6.3008,6.2461,6.1719,6.1719,6.1719,6.1719,0.0,0.0,0.0,0.0,0.0,0.0,0.0,0.0,3.9315,3.8854,3.92,3.9623,0.0,0.0,0.0,0.0,0.0,0.0,0.0,3.8805,3.9708,4.0777,4.1316,4.1893,4.2585,4.3701,4.4393,4.4624,4.4393,4.4162,4.3855,4.3393,4.3162,4.3239,4.3932,4.3667,4.2748,4.3415,4.3102,4.22,4.22,4.1854,4.1393,0.0,0.0,0.0,0.0,0.0,0.0,0.0,0.0,0.0,4.06,0.0,4.1585,4.197,4.1855,4.2008,4.3878,4.3842,0.0,4.741,4.7941,4.8509,5.1806,0.0,0.0,0.0,6.2387,6.2059,6.2345,6.4355,0.0,6.5022,6.712,6.8705,6.8368,6.8891,6.919,6.8884,6.9106,6.9242,6.9096,6.9437,6.9587,6.9465,6.9278,6.8786,6.7952,6.7379,6.6936,6.6628,6.6205,6.6205,6.6705,6.6359,6.6269,6.6307,6.6438,6.6534,6.6572,6.6174,6.6013,6.6076,6.5798,6.5445,6.5,6.3789,6.2969,6.2461,6.2461,6.2148,6.1719,6.1719,6.1719,6.1719,0.0,0.0,3.5738,3.6584,0.0,0.0,0.0,0.0,3.7969,3.7892,3.7969,3.8277,0.0,0.0,0.0,0.0,0.0,0.0,0.0,3.7853,3.8277,3.9123,3.9315,4.0123,4.1662,4.3278,4.3701,4.2893,4.3701,4.3739,4.3069,4.3041,4.3057,4.315,4.2518,4.2146,4.1946,4.1293,4.0954,4.0815,4.0815,4.0815,4.0815,4.0815,0.0,0.0,0.0,0.0,0.0,0.0,0.0,0.0,4.0731,4.17,4.2624,4.1162,4.2256,4.4149,4.512,0.0,0.0,5.0781,5.0251,0.0,5.4207,5.797,6.1677,6.5617,0.0,6.6374,6.7299,6.7251,6.7352,6.8107,6.8862,6.9353,6.9313,6.9317,6.9319,6.928,6.9244,6.9096,6.8798,6.9475,6.9827,6.9602,6.9513,6.9129,6.8321,6.7475,6.6667,6.5936,6.5936,6.5961,6.5996,6.614,6.6269,6.6384,6.6461,6.6533,6.6501,6.5761,6.5411,6.5264,6.4535,6.418,6.4062,6.2383,6.1719,6.1719,6.1719,6.1719,6.168,6.1601,6.164,6.168,0.0,0.0,3.5738,3.6584,0.0,0.0,0.0,0.0,0.0,3.7084,0.0,0.0,0.0,0.0,0.0,0.0,0.0,0.0,0.0,3.6622,3.7353,3.8238,3.9546,4.0392,4.0777,4.1893,4.2085,4.1216,4.2085,4.2393,4.2239,4.1606,4.1325,4.1403,4.2578,4.2374,4.114,4.2333,4.2033,4.0781,4.0781,4.0781,4.0781,4.0781,4.0781,0.0,0.0,0.0,0.0,0.0,0.0,0.0,4.0766,4.1024,4.1485,4.2354,4.3457,4.4804,4.6897,4.687,0.0,0.0,5.0832,5.3204,5.8967,6.098,6.2368,6.5182,6.5755,6.6362,6.8508,6.8816,6.8822,6.9011,6.955,6.9775,6.9353,6.9493,6.9444,6.8963,6.8731,6.856,6.8493,6.8646,6.874,6.8706,6.8052,6.759,6.7398,6.659,6.6128,6.6051,6.5436,6.5148,6.5328,6.4839,6.4603,6.4641,6.5436,6.5097,6.3894,6.5746,6.6165,6.5463,6.3941,6.3281,6.3203,6.2148,6.1719,6.1719,6.1719,6.1719,6.1601,6.0937,6.1094,6.1601,0.0,0.0,0.0,0.0,0.0,0.0,0.0,0.0,0.0,0.0,0.0,0.0,0.0,0.0,0.0,0.0,0.0,0.0,0.0,0.0,3.6699,3.7969,4.0008,4.0777,3.9992,4.1316,4.1407,4.0176,4.106,4.1524,4.1524,4.1107,4.0935,4.1012,4.1952,4.1831,4.1051,4.1974,4.1818,4.0972,4.0972,4.0972,4.0972,4.0972,4.0972,4.0972,0.0,0.0,0.0,0.0,0.0,0.0,0.0,0.0,4.2071,4.2047,4.3226,4.4893,4.6529,0.0,0.0,5.1182,0.0,5.6741,6.0027,6.2018,6.3771,6.59,6.673,6.7425,6.8337,6.9011,6.9337,6.8955,6.9113,6.9176,6.8913,6.8991,6.8971,6.8655,6.8493,6.8244,6.7821,6.8167,6.8244,6.7821,6.709,6.6602,6.6602,6.5526,6.4949,6.4987,6.4641,6.4517,6.4619,6.4357,6.4208,6.4208,6.4714,6.4489,6.3633,6.4609,6.4765,6.4297,6.3398,6.3008,6.293,6.207,6.1719,6.1719,6.1719,6.1719,6.164,6.1172,6.1328,6.1562,0.0,0.0,0.0,0.0,0.0,0.0,0.0,0.0,0.0,0.0,0.0,0.0,0.0,0.0,0.0,0.0,0.0,0.0,0.0,0.0,0.0,3.793,4.0162,4.0761,3.9438,4.1008,4.1117,3.9625,4.0552,4.1193,4.1463,4.1479,4.1544,4.1641,4.1641,4.1484,4.1211,4.1211,4.1211,4.1211,4.1211,4.1211,4.1211,4.1211,4.1211,0.0,0.0,4.1211,4.1211,4.1211,0.0,0.0,0.0,0.0,4.2747,4.126,4.2621,4.4696,4.5393,0.0,5.0413,5.3703,5.6588,0.0,5.9742,6.2012,6.4512,6.6474,6.7765,6.8362,6.7827,6.8675,6.9244,6.8513,6.8398,6.8398,6.8398,6.8282,6.8167,6.8167,6.8052,6.7705,6.6974,6.759,6.7628,6.6782,6.6218,6.5859,6.5712,6.4479,6.3792,6.3847,6.3886,6.3885,6.3912,6.3852,6.3802,6.3802,6.3777,6.386,6.3977,6.3117,6.281,6.2969,6.2695,6.2539,6.2461,6.1601,6.1367,6.1445,6.1328,6.1367,6.1445,6.1328,6.1289,6.1172,0.0,0.0,0.0,0.0,0.0,0.0,0.0,0.0,0.0,0.0,3.5493,3.5532,0.0,3.5661,3.5699,3.5815,3.5738,3.5661,3.5661,0.0,0.0,3.7969,3.9099,3.9623,3.94,4.0546,4.0654,3.9682,4.0708,4.1902,0.0,0.0,0.0,4.3359,4.3359,4.2578,4.1211,4.1211,4.1211,4.1211,4.1211,4.1211,4.1211,4.1211,0.0,0.0,0.0,4.1211,4.1211,4.1211,4.1172,0.0,0.0,0.0,4.1443,4.1091,4.2774,4.4778,4.4762,0.0,5.1254,0.0,5.4857,5.6319,0.0,0.0,6.2204,0.0,6.6756,6.7511,6.8164,6.8448,6.8552,6.8436,6.8398,6.8398,6.8398,6.7744,6.7282,6.7282,6.6667,6.6205,6.6051,6.6282,6.6051,6.518,6.518,6.4916,6.4139,6.392,6.386,6.4064,6.3361,6.3013,6.3136,6.2317,6.1891,6.1852,6.1771,6.2094,6.2795,6.1928,6.2077,6.293,6.1406,6.0742,6.0664,5.9883,5.9922,6.0508,5.9805,5.9961,6.0508,5.9805,5.9531,5.9531,0.0,0.0,0.0,0.0,0.0,0.0,0.0,0.0,0.0,0.0,0.0,3.5493,3.5493,3.5493,3.5493,3.5493,3.5493,3.5493,3.5493,3.6301,3.6993,3.7377,3.83,3.8593,3.8139,3.9054,3.94,3.9092,4.0024,0.0,0.0,4.5145,4.4648,0.0,0.0,4.3672,4.125,4.2187,4.207,4.1211,4.1211,4.1211,0.0,0.0,0.0,0.0,0.0,0.0,0.0,0.0,4.1211,4.1211,4.1211,0.0,0.0,0.0,4.1849,4.3187,4.5453,4.7388,4.9719,0.0,5.3895,5.4472,5.9511,6.0012,6.0358,6.3743,6.4705,6.5397,6.6744,6.7359,6.7513,6.7051,6.7013,6.7013,6.7013,6.6667,6.6244,6.5743,6.5397,6.5013,6.4666,6.4666,6.4579,6.425,6.3962,6.3661,6.3245,6.2852,6.2648,6.2764,6.2371,6.2171,6.2136,6.1728,6.1458,6.1381,6.1311,6.1503,6.1852,6.1465,6.1575,6.1999,6.1251,6.0633,6.0132,5.9781,5.9586,5.943,5.9078,5.9472,6.0195,5.9336,5.9375,5.9724,0.0,0.0,0.0,0.0,0.0,0.0,0.0,0.0,0.0,0.0,0.0,3.5493,3.5493,0.0,0.0,0.0,3.5493,3.5507,3.5545,3.6185,3.6689,3.6897,3.7613,3.7717,3.7095,3.7977,3.8384,3.8268,0.0,0.0,4.5312,4.5976,4.5625,0.0,4.5703,4.4883,0.0,0.0,0.0,0.0,0.0,0.0,0.0,0.0,0.0,0.0,0.0,0.0,0.0,0.0,0.0,4.1211,4.1211,4.1211,0.0,0.0,0.0,4.1873,0.0,0.0,4.7704,5.2278,5.2281,5.2392,0.0,0.0,5.8335,6.1464,6.2488,6.3218,6.4782,6.5628,6.5936,6.532,6.5243,6.5243,6.5243,6.5243,6.5013,6.4436,6.4359,6.4166,6.3705,6.368,6.3676,6.3541,6.3106,6.2762,6.253,6.1992,6.1713,6.1699,6.169,6.1612,6.1497,6.142,6.1304,6.1189,6.1189,6.1189,6.1189,6.1189,6.1059,6.0847,6.0692,6.0162,5.9322,5.9127,5.8778,5.835,5.8156,5.8647,5.9407,5.8769,5.8853,5.9187,0.0,0.0,0.0,0.0,0.0,0.0,0.0,0.0,0.0,0.0,0.0,3.5493,3.5493,3.5493,3.5493,3.5493,3.5493,3.5545,3.5584,3.5661,3.6045,3.6954,3.7174,0.0,3.7095,3.8071,3.8202,0.0,0.0,0.0,4.2656,4.5156,4.625,4.6172,4.625,4.6211,4.5937,0.0,0.0,0.0,0.0,0.0,0.0,0.0,0.0,0.0,0.0,0.0,0.0,0.0,0.0,0.0,0.0,0.0,4.1211,0.0,0.0,0.0,0.0,4.4921,0.0,4.91,4.9319,4.958,0.0,0.0,5.5813,5.8434,6.0224,6.1618,6.2526,6.3103,6.3474,6.3435,6.3435,6.3435,6.3435,6.3435,6.3512,6.3603,6.3641,6.3705,6.3782,6.3949,6.3732,6.2886,6.2951,6.2615,6.1794,6.1718,6.1719,6.1709,6.1582,6.1497,6.1497,6.1189,6.0935,6.0819,6.0819,6.0819,6.0819,6.0819,6.0381,5.9557,5.9056,5.8325,5.7495,5.6729,5.6827,5.7366,5.6613,5.6847,5.7564,5.7483,5.704,5.6524,0.0,0.0,0.0,0.0,0.0,0.0,0.0,0.0,0.0,0.0,0.0,0.0,0.0,3.5584,3.5584,3.5622,3.5622,3.5661,3.5661,3.5738,3.5958,3.6273,3.6377,3.6411,3.6395,3.6747,3.7031,0.0,0.0,3.9648,4.2422,4.3359,4.4687,4.6406,4.8594,4.7734,4.4726,4.6367,0.0,0.0,0.0,0.0,0.0,0.0,0.0,0.0,0.0,0.0,0.0,0.0,0.0,0.0,0.0,0.0,0.0,0.0,0.0,0.0,0.0,0.0,0.0,4.74,4.715,4.7133,5.1024,5.2601,5.3649,5.5072,5.7605,5.9343,5.8551,6.0787,6.2796,6.2796,6.2796,6.2603,6.2041,6.1964,6.1964,6.2041,6.2065,6.191,6.1535,6.1565,6.1272,6.0536,5.9511,5.9258,6.0039,5.9023,5.8942,6.0046,5.9926,5.9771,5.9573,5.938,5.9242,5.9204,5.9204,5.9204,5.9204,5.9204,5.8704,5.7857,5.7665,5.7434,5.7126,5.6819,5.6571,5.6263,5.5994,5.6456,5.7191,5.6636,5.6652,5.694,0.0,0.0,0.0,0.0,0.0,3.5493,3.5493,3.5545,3.5545,3.5545,0.0,0.0,0.0,0.0,3.5631,3.5709,3.5709,3.5712,3.5751,3.5853,3.5919,3.5921,3.5985,3.6016,3.6016,3.6289,3.6562,0.0,0.0,0.0,0.0,4.1601,4.2884,4.4636,4.7494,4.752,0.0,0.0,0.0,4.3945,0.0,0.0,4.2969,0.0,0.0,0.0,0.0,0.0,0.0,0.0,0.0,0.0,0.0,0.0,0.0,0.0,0.0,0.0,4.0728,0.0,0.0,0.0,4.4609,4.4801,4.7852,5.0147,5.1759,5.2271,5.5395,5.7714,5.6858,5.9016,6.1021,6.1214,6.1214,6.1021,6.0421,6.0344,6.0398,6.0426,6.0442,6.0289,5.9894,5.9856,5.9666,5.9217,5.8125,5.7969,5.914,5.8086,5.7952,5.8987,5.8896,5.8693,5.8457,5.8319,5.8319,5.8319,5.8319,5.8319,5.8319,5.8319,5.7819,5.6973,5.6973,5.6819,5.6549,5.6549,5.6203,5.5703,5.5703,5.6109,5.6609,5.6071,5.6263,5.6746,0.0,0.0,3.5493,3.5493,3.5493,3.5493,3.5507,3.5584,3.5584,3.5597,0.0,0.0,0.0,0.0,0.0,3.5691,3.5691,3.5763,3.5868,3.5894,3.5921,3.6015,3.6016,3.6016,3.6016,3.6836,3.6836,0.0,0.0,0.0,0.0,0.0,4.1033,4.1015,4.2742,4.5451,4.8671,0.0,4.8789,4.8515,0.0,4.6367,4.5976,0.0,0.0,0.0,4.5664,4.5195,0.0,4.5742,0.0,0.0,0.0,0.0,0.0,0.0,0.0,0.0,0.0,0.0,0.0,0.0,4.164,4.2578,4.3437,4.6953,5.0078,5.0117,5.352,5.6753,5.7609,5.7854,5.8048,5.8554,5.8671,5.8671,5.8632,5.8632,5.8697,5.8847,5.8858,5.8961,5.9137,5.914,5.914,5.914,5.9062,5.9062,5.9101,5.9101,5.8957,5.8615,5.8621,5.8501,5.8242,5.8242,5.8242,5.8242,5.8242,5.8242,5.8242,5.8242,5.7742,5.6934,5.6934,5.6472,5.5703,5.5703,5.5703,5.5703,5.5703,5.5703,5.5703,5.5703,5.5703,5.5703,0.0,3.5493,3.5545,3.5584,3.5584,3.5584,3.5661,3.5661,3.5675,0.0,0.0,0.0,0.0,0.0,3.5927,3.5927,3.5927,3.5921,3.5974,3.5974,3.5994,3.6015,3.6016,3.6016,3.6016,3.625,3.625,3.6016,0.0,0.0,0.0,0.0,0.0,0.0,4.0873,4.2202,4.3326,4.6419,0.0,4.3485,4.8705,4.7422,0.0,0.0,0.0,0.0,0.0,4.5976,4.5664,0.0,4.5138,4.3358,0.0,0.0,0.0,0.0,0.0,0.0,3.7344,0.0,0.0,0.0,0.0,0.0,4.1678,4.4609,4.7422,4.8164,5.1244,5.4041,5.4903,5.6113,5.7012,5.7168,5.7714,5.791,5.7285,5.7168,5.743,5.8097,5.8169,5.8202,5.8241,5.8242,5.8008,5.7383,5.6133,5.5977,5.7256,5.7226,5.7008,5.6675,5.6655,5.6571,5.6434,5.6434,5.6434,5.6434,5.6434,5.6434,5.6434,5.6434,5.628,5.6049,5.6049,5.5934,5.5703,5.5703,5.5703,5.5703,5.5703,5.5703,5.5703,5.5703,5.5703,5.5703,3.5584,3.5584,3.5622,3.5622,3.5623,3.5637,3.5676,3.5753,3.5779,0.0,0.0,0.0,0.0,0.0,0.0,3.6016,3.6016,3.6016,3.6016,3.6016,3.6016,3.6016,3.6016,3.6005,3.5961,3.6312,3.6299,3.5874,0.0,0.0,0.0,0.0,0.0,0.0,3.8247,3.8863,0.0,0.0,0.0,0.0,4.814,0.0,0.0,4.8516,4.8086,0.0,0.0,0.0,4.7969,4.832,4.6768,0.0,0.0,0.0,0.0,0.0,0.0,0.0,0.0,0.0,0.0,0.0,0.0,0.0,4.0454,4.3414,4.6401,4.7313,5.0525,5.3065,5.2823,5.392,5.4853,5.4845,5.5548,5.6227,5.6562,5.6601,5.6797,5.7305,5.7294,5.7273,5.7273,5.7232,5.6996,5.6484,5.5509,5.5342,5.6372,5.6348,5.6186,5.5895,5.5895,5.5818,5.5703,5.5703,5.5703,5.5703,5.5703,5.5703,5.5703,5.5703,5.5703,5.5703,5.5703,5.5703,5.5703,5.5703,5.5703,5.5703,5.5703,5.5703,5.5703,5.5703,5.5703,5.5703,0.0,3.5714,3.5701,3.5713,3.5707,3.5709,3.5749,3.5825,3.5893,0.0,3.5977,0.0,0.0,0.0,0.0,0.0,3.5974,3.6009,3.6009,3.5973,3.5975,3.5975,3.5975,3.5953,3.5894,3.6625,3.6598,3.5694,0.0,0.0,0.0,0.0,0.0,0.0,3.5584,3.5968,3.6738,0.0,0.0,4.6551,4.6519,4.8147,0.0,0.0,4.9014,4.8819,5.0699,5.0778,5.0114,5.0856,4.8974,0.0,0.0,0.0,0.0,0.0,3.7546,0.0,0.0,0.0,0.0,0.0,3.8901,0.0,3.9561,4.2619,4.5699,4.6638,4.9932,5.2232,5.0918,5.1385,5.1989,5.1975,5.2663,5.3896,5.597,5.6443,5.6482,5.6287,5.6317,5.6365,5.6379,5.6265,5.6185,5.6185,5.6185,5.6185,5.6185,5.6152,5.6071,5.5857,5.5857,5.5818,5.5703,5.5703,5.5703,5.5703,5.5703,5.5703,5.5703,5.5703,5.5703,5.5703,5.5703,5.5703,5.5703,5.5703,5.5703,5.5703,5.5703,5.5703,5.5703,5.5643,5.5621,5.5621,3.5702,3.5702,3.5718,3.583,3.5881,3.5883,3.5921,3.5964,3.5994,3.5994,3.5972,0.0,0.0,0.0,0.0,0.0,3.5956,3.5936,3.5936,3.5811,3.5772,3.5772,3.5772,3.5743,3.5749,3.5917,3.5894,3.5688,0.0,0.0,0.0,0.0,0.0,0.0,3.5545,3.5622,3.5853,0.0,0.0,4.2261,4.7142,0.0,4.7274,5.0571,4.9637,4.7047,5.0072,5.0143,4.885,4.9005,4.8541,4.7255,0.0,0.0,0.0,3.8815,0.0,0.0,0.0,0.0,0.0,0.0,0.0,0.0,3.8642,3.9652,4.1202,4.2887,4.4394,4.595,4.7735,4.8754,4.9325,4.9343,4.9997,5.1401,5.3861,5.5389,5.5762,5.4351,5.5392,5.6257,5.6228,5.6192,5.6175,5.6175,5.6175,5.6136,5.5982,5.5959,5.5895,5.5742,5.5742,5.5742,5.5703,5.5703,5.5703,5.5703,5.5703,5.5703,5.5703,5.5703,5.5703,5.5703,5.5703,5.5703,5.5703,5.5703,5.5703,5.5703,5.5703,5.5703,5.5682,5.535,5.5212,5.516,3.5864,3.5864,3.5888,3.5931,3.5956,3.5972,3.5975,3.6016,3.6016,3.6016,3.6016,0.0,0.0,0.0,0.0,0.0,0.0,0.0,0.0,3.5747,3.5707,3.5707,3.5707,3.5669,3.5669,3.5637,3.5622,3.5622,0.0,0.0,0.0,0.0,0.0,0.0,0.0,0.0,0.0,0.0,3.8969,4.0931,4.5837,0.0,4.7434,5.0596,5.0477,4.8798,5.0503,5.054,4.9751,4.9272,4.8778,0.0,4.5796,4.3585,4.1546,0.0,3.9008,3.8084,0.0,0.0,0.0,3.8661,0.0,0.0,0.0,3.8608,3.9697,4.1316,4.2297,4.3132,4.394,4.4959,4.5645,4.5647,4.6837,4.8155,4.942,5.269,5.4909,5.4901,5.5575,5.6033,5.6053,5.5994,5.5955,5.5955,5.5955,5.5895,5.5818,5.578,5.578,5.5703,5.5703,5.5703,5.5703,5.5703,5.5703,5.5703,5.5703,5.5703,5.5703,5.5703,5.5703,5.5703,5.5703,5.5703,5.5703,5.5703,5.5577,5.5423,5.5621,5.5577,5.5375,5.5186,5.496,5.476,3.6016,3.6016,3.6016,3.6016,3.6016,3.6016,3.6016,3.6016,3.6016,3.6016,0.0,0.0,0.0,0.0,0.0,0.0,0.0,0.0,0.0,0.0,3.6007,3.5699,3.5661,3.5661,3.5584,3.5584,3.5545,3.5493,0.0,0.0,0.0,0.0,0.0,0.0,0.0,0.0,0.0,0.0,0.0,4.1316,0.0,4.6899,4.8062,5.0234,5.0835,5.0606,5.0914,5.1029,5.0875,4.9817,4.8933,4.82,4.7892,4.5141,0.0,0.0,0.0,0.0,0.0,0.0,0.0,0.0,0.0,3.846,0.0,0.0,0.0,3.9698,4.0551,4.091,4.0102,4.0891,4.1645,4.1645,4.3254,4.463,4.4901,4.9048,5.2647,5.4223,5.4395,5.4434,5.4626,5.4703,5.4934,5.5434,5.5472,5.5549,5.5703,5.5703,5.5703,5.5703,5.5703,5.5703,5.5703,5.5703,5.5703,5.5703,5.5703,5.5703,5.5703,5.5703,5.5703,5.5703,5.5703,5.5703,5.5703,5.5599,5.5399,5.5134,5.5446,5.535,5.496,5.4876,5.464,5.4355,3.6016,3.6016,3.6016,3.6016,3.6016,3.6016,3.6016,3.6016,3.6016,0.0,0.0,0.0,0.0,0.0,0.0,0.0,0.0,0.0,3.6881,0.0,0.0,3.5584,3.5545,3.5545,3.5507,3.5507,3.5507,3.5493,0.0,0.0,0.0,0.0,0.0,0.0,3.5493,0.0,0.0,0.0,4.12,0.0,4.6471,4.7124,0.0,4.9699,4.9969,4.8816,5.0221,5.0741,5.0471,0.0,4.824,4.7855,0.0,4.4547,4.2931,4.2931,0.0,0.0,0.0,0.0,0.0,0.0,4.0266,0.0,0.0,0.0,3.6944,3.5694,0.0,3.6583,3.6491,0.0,0.0,3.7823,3.9451,4.1169,4.2405,4.4862,4.6873,4.7855,4.8586,4.9279,5.0048,5.0818,5.2202,5.4472,5.4626,5.4934,5.5665,5.5703,5.5703,5.5703,5.5703,5.5703,5.5703,5.5703,5.5703,5.5703,5.5703,5.5703,5.5703,5.5703,5.5703,5.5703,5.5703,5.5703,5.5682,5.5326,5.5134,5.5107,5.516,5.4905,5.4516,5.4118,5.3905,5.3721,3.6016,3.6016,3.6016,3.6016,3.6016,3.6016,3.6016,3.6445,3.6552,0.0,0.0,0.0,0.0,0.0,0.0,0.0,0.0,3.9415,0.0,0.0,0.0,3.6969,3.6007,3.5412,3.5254,3.5254,3.519,3.5034,3.5034,0.0,0.0,0.0,0.0,0.0,3.5254,0.0,3.8815,0.0,4.1777,0.0,0.0,4.6278,0.0,4.9471,5.0337,4.9644,4.9317,4.9817,5.0279,0.0,4.7971,0.0,0.0,0.0,0.0,4.4547,0.0,0.0,0.0,0.0,0.0,0.0,0.0,0.0,3.9414,0.0,3.6657,0.0,0.0,0.0,0.0,0.0,0.0,0.0,3.7457,3.8626,3.9239,4.0114,4.2293,4.6565,4.7701,4.8625,5.001,4.945,4.989,5.2125,5.2598,5.296,5.3472,5.4895,5.5703,5.5703,5.5703,5.5703,5.5703,5.5703,5.5703,5.5703,5.5703,5.5703,5.5703,5.5703,5.5703,5.5703,5.5703,5.5308,5.4647,5.446,5.3822,5.295,5.295,5.3424,5.4083,5.3869,5.3644,5.3367,3.6016,3.6016,3.6016,3.6016,3.6016,3.6016,3.6016,3.6894,0.0,0.0,0.0,0.0,3.8888,3.8273,0.0,0.0,4.1091,4.1008,0.0,0.0,3.87,0.0,0.0,0.0,0.0,3.5353,3.4963,3.4713,3.4713,0.0,0.0,0.0,0.0,0.0,0.0,3.6485,3.8946,0.0,4.2547,4.4778,4.6355,4.7009,4.7201,4.9202,5.0279,5.051,4.9279,4.9625,5.024,4.7278,4.7932,0.0,4.7048,4.597,4.5701,0.0,0.0,0.0,4.3666,0.0,0.0,0.0,0.0,0.0,0.0,0.0,0.0,0.0,0.0,0.0,0.0,0.0,0.0,0.0,0.0,3.6964,3.6648,3.6933,3.918,4.4499,4.6107,4.72,4.8255,4.7433,4.7586,4.9373,5.032,5.1009,5.1528,5.3972,5.5357,5.5357,5.5588,5.5703,5.5703,5.5703,5.5588,5.5357,5.5357,5.5241,5.5011,5.5011,5.4929,5.4863,5.4863,5.4279,5.3362,5.3252,5.2642,5.1709,5.1639,5.2419,5.3606,5.3383,5.3259,5.3151,3.6016,3.6016,0.0,0.0,3.6016,3.6016,3.6016,0.0,0.0,0.0,0.0,0.0,0.0,0.0,0.0,0.0,0.0,4.2189,4.3069,0.0,4.0431,0.0,0.0,3.6151,0.0,3.5925,3.4963,3.4713,3.4713,0.0,0.0,0.0,0.0,0.0,0.0,3.6056,3.7885,4.1502,4.4008,4.5855,4.9202,5.0548,5.0356,0.0,4.924,5.0702,5.0625,0.0,0.0,4.8625,4.8086,0.0,0.0,0.0,0.0,0.0,0.0,0.0,0.0,0.0,0.0,4.2595,0.0,0.0,0.0,0.0,3.8175,0.0,0.0,0.0,0.0,0.0,0.0,0.0,0.0,0.0,0.0,3.6296,3.7872,3.9724,4.2019,4.3152,4.2446,4.3781,4.5217,4.6457,4.8067,4.9516,5.0702,5.3164,5.4549,5.4549,5.528,5.5703,5.5703,5.5703,5.5318,5.4549,5.4549,5.4087,5.328,5.328,5.3053,5.2717,5.2717,5.246,5.2024,5.1649,5.1929,5.2493,5.2146,5.2495,5.3115,5.2348,5.2527,5.3004,3.6211,0.0,0.0,0.0,0.0,0.0,0.0,3.6922,0.0,0.0,0.0,0.0,0.0,4.4993,4.4812,0.0,0.0,4.5414,4.4008,4.2854,0.0,0.0,0.0,3.8367,0.0,3.6785,3.5706,3.4105,3.4105,0.0,0.0,0.0,0.0,0.0,0.0,3.5985,0.0,0.0,0.0,0.0,0.0,4.8971,4.9048,0.0,5.0202,5.0702,5.0702,5.0702,0.0,4.8702,4.8856,4.9625,4.8471,4.7702,4.7586,4.9317,4.7969,4.6304,0.0,0.0,4.9173,4.7697,0.0,0.0,0.0,0.0,0.0,0.0,0.0,0.0,0.0,0.0,0.0,0.0,0.0,0.0,0.0,3.542,3.5973,3.653,3.8425,3.9952,4.048,4.0303,4.0666,4.1889,4.3302,0.0,4.5033,4.9258,5.1644,5.1644,5.3793,5.4626,5.4049,5.4626,5.4472,5.3626,5.3626,5.351,5.3203,5.3203,5.2976,5.2577,5.2577,5.1916,5.0787,5.0658,5.0302,4.975,4.9595,5.0068,5.0912,5.1683,5.216,5.2234,3.6328,3.6016,0.0,0.0,0.0,0.0,0.0,0.0,0.0,0.0,4.3166,0.0,4.7936,0.0,4.7328,0.0,4.6971,4.6432,4.5701,4.347,0.0,4.3932,4.147,0.0,0.0,3.786,3.6723,3.5742,3.4439,3.41,0.0,0.0,0.0,0.0,0.0,3.5152,3.7624,4.1169,4.379,0.0,0.0,4.8471,0.0,0.0,5.0164,5.0702,0.0,5.0702,5.051,4.9394,4.9779,5.051,4.9394,4.9009,4.924,5.0356,4.9603,4.869,5.0121,5.1098,0.0,5.0056,4.8699,0.0,4.5147,0.0,4.1662,0.0,0.0,0.0,0.0,0.0,0.0,0.0,0.0,0.0,0.0,3.4381,3.4287,3.4141,3.6507,3.8255,3.8465,3.8308,3.8335,3.8597,0.0,0.0,0.0,4.644,4.9238,4.9542,5.2169,5.3336,5.2777,5.3336,5.3269,5.2516,5.2516,5.2363,5.2094,5.2094,5.1811,5.1291,5.1291,5.0635,4.9525,4.9525,4.9196,4.8746,4.8746,4.926,5.0105,5.0875,5.1132,5.1059,3.6328,3.6015,0.0,0.0,3.6021,0.0,0.0,0.0,4.214,0.0,4.6012,4.6706,4.836,4.7047,4.6586,4.7971,4.5893,4.547,4.7778,4.3393,0.0,0.0,4.1777,4.0581,4.2641,0.0,0.0,0.0,3.5605,0.0,0.0,0.0,0.0,0.0,3.3252,0.0,3.5035,4.0365,4.2871,4.3547,4.6701,4.9009,5.0394,4.874,4.9163,5.0644,5.0702,5.0702,5.0702,5.0702,5.0702,5.0702,5.0702,5.0702,5.0702,5.0702,5.1279,5.1834,5.1481,5.2257,5.2548,4.9799,4.9381,0.0,0.0,0.0,4.57,0.0,0.0,0.0,0.0,0.0,0.0,0.0,0.0,0.0,0.0,0.0,3.3014,3.2533,3.6001,3.7814,3.6311,3.7588,3.7956,0.0,0.0,0.0,0.0,4.4612,4.7284,4.8277,5.0534,5.1752,5.1903,5.1857,5.1651,5.1242,5.1242,5.086,5.0135,5.0111,4.9673,4.8911,4.8945,4.8709,4.8306,4.8344,4.8822,4.9517,4.9444,4.9958,5.0582,4.9848,4.9554,4.9517,3.6328,3.5967,3.595,0.0,3.6934,3.7868,0.0,0.0,0.0,0.0,4.8128,5.0394,5.1894,5.2262,5.1222,4.8355,4.7509,0.0,0.0,0.0,0.0,4.6471,4.4893,4.3576,4.2717,4.1472,0.0,3.9197,0.0,0.0,3.5284,0.0,0.0,0.0,0.0,0.0,3.4997,3.9532,4.3194,4.5932,4.6163,4.724,4.8702,0.0,4.9007,5.0313,5.0604,5.0702,5.0702,5.0702,5.0702,5.0702,5.0702,5.0702,5.0702,5.0702,5.1279,5.1949,5.2207,5.2712,5.3112,5.2636,5.1045,4.9187,0.0,0.0,0.0,0.0,0.0,0.0,0.0,0.0,0.0,0.0,0.0,0.0,0.0,0.0,0.0,3.25,3.3732,3.4431,3.4032,3.5177,3.556,0.0,0.0,0.0,3.9201,4.1698,4.427,4.6899,4.7515,4.8555,5.0107,5.0111,5.0199,5.0416,5.0416,5.0459,5.0525,5.023,4.9808,4.9356,4.9645,4.9234,4.8344,4.864,4.8716,4.8636,4.86,4.8746,4.9003,4.9444,4.9187,4.8636,3.63,3.5879,0.0,3.5765,0.0,0.0,4.0408,0.0,0.0,4.7713,4.9812,0.0,5.3223,5.38,5.3049,5.0548,4.8279,0.0,4.6547,0.0,0.0,4.6778,4.5701,4.4341,4.2928,4.2519,0.0,3.9902,0.0,0.0,3.5532,0.0,0.0,0.0,0.0,3.3414,3.4808,3.9467,4.3504,4.6724,4.6492,4.7549,0.0,4.8394,4.8907,5.0135,5.0358,5.0336,5.0183,5.0183,5.0183,5.0206,5.038,5.0313,5.0206,5.038,5.0887,5.1446,5.149,5.2209,5.2885,5.2568,5.1851,5.0765,4.9187,4.904,4.8636,0.0,4.6874,4.7021,0.0,0.0,0.0,0.0,0.0,0.0,0.0,0.0,0.0,0.0,3.3068,3.3508,3.2669,3.3712,3.4284,3.3844,0.0,0.0,0.0,4.0184,4.2483,4.3595,4.5801,4.7023,4.7095,4.753,4.819,4.8982,4.8982,4.948,5.044,5.0206,4.9898,4.9504,4.9728,4.9445,4.8813,4.8881,4.8779,4.8495,4.7978,4.8012,4.8306,4.8453,4.8416,4.8306,3.6213,0.0,0.0,0.0,0.0,0.0,0.0,4.4245,0.0,5.0486,0.0,5.1951,5.3223,5.3261,5.3126,5.2895,0.0,4.6817,4.8933,4.4816,4.3662,4.6778,4.5355,4.4124,4.3431,4.312,4.2411,0.0,0.0,0.0,0.0,0.0,0.0,0.0,0.0,0.0,0.0,3.9801,4.3474,4.632,4.7105,4.8563,5.0064,4.8797,4.8952,4.9949,4.9949,4.9728,4.9504,4.9504,4.9504,4.9561,4.9924,4.9792,4.9561,4.9924,5.0285,5.0576,5.0322,5.1337,5.2196,5.1327,5.2087,5.2454,5.0178,5.0802,5.1353,4.9701,4.9481,4.9114,4.7572,0.0,0.0,0.0,0.0,0.0,0.0,0.0,0.0,0.0,0.0,0.0,3.1776,3.2901,3.3716,3.3716,3.4458,0.0,0.0,0.0,4.1144,4.0325,4.4512,4.6078,4.455,4.518,4.6316,4.7914,4.7419,4.8128,4.9816,4.9792,4.9632,4.941,4.941,4.939,4.9386,4.8931,4.8658,4.837,4.7353,4.7388,4.7902,4.7205,4.7388,4.8012,0.0,0.0,0.0,0.0,0.0,4.2247,4.5905,4.9467,5.1549,5.0856,5.3261,5.4549,5.3356,5.3203,5.2626,5.1241,4.9009,0.0,0.0,0.0,0.0,4.6855,4.5932,4.5316,4.5163,4.4592,4.4147,0.0,0.0,0.0,0.0,0.0,0.0,0.0,0.0,0.0,3.8413,3.9513,0.0,4.499,4.6501,4.7284,4.778,4.884,4.9181,4.9108,4.9108,4.9295,4.9504,4.9504,4.9504,4.9504,4.9561,4.9561,4.9504,4.9589,4.9674,4.9943,5.0844,5.1301,5.1714,5.2578,5.2491,5.1903,5.0839,5.0802,5.0545,4.8857,4.9077,4.926,4.8269,0.0,0.0,0.0,0.0,0.0,0.0,0.0,0.0,0.0,0.0,3.2545,3.0642,3.2163,3.3321,3.3321,3.4045,3.5248,3.6964,0.0,3.8877,0.0,4.2152,4.383,0.0,0.0,4.6278,4.9616,4.6809,4.6522,4.8433,4.8105,4.831,4.8909,4.8909,4.8947,4.894,4.8203,4.7336,4.6396,4.6177,4.6214,4.6287,4.6177,4.6214,4.6507,0.0,0.0,0.0,0.0,0.0,0.0,0.0,5.1064,0.0,5.1665,5.2838,5.351,5.2626,5.2549,5.2202,5.1395,4.9356,4.8317,4.8856,4.6817,4.6163,4.7471,4.6278,4.5109,4.402,4.4554,4.4058,4.2388,0.0,0.0,0.0,0.0,0.0,0.0,0.0,3.5275,0.0,0.0,0.0,4.4486,4.6997,4.813,4.8381,4.9173,4.9265,4.8878,4.8878,4.8915,4.8881,4.8881,4.8881,4.8915,4.9108,4.9043,4.899,4.9632,4.9683,4.9777,5.0787,5.1044,5.1117,5.1287,5.1683,5.1683,5.0435,5.0802,5.0949,4.9297,4.9297,4.8852,4.646,4.3899,0.0,0.0,0.0,0.0,0.0,0.0,3.3351,0.0,0.0,0.0,0.0,3.2617,3.2805,3.2083,3.3153,3.4134,3.4917,3.6597,3.839,0.0,0.0,0.0,4.5266,0.0,4.5494,4.7737,4.6089,4.6302,4.8086,4.7913,4.8187,4.8791,4.8357,4.8579,4.9127,4.8119,4.6972,4.5847,4.5443,4.5516,4.5847,4.5443,4.5553,4.5993,0.0,3.806,0.0,0.0,4.3448,0.0,4.7548,5.1356,5.3685,5.2512,5.2261,5.2202,5.2202,5.201,5.1779,5.1395,4.9702,4.8856,4.9317,4.7317,4.6471,4.7278,4.6147,4.4729,4.3094,4.422,4.3605,0.0,0.0,0.0,0.0,0.0,0.0,0.0,0.0,0.0,0.0,0.0,4.3623,4.4463,4.7144,4.8534,4.8971,4.8971,4.8894,4.8779,4.8779,4.8568,4.8306,4.8306,4.8306,4.8382,4.8639,4.8568,4.8493,4.9416,4.9529,4.9481,5.0325,5.0545,5.0435,4.9958,5.0655,5.1132,4.9884,5.0435,5.0839,4.9554,4.9072,4.7962,4.4726,4.3508,0.0,0.0,0.0,0.0,0.0,0.0,3.3543,0.0,0.0,0.0,3.2832,3.2176,3.1461,3.0571,3.1989,3.2922,3.312,3.6009,3.7755,3.7977,4.0879,4.2621,4.3031,0.0,4.4402,4.6013,4.5283,4.584,4.7586,4.7492,4.7851,4.8486,4.768,4.7878,4.8671,4.7499,4.6385,4.5333,4.4709,4.4819,4.5333,4.4892,4.5002,4.5406,0.0,0.0,0.0,0.0,0.0,0.0,5.0087,5.1395,5.2395,5.301,5.3087,5.3087,5.3087,5.2395,5.1279,4.9779,5.0125,4.8856,4.5124,4.6778,4.6894,4.4739,4.4977,4.5061,4.4848,4.438,4.3946,0.0,0.0,3.7691,0.0,0.0,0.0,0.0,0.0,0.0,0.0,4.1919,4.3275,4.4743,4.5772,4.6654,4.7316,4.7316,4.7758,4.8382,4.8382,4.8344,4.8306,4.8306,4.8306,4.8306,4.8344,4.8344,4.8306,4.8418,4.8454,4.86,4.9481,4.9701,4.9848,5.0508,5.0251,4.9774,4.9627,4.9114,4.86,4.8453,4.7441,4.6282,4.5192,4.2399,3.9861,0.0,0.0,0.0,0.0,0.0,3.3948,3.2147,0.0,0.0,3.0577,2.885,2.8219,2.9101,3.0619,3.245,3.4669,3.4468,3.5393,3.7813,3.9063,4.1217,4.4399,4.2304,4.3301,4.7395,4.4281,4.3867,4.5817,4.5513,4.6205,4.7562,4.6853,4.6405,4.6175,4.5331,4.4487,4.3718,4.3644,4.3644,4.3791,4.4452,4.4305,4.3828,0.0,0.0,0.0,0.0,0.0,0.0,0.0,5.1818,5.2433,5.1779,5.2125,5.2433,5.2433,5.1664,5.0894,5.024,5.051,4.974,4.7509,4.7817,4.7432,4.5932,4.5378,4.4988,4.48,4.429,4.3912,0.0,0.0,0.0,0.0,0.0,0.0,0.0,0.0,3.9753,4.1222,4.2983,4.4121,4.4782,4.559,4.6104,4.6397,4.6397,4.6581,4.6874,4.6874,4.6874,4.6874,4.6874,4.7498,4.8306,4.8306,4.8306,4.8416,4.893,4.9077,4.926,5.0105,4.9958,4.9664,4.9994,4.9811,4.9591,4.9591,4.9334,4.893,4.8416,4.6819,4.5256,4.4538,4.3202,4.1552,3.9368,0.0,0.0,0.0,0.0,0.0,3.484,0.0,3.3482,3.3833,3.1323,3.0261,0.0,3.1115,3.1433,3.3117,3.454,3.6574,3.933,0.0,4.1215,4.5278,4.3341,4.3625,4.6091,4.5208,4.5051,4.5586,4.5457,4.5646,4.6062,4.6277,4.6067,4.5493,4.544,4.4966,4.4232,4.4232,4.3938,4.3534,4.3864,4.3791,4.3608,4.8395,0.0,4.84,0.0,5.1202,5.1818,5.0856,5.2125,5.2395,5.0202,5.0894,5.1548,5.1548,5.1048,5.0471,4.9971,5.0164,4.9625,4.8009,4.7817,4.7278,4.6201,4.5371,0.0,4.4624,4.4125,4.3758,4.3497,4.0414,0.0,0.0,0.0,0.0,0.0,4.023,4.1258,4.1919,4.3608,4.4342,4.4415,4.4966,4.5333,4.5553,4.5553,4.57,4.5883,4.5883,4.5883,4.5883,4.5883,4.6654,4.7645,4.7865,4.8122,4.8416,4.904,4.9224,4.9334,4.9921,4.9664,4.9224,4.9224,4.9224,4.9224,4.9224,4.9003,4.8563,4.7462,4.587,4.4462,4.3668,4.3207,4.2246,3.9988,0.0,0.0,0.0,3.595,0.0,3.5946,3.4673,3.4189,3.5349,3.3034,3.192,0.0,0.0,3.1524,3.2306,3.4381,3.6666,0.0,0.0,0.0,4.4513,4.3412,4.3718,4.5459,4.6298,4.6564,4.6317,4.6205,4.6042,4.5874,4.6001,4.5802,4.5375,4.5254,4.4856,4.4342,4.4342,4.4011,4.3534,4.3754,4.3611,4.3359,5.1009,5.2164,5.3433,5.4451,5.5203,5.4511,5.1202,5.2125,5.1972,4.8586,4.9625,5.0702,5.0702,5.0702,5.001,4.8279,4.8933,4.7971,4.4586,4.597,4.6124,0.0,0.0,4.4624,4.4599,4.3886,4.3497,4.3497,0.0,0.0,3.9863,0.0,4.0267,4.1148,4.2727,4.3461,4.3461,4.3497,4.3497,4.3497,4.3534,4.4011,4.4709,4.4709,4.5223,4.5883,4.5883,4.5883,4.5883,4.5883,4.592,4.6067,4.6874,4.7682,4.8306,4.8306,4.8306,4.8343,4.8343,4.8343,4.8306,4.8306,4.8306,4.8306,4.8306,4.7719,4.6691,4.5076,4.4307,4.3671,4.2874,4.1725,4.0761,4.0269,0.0,0.0,0.0,3.6038,0.0,3.4145,3.3491,3.3111,3.3147,3.248,0.0,0.0,0.0,3.3225,3.3196,0.0,0.0,3.6303,3.634,0.0,4.1605,4.1698,4.3276,4.632,4.7159,4.7771,4.8068,4.7668,4.7564,4.7607,4.5935,4.5453,4.5773,4.4158,4.3497,4.3497,4.3497,4.3497,4.3608,4.4378,4.3871,4.2802,5.0202,5.2761,5.4741,5.3857,5.4357,5.4511,5.3433,5.2741,5.1933,5.0818,5.0702,5.0702,5.0702,5.0702,5.0471,0.0,4.8548,4.7471,0.0,4.5778,4.5053,4.4842,4.3596,4.2787,4.2548,4.21,4.1882,4.1882,0.0,0.0,0.0,4.0744,4.1442,4.2763,4.3277,4.3497,4.3497,4.3497,4.3497,4.3497,4.3497,4.3644,4.3864,4.3864,4.4048,4.4268,4.4268,4.4268,4.4268,4.4268,4.4635,4.5223,4.603,4.6838,4.7609,4.8159,4.8306,4.8306,4.8306,4.8306,4.8306,4.8306,4.7902,4.7645,4.8196,4.7241,4.5993,4.4929,4.4125,4.3433,4.2842,4.2382,4.1604,3.9921,3.9844,0.0,3.7582,0.0,3.582,3.4483,3.3805,3.3659,3.426,3.3683,0.0,0.0,0.0,0.0,0.0,0.0,0.0,0.0,4.1089,0.0,4.6121,4.5084,4.547,4.7198,4.8014,4.8324,4.8125,4.7952,4.7777,4.7515,4.6742,4.6382,4.6194,4.5438,4.4819,4.4305,4.4305,4.3975,4.3499,4.3397,4.3099,4.2763,5.1587,5.3587,5.5011,5.3895,5.4126,5.4087,5.2779,5.2202,5.1587,5.0625,5.0625,5.0702,5.0702,5.0702,0.0,5.0702,4.8933,4.7894,4.8086,4.6186,4.5073,4.5077,4.3617,4.2725,4.2499,4.2184,0.0,4.1992,4.1992,4.1992,4.1992,4.1992,4.2543,4.3497,4.3497,4.3497,4.3497,4.3497,4.3497,4.3497,4.3497,4.3497,4.3497,4.3497,4.3497,4.3497,4.3497,4.3497,4.3497,4.3497,4.3828,4.4378,4.5186,4.581,4.6434,4.7535,4.7865,4.7865,4.7865,4.8086,4.8306,4.8306,4.7939,4.7535,4.7425,4.6617,4.5553,4.42,4.3761,4.3432,4.2853,4.2608,4.2079,4.0919,4.0443,3.9743,3.8511,0.0,3.5732,3.5125,3.4471,3.4442,0.0,3.5818,3.6033,0.0,0.0,0.0,0.0,0.0,3.9933,4.264,4.2855,4.4421,4.7555,4.6922,4.7143,4.829,4.9111,4.935,4.9086,4.874,4.8443,4.8213,4.7046,4.6398,4.616,4.5329,4.4709,4.4268,4.4268,4.3832,4.3178,4.2808,4.2422,4.205,5.4297,5.4511,5.4511,0.0,5.4357,5.3356,5.0164,5.0894,5.101,4.8663,4.974,5.0702,5.0702,5.0702,5.0664,5.0625,0.0,0.0,4.8163,4.6814,4.5764,4.5094,4.4288,4.3818,4.3788,4.348,4.3387,4.3497,4.3497,4.3497,4.3497,4.3497,4.3461,4.3424,4.3424,4.3424,4.3424,4.3424,4.3424,4.3497,4.3497,4.3497,4.3497,4.3497,4.3497,4.3497,4.3497,4.3497,4.3497,4.3497,4.3497,4.3644,4.4452,4.4672,4.4929,4.6544,4.7021,4.7021,4.7021,4.7609,4.8233,4.8233,4.8269,4.7865,4.6214,4.5847,4.526,4.3134,4.3268,4.3571,4.2943,4.2509,4.231,4.2722,4.0733,3.9234,3.9468,3.6737,3.4966,3.5638,0.0,0.0,3.6362,3.8579,3.9056,0.0,0.0,0.0,0.0,0.0,3.9764,4.1033,4.253,4.4421,4.6691,4.7494,4.8426,4.951,5.0317,5.0702,5.0664,4.976,4.9366,4.9277,4.6873,4.5835,4.57,4.4195,4.3534,4.3497,4.3463,4.3142,4.2693,4.2616,4.1853,4.0886,0.0,0.0,5.478,5.2856,5.3087,5.3241,5.2433,5.1548,5.0971,5.101,5.0818,5.0702,5.0702,5.0702,5.0433,4.9779,4.774,4.6971,4.8048,4.5168,4.3786,4.4651,4.309,4.2054,4.1788,4.1695,4.2286,4.3497,4.3497,4.3497,4.3497,4.3497,4.3167,4.258,4.258,4.258,4.258,4.258,4.2947,4.3497,4.3497,4.3497,4.3497,4.3497,4.3497,4.3497,4.3497,4.3497,4.3497,4.3497,4.3497,4.3644,4.4452,4.4268,4.4085,4.57,4.6177,4.6177,4.6177,4.6764,4.7388,4.7388,4.7865,4.7719,4.548,4.5443,4.526,4.3134,4.3268,4.3483,4.2474,4.2632,4.2645,4.1747,4.107,3.9731,3.6956,3.6766,3.6098,0.0,3.59,3.7419,3.7653,3.9557,4.0598,0.0,0.0,4.1181,4.2709,4.341,4.4711,4.6858,4.7276,4.819,4.9662,4.9892,5.0124,5.0394,5.0587,5.0702,5.0664,4.9537,4.8857,4.8485,4.699,4.5807,4.4966,4.4562,4.4048,4.3463,4.3069,4.2808,4.2577,4.1682,4.1115,4.0874,5.3126,5.4164,5.4587,5.2818,5.2549,5.2472,5.2125,5.1279,5.0856,5.1279,5.0971,5.0702,5.0702,5.0702,5.0356,4.9471,4.8125,4.7318,4.7279,4.5224,4.4096,4.4346,4.3118,4.24,4.2213,4.2213,4.2616,4.3497,4.3497,4.3497,4.3497,4.313,4.2727,4.2286,4.1919,4.1956,4.2286,4.2286,4.2763,4.3497,4.3497,4.3497,4.3461,4.3094,4.2947,4.2947,4.2947,4.2947,4.302,4.3387,4.3497,4.3571,4.4011,4.3864,4.3644,4.4525,4.5333,4.5883,4.5883,4.6764,4.7645,4.7645,4.7976,4.7865,4.6177,4.5918,4.5537,4.3709,4.3728,4.3722,4.2875,4.274,4.2535,4.1798,4.029,3.856,3.6683,3.6215,3.5898,3.5403,3.7611,3.94,3.9969,4.2001,4.2837,4.1735,4.2323,0.0,4.4556,4.5956,4.7486,4.915,4.9377,5.0046,5.1241,5.0894,5.0702,5.0702,5.0504,5.044,5.0402,4.9542,4.8748,4.7958,4.6919,4.5819,4.4672,4.4305,4.3723,4.3105,4.2808,4.2342,4.181,4.1115,4.0733,4.0431,5.5357,5.478,5.4049,5.3164,5.2395,5.1625,5.0818,5.0702,5.0702,5.0702,5.0587,5.0548,5.0702,5.0471,5.001,4.9279,4.9086,4.826,4.65,4.5886,4.5143,4.4125,4.3693,4.3424,4.3314,4.3314,4.3314,4.3314,4.3424,4.3424,4.3277,4.2616,4.2176,4.1919,4.1222,4.1295,4.1956,4.1956,4.2396,4.313,4.313,4.313,4.3057,4.2396,4.2139,4.2139,4.2139,4.2139,4.2213,4.291,4.313,4.313,4.313,4.313,4.3167,4.3277,4.4378,4.5553,4.5553,4.6617,4.7829,4.8086,4.8049,4.7792,4.7241,4.6524,4.5666,4.4343,4.4222,4.4113,4.3512,4.2895,4.2441,4.2257,3.9423,3.7263,3.7378,0.0,3.5966,3.8075,3.9984,4.1575,4.2729,4.4709,4.5112,4.3167,4.4228,4.537,4.6307,4.7802,4.9105,5.0052,5.038,5.1086,5.2087,5.1279,5.0836,5.0758,5.0329,5.0087,4.9999,4.9476,4.8671,4.7648,4.6652,4.5608,4.4528,4.3722,4.3069,4.2577,4.2462,4.181,4.092,4.0651,4.0266,3.9682,5.3626,5.351,5.3126,5.2241,5.201,5.1625,5.0818,5.0702,5.0702,5.0702,5.0048,4.9894,5.0625,4.9394,4.8471,4.8317,4.7702,4.7145,4.6839,4.5551,4.4685,4.4519,4.3855,4.3167,4.2506,4.2506,4.2506,4.2506,4.3167,4.313,4.247,4.2359,4.1552,4.0267,4.012,4.0157,4.0267,4.0267,4.0744,4.1479,4.1479,4.1479,4.1479,4.1332,4.1295,4.1295,4.1295,4.1295,4.1332,4.1442,4.1479,4.1479,4.1479,4.1479,4.1625,4.2286,4.313,4.3864,4.3864,4.4562,4.559,4.6948,4.6801,4.6434,4.6985,4.6088,4.4982,4.4236,4.4222,4.4113,4.3512,4.3335,4.2988,4.2205,4.0431,3.8728,3.7478,0.0,3.9517,4.0021,4.2448,4.4381,4.5259,4.5663,4.603,4.6361,4.6271,4.6866,4.8343,4.9332,5.0544,5.2107,5.2487,5.2815,5.301,5.2164,5.154,5.12,5.0441,4.9924,4.9561,4.8459,4.7863,4.7611,4.5762,4.4638,4.3969,4.3134,4.2462,4.1895,4.1385,4.1105,4.0861,3.9664,3.8864,3.8209,5.3241,5.2818,5.2395,5.1972,5.1548,5.1125,5.0741,5.0702,5.0702,5.0702,4.9933,4.9548,4.9971,4.8856,4.7932,4.7509,4.7124,4.6701,4.624,4.535,4.48,4.4624,4.4065,4.3389,4.2612,4.2131,4.2131,4.2575,4.2754,4.2653,4.2286,4.1882,4.1038,3.9863,3.946,3.9496,3.99,3.99,4.0377,4.1111,4.1111,4.1111,4.1075,4.0634,4.0451,4.0451,4.0451,4.0451,4.0524,4.0965,4.1111,4.1111,4.1111,4.1111,4.1185,4.1552,4.2837,4.4232,4.4672,4.5076,4.5626,4.6838,4.6838,4.6764,4.7572,4.7001,4.6218,4.5925,4.5669,4.5341,4.5041,4.4331,4.3771,4.378,4.141,3.9588,3.9508,4.0346,4.1107,4.1462,4.4125,4.614,4.6507,4.6948,4.7168,4.7131,4.7525,4.8039,4.8558,4.9933,5.12,5.2203,5.2871,5.308,5.2886,5.1584,5.0923,5.0968,4.9939,4.9356,4.9171,4.8373,4.7792,4.7276,4.5663,4.4517,4.3812,4.2665,4.1853,4.1296,4.0978,4.046,3.9733,3.8745,3.799,3.7199,5.2761,5.2125,5.1625,5.1664,5.1125,5.0702,5.0702,5.051,5.0394,5.0394,4.9471,4.8894,4.9086,4.8163,4.7355,4.6932,4.6701,4.6317,4.5624,4.5381,4.5055,4.4751,4.4158,4.3445,4.2632,4.1977,4.1808,4.2225,4.2078,4.1919,4.1735,4.1111,4.0377,3.9606,3.9038,3.9135,3.9725,3.9815,4.0178,4.0769,4.0769,4.0708,4.0578,3.9946,3.97,3.9606,3.9606,3.9606,3.9717,4.0341,4.0561,4.0561,4.0561,4.0561,4.0598,4.0781,4.2396,4.4342,4.5112,4.5333,4.5626,4.6838,4.6838,4.6874,4.8049,4.7692,4.7168,4.7349,4.6864,4.6365,4.6365,4.5315,4.4511,4.4858,0.0,4.0692,4.1759,4.1978,4.2377,4.3316,4.5626,4.7205,4.7388,4.7939,4.8122,4.7719,4.8742,4.9202,4.8862,5.0685,5.1829,5.206,5.2905,5.3292,5.3175,5.1447,5.0637,5.0861,4.9529,4.8847,4.8744,4.8458,4.7789,4.6868,4.5642,4.4489,4.3411,4.2129,4.1101,4.0444,4.0268,3.9496,3.8348,3.7502,3.6744,3.5879,5.126,5.0991,5.0818,5.0952,5.0818,5.0702,5.0702,5.001,4.951,4.951,4.8086,4.7355,4.8125,4.674,4.6086,4.6817,4.6163,4.5663,4.5586,4.5568,4.5419,4.5094,4.3956,4.2951,4.2172,4.1809,4.1203,4.0468,4.0972,4.0818,4.0084,4.001,3.957,3.8799,3.8998,3.909,3.9192,3.9502,3.9661,3.9698,3.9698,3.9527,3.9239,3.9202,3.9016,3.8799,3.8799,3.8799,3.8799,3.8872,3.8872,3.8872,3.8872,3.8872,3.9019,3.9753,4.1185,4.2653,4.3461,4.3681,4.4232,4.6544,4.5993,4.548,4.7792,4.7252,4.6519,4.724,4.6864,4.6365,4.6365,4.574,4.4929,4.4043,0.0,0.0,4.3246,4.3353,4.4196,4.6507,4.6985,4.7388,4.8159,4.8269,4.86,4.9334,5.0202,5.0606,5.053,5.2117,5.2922,5.2551,5.3328,5.4142,5.4917,5.2873,5.1688,5.1332,4.9694,4.8674,4.8344,4.8306,4.7597,4.6318,4.5482,4.4071,4.2253,4.1325,4.0259,3.9088,3.8453,3.768,3.6795,3.5419,3.4503,3.383,5.1103,5.1029,5.0966,5.1009,5.0991,5.0914,5.0837,5.0067,4.949,4.9394,4.7932,4.7009,4.7317,4.6317,4.574,4.6047,4.5778,4.5586,4.5586,4.5586,4.5438,4.5137,4.434,4.3687,4.3149,4.2033,4.151,4.1638,4.114,4.0765,4.0456,4.0456,4.0045,3.9249,3.9339,3.9414,3.9414,3.9534,3.958,3.958,3.958,3.9389,3.908,3.908,3.8933,3.8689,3.8689,3.8689,3.8689,3.8689,3.8689,3.8689,3.8689,3.8689,3.8762,3.9056,4.0304,4.1735,4.2543,4.3497,4.4452,4.5406,4.592,4.6434,4.7352,4.7529,4.7591,4.7882,4.7756,4.7596,4.7596,4.6944,4.6481,4.6567,0.0,4.493,4.5627,4.5736,4.6067,4.7021,4.7572,4.7976,4.8269,4.8306,4.8673,4.9517,5.0077,5.0697,5.1473,5.1853,5.1839,5.1499,5.1503,5.214,5.3527,5.126,5.0403,5.1006,4.9344,4.8458,4.8306,4.7879,4.7197,4.6236,4.4645,4.3033,4.1348,3.9778,3.8489,3.7552,3.6901,3.6152,3.5371,3.4404,3.3583,3.276,5.0464,5.0348,5.0314,5.0352,5.0317,5.0262,5.0146,4.9409,4.8798,4.874,4.7471,4.6547,4.6547,4.597,4.5586,4.5586,4.5586,4.5586,4.5586,4.5586,4.5514,4.5263,4.4881,4.4477,4.398,4.2507,4.1836,4.2141,4.1003,4.0424,4.0424,4.0424,4.0123,3.958,3.9709,3.9754,3.9775,3.9861,3.9903,3.9903,3.9903,3.9626,3.9238,3.9238,3.9017,3.8689,3.8689,3.8689,3.8689,3.8689,3.8689,3.8689,3.8689,3.8689,3.8799,3.9313,4.0267,4.1332,4.2396,4.3681,4.4782,4.5002,4.592,4.6801,4.702,4.7719,4.8306,4.8306,4.8306,4.8306,4.8306,4.7865,4.7572,4.7865,4.7205,4.6764,4.7095,4.7352,4.7498,4.7498,4.7976,4.8306,4.8306,4.8306,4.8673,4.9517,4.9898,5.0572,5.1579,5.1309,5.0827,5.0221,5.0164,5.0596,5.1603,4.997,4.9566,5.0398,4.8967,4.8082,4.767,4.7234,4.632,4.4928,4.3582,4.185,3.9939,3.8605,3.7275,3.6097,3.5412,3.4683,3.3934,3.327,3.2488,3.1693,4.9062,4.8689,4.8546,4.8669,4.861,4.8506,4.8506,4.7781,4.7204,4.7203,4.6394,4.5796,4.5796,4.568,4.5586,4.5586,4.5586,4.5586,4.5586,4.5586,4.5586,4.5586,4.5586,4.5201,4.4316,4.3178,4.2161,4.1322,4.0154,3.958,3.958,3.958,3.958,3.9603,3.9962,4.0081,4.0139,4.0389,4.0508,4.0508,4.0508,4.0119,3.958,3.958,3.9261,3.8689,3.8689,3.8689,3.8689,3.8689,3.8689,3.8689,3.8689,3.8689,3.9019,4.0634,4.1111,4.1442,4.3057,4.4085,4.4892,4.57,4.5883,4.6104,4.6948,4.7719,4.8306,4.8306,4.8306,4.8306,4.8306,4.8306,4.8049,4.7241,4.7792,4.8012,4.7241,4.7792,4.8306,4.8306,4.8306,4.8306,4.8306,4.8306,4.8673,4.9517,4.9971,5.038,5.0786,5.0816,5.0221,4.8915,4.9732,4.997,4.9481,4.9554,4.9591,4.9591,4.871,4.7557,4.6313,4.6272,4.4777,4.2181,4.2181,4.0607,3.7992,3.7992,3.6685,3.4601,3.3952,3.3215,3.2492,3.1796,3.0955,3.0389,4.9844,4.9252,4.8777,4.8828,4.8822,4.873,4.8652,4.7884,4.7299,4.7233,4.6407,4.5867,4.5868,4.5796,4.5757,4.5757,4.5624,4.5586,4.5586,4.5586,4.5586,4.5586,4.5586,4.5201,4.4316,4.3401,4.2522,4.1639,4.0687,4.023,4.023,4.023,4.023,4.0248,4.0356,4.0372,4.0389,4.0492,4.0508,4.0508,4.0508,4.0266,3.9962,3.9962,3.9548,3.899,3.899,3.8855,3.8689,3.8689,3.8689,3.8689,3.8689,3.8689,3.8909,3.9937,4.0267,4.0598,4.2213,4.2837,4.3351,4.4709,4.592,4.6801,4.7058,4.7719,4.8306,4.8306,4.8306,4.8306,4.8306,4.8306,4.8233,4.7976,4.8159,4.8233,4.7976,4.8159,4.8306,4.8306,4.8306,4.8306,4.8306,4.8306,4.8673,4.9517,5.049,5.0708,5.0008,5.025,4.9806,4.8495,4.8716,4.8789,4.8673,4.8673,4.8967,4.9517,4.8122,4.7046,4.6272,4.5237,4.38,4.2098,4.0629,3.8938,3.703,3.5594,3.4265,3.3154,3.2466,3.2004,3.1796,3.1597,3.1336,3.1014,4.9258,4.8476,4.7851,4.7851,4.7851,4.7851,4.7773,4.7305,4.6949,4.685,4.6337,4.5967,4.5957,4.5877,4.5858,4.5851,4.5757,4.5663,4.5586,4.5586,4.5586,4.5586,4.5586,4.5201,4.4316,4.3508,4.2662,4.1816,4.0931,4.0508,4.0508,4.0508,4.0508,4.0508,4.0508,4.0508,4.0508,4.0508,4.0508,4.0508,4.0508,4.0339,4.012,4.012,3.9775,3.9289,3.9289,3.909,3.8855,3.8855,3.8773,3.8689,3.8689,3.8689,3.8872,3.9643,4.012,4.0671,4.1956,4.2543,4.3094,4.4378,4.5663,4.6654,4.6654,4.7498,4.8306,4.8306,4.8306,4.8306,4.8306,4.8049,4.7939,4.8269,4.8049,4.7939,4.8269,4.8306,4.8196,4.7865,4.8122,4.8196,4.7865,4.8122,4.8526,4.904,4.975,4.9714,4.8675,4.8827,4.8642,4.7865,4.7535,4.7682,4.8306,4.7682,4.7755,4.8526,4.7015,4.586,4.4964,4.3854,4.231,4.044,3.9187,3.7478,3.5497,3.4219,3.3079,3.2104,3.1682,3.1482,3.1482,3.1482,3.1102,3.0389,4.7891,4.6992,4.6406,4.6328,4.6289,4.6289,4.6289,4.6289,4.6289,4.6289,4.6172,4.6124,4.613,4.6013,4.5897,4.588,4.5813,4.5719,4.5586,4.5586,4.5586,4.5586,4.5509,4.5124,4.4316,4.3508,4.2624,4.17,4.0893,4.0508,4.0508,4.0508,4.0508,4.0508,4.0508,4.0508,4.0508,4.0508,4.0508,4.0508,4.0508,4.0356,4.0158,4.0158,3.9903,3.9626,3.9626,3.9414,3.9133,3.9133,3.8961,3.875,3.875,3.8719,3.8872,3.9753,4.0487,4.1222,4.2139,4.2873,4.3571,4.4378,4.5186,4.5847,4.5957,4.7131,4.8196,4.8196,4.8159,4.8086,4.8086,4.7498,4.7241,4.7976,4.7498,4.7278,4.7976,4.8159,4.7902,4.7095,4.7719,4.7902,4.7205,4.7829,4.8306,4.8306,4.8233,4.7865,4.7168,4.7058,4.7021,4.7021,4.6287,4.6617,4.8086,4.6507,4.6214,4.7057,4.5645,4.4253,4.2864,4.2277,4.0523,3.7887,3.7768,3.6174,3.3675,3.3557,3.271,3.1482,3.1482,3.1482,3.1394,3.1394,3.0389,2.9066,4.8789,4.793,4.7109,4.6406,4.6289,4.6289,4.6289,4.6289,4.6289,4.6289,4.6289,4.6249,4.6243,4.6131,4.6017,4.5919,4.5742,4.5624,4.5586,4.5586,4.5586,4.5586,4.4932,4.447,4.4316,4.3508,4.2354,4.0777,4.0585,4.0508,4.0508,4.0508,4.0508,4.0508,4.0508,4.0508,4.0508,4.0508,4.0508,4.0508,4.0508,4.0492,4.0406,4.0406,4.023,4.0002,4.0002,3.9775,3.9486,3.9486,3.9301,3.9008,3.9008,3.8855,3.8982,4.0414,4.0524,4.0598,4.269,4.291,4.2763,4.3571,4.4378,4.5296,4.6544,4.7131,4.7388,4.7388,4.6874,4.6434,4.6434,4.6287,4.6214,4.6397,4.6287,4.6214,4.6397,4.6985,4.7058,4.625,4.6874,4.7315,4.7094,4.7829,4.8306,4.8306,4.7719,4.7278,4.7131,4.6507,4.6177,4.6177,4.5993,4.6067,4.6434,4.5035,4.5253,4.7057,4.5101,4.3471,4.2137,4.0871,3.9157,3.698,3.5911,3.4736,3.3588,3.2418,3.1832,3.1482,3.1482,3.1102,3.0569,3.0569,2.9875,2.8693,4.9062,4.8203,4.7344,4.6445,4.6289,4.6289,4.6289,4.6289,4.6289,4.6289,4.6289,4.6289,4.6289,4.6234,4.6144,4.6021,4.5889,4.5796,4.5757,4.5757,4.5757,4.5757,4.5334,4.4872,4.4487,4.4085,4.297,4.1123,4.1123,4.0893,4.0508,4.0508,4.07,4.1085,4.07,4.0739,4.1085,4.0662,4.0508,4.0508,4.0508,4.0508,4.0508,4.0508,4.0406,4.0304,4.0304,4.0101,3.9819,3.9664,3.9462,3.9339,3.9339,3.9249,3.9286,3.9941,4.0104,4.0443,4.1948,4.2323,4.2506,4.3277,4.4085,4.4929,4.5773,4.625,4.6544,4.6544,4.6177,4.5883,4.5883,4.559,4.5443,4.5847,4.5883,4.5883,4.5883,4.6617,4.6691,4.548,4.603,4.6544,4.6544,4.7278,4.7755,4.7755,4.7352,4.6948,4.6544,4.5773,4.5516,4.5883,4.5149,4.5187,4.6093,4.4258,4.396,4.512,4.2959,4.1568,4.0871,3.9473,3.7708,3.5748,3.5003,3.3944,3.2593,3.1832,3.1482,3.1482,3.1102,3.0658,3.0179,2.9296,2.8136,2.6662,4.9297,4.8437,4.7539,4.668,4.6406,4.6289,4.6289,4.6289,4.6289,4.6289,4.6289,4.6289,4.6289,4.6289,4.6214,4.6098,4.6059,4.6028,4.5912,4.5912,4.5912,4.5912,4.578,4.5449,4.4924,4.4778,4.3843,4.2085,4.2047,4.1639,4.0793,4.0908,4.1293,4.1816,4.1085,4.1239,4.197,4.0931,4.0585,4.07,4.0546,4.0508,4.0508,4.0508,4.0508,4.0508,4.0508,4.0432,4.0349,4.0089,4.0056,4.0125,4.0125,4.0079,3.9986,3.9862,4.0307,4.0943,4.1446,4.2055,4.2754,4.3348,4.4011,4.4488,4.4488,4.5112,4.57,4.57,4.559,4.548,4.548,4.4929,4.4782,4.5553,4.57,4.5736,4.5883,4.6471,4.6361,4.4892,4.5296,4.57,4.57,4.6434,4.6911,4.6911,4.6801,4.6397,4.5736,4.4929,4.4819,4.548,4.4124,4.4126,4.5658,4.3508,4.2501,4.26,4.0617,3.9716,3.9767,3.8274,3.6527,3.4705,3.4407,3.3264,3.1482,3.1482,3.1424,3.1219,3.0569,2.9997,2.9386,2.7275,2.5497,2.3781,5.0195,4.9336,4.8437,4.7578,4.6797,4.6289,4.6289,4.6289,4.6289,4.6289,4.6289,4.6289,4.6289,4.6211,4.6132,4.6083,4.5981,4.5911,4.5911,4.5911,4.5911,4.5911,4.524,4.5123,4.5716,4.5065,4.4211,4.3162,4.3173,4.2726,4.1902,4.2649,4.2649,4.2056,4.187,4.2255,4.2887,4.1216,4.0931,4.1546,4.0777,4.0508,4.0508,4.0508,4.0508,4.0508,4.0508,4.0954,4.1574,4.1502,4.1819,4.2197,4.2197,4.1987,4.1868,4.2536,4.2812,4.2998,4.3469,4.3683,4.3701,4.3563,4.3571,4.3644,4.3644,4.4268,4.4856,4.4856,4.4305,4.3828,4.3828,4.3718,4.3938,4.4745,4.4856,4.5112,4.581,4.5993,4.5736,4.4819,4.4819,4.4856,4.4856,4.559,4.6067,4.6067,4.5443,4.5002,4.4892,4.4085,4.3718,4.3828,4.3178,4.2951,4.3162,4.1823,4.1185,4.1198,3.9698,3.932,3.9733,3.7807,3.6109,3.4616,3.3332,3.2287,3.1482,3.1482,3.1102,3.045,3.0329,2.8856,2.6511,2.3663,2.1924,2.0851,5.0351,4.9492,4.8633,4.7734,4.6875,4.6289,4.6289,4.6289,4.6289,4.6289,4.6289,4.6289,4.6289,4.625,4.6211,4.6211,4.6588,4.6647,4.6175,4.6569,4.6647,4.6136,4.5787,4.5763,4.6113,4.5788,4.5424,4.5001,4.4432,4.3668,4.2815,4.3214,4.3175,4.2815,4.2299,4.2537,4.3217,4.1876,4.1546,4.1886,4.1393,4.0931,4.0508,4.0508,4.0508,4.0508,4.0508,4.1046,4.1816,4.1816,4.2288,4.2869,4.2869,4.2795,4.2677,4.2851,4.2921,4.2981,4.324,4.3327,4.3348,4.3487,4.3497,4.3497,4.3497,4.3754,4.4011,4.4011,4.3754,4.3497,4.3497,4.3497,4.3754,4.4562,4.5076,4.5333,4.5259,4.5626,4.5443,4.4195,4.4011,4.4011,4.4011,4.4745,4.5223,4.5223,4.4892,4.4709,4.4709,4.3938,4.3576,4.3687,4.3061,4.2633,4.2396,4.1405,4.0733,4.0466,3.9387,3.8623,3.8077,3.6717,3.5136,3.3421,3.2795,3.1872,3.0837,3.0837,3.0658,3.0119,2.8666,2.6027,2.2834,2.1515,2.043,1.9552]},{"header":{"parameterUnit":"m.s-1","parameterCategory":1,"la1":30.6,"la2":28.766,"lo1":-90.7593,"lo2":-88.6598,"dy":0.0162,"dx":0.0183,"nx":116,"ny":114,"refTime":"2024-04-19T12:00:00:Z","depth":0,"parameterNumber":3,"parameterNumberName":"V-component_of_WINDS"},"data":[0.0,0.0,0.0,0.0,0.0,0.0,0.0,0.0,0.0,0.0,0.0,0.0,0.0,0.0,0.0,0.0,0.0,0.0,0.0,0.0,0.0,0.0,0.0,0.0,0.0,0.0,0.0,0.0,0.0,0.0,0.0,0.0,0.0,0.0,0.0,0.0,0.0,0.0,0.0,0.0,0.0,0.0,0.0,0.0,0.0,0.0,0.0,0.0,0.0,0.0,0.0,0.0,0.0,0.0,0.0,0.0,0.0,0.0,0.0,0.0,0.0,0.0,0.0,0.0,0.0,0.0,0.0,0.0,0.0,0.0,0.0,0.0,0.0,0.0,0.0,0.0,0.0,0.0,0.0,0.0,0.0,0.0,0.0,0.0,0.0,0.0,0.0,0.0,0.0,0.0,0.0,0.0,0.0,0.0,0.0,0.0,0.0,0.0,0.0,0.0,0.0,0.0,0.0,0.0,0.0,0.0,0.0,0.0,0.0,0.0,0.0,0.0,0.0,0.0,0.0,0.0,0.0,0.0,0.0,0.0,0.0,0.0,0.0,0.0,0.0,0.0,0.0,0.0,0.0,0.0,0.0,0.0,0.0,0.0,0.0,0.0,0.0,0.0,0.0,0.0,0.0,0.0,0.0,0.0,0.0,0.0,0.0,0.0,0.0,0.0,0.0,0.0,0.0,0.0,0.0,0.0,0.0,0.0,0.0,0.0,0.0,0.0,0.0,0.0,0.0,0.0,0.0,0.0,0.0,0.0,0.0,0.0,0.0,0.0,0.0,0.0,0.0,0.0,0.0,0.0,0.0,0.0,0.0,0.0,0.0,0.0,0.0,0.0,0.0,0.0,0.0,0.0,0.0,0.0,0.0,0.0,0.0,0.0,0.0,0.0,0.0,0.0,0.0,0.0,0.0,0.0,0.0,0.0,0.0,0.0,0.0,0.0,0.0,0.0,0.0,0.0,0.0,0.0,0.0,0.0,0.0,0.0,0.0,0.0,0.0,0.0,0.0,0.0,0.0,0.0,0.0,0.0,0.0,0.0,0.0,0.0,0.0,0.0,0.0,0.0,0.0,0.0,0.0,0.0,0.0,0.0,0.0,0.0,0.0,0.0,0.0,0.0,0.0,0.0,0.0,0.0,0.0,0.0,0.0,0.0,0.0,0.0,0.0,0.0,0.0,0.0,0.0,0.0,0.0,0.0,0.0,0.0,0.0,0.0,0.0,0.0,0.0,0.0,0.0,0.0,0.0,0.0,0.0,0.0,0.0,0.0,0.0,0.0,0.0,0.0,0.0,0.0,0.0,0.0,0.0,0.0,0.0,0.0,0.0,0.0,0.0,0.0,0.0,0.0,0.0,0.0,0.0,0.0,0.0,0.0,0.0,0.0,0.0,0.0,0.0,0.0,0.0,0.0,0.0,0.0,0.0,0.0,0.0,0.0,0.0,0.0,0.0,0.0,0.0,0.0,0.0,0.0,0.0,0.0,0.0,0.0,0.0,0.0,0.0,0.0,0.0,0.0,0.0,0.0,0.0,0.0,0.0,0.0,0.0,0.0,0.0,0.0,0.0,0.0,0.0,0.0,0.0,0.0,0.0,0.0,0.0,0.0,0.0,0.0,0.0,0.0,0.0,0.0,0.0,0.0,0.0,0.0,0.0,0.0,0.0,0.0,0.0,0.0,0.0,0.0,0.0,0.0,0.0,0.0,0.0,0.0,0.0,0.0,0.0,0.0,0.0,0.0,0.0,0.0,0.0,0.0,0.0,0.0,0.0,0.0,0.0,0.0,0.0,0.0,0.0,0.0,0.0,0.0,0.0,0.0,0.0,0.0,0.0,0.0,0.0,0.0,0.0,0.0,0.0,0.0,0.0,0.0,0.0,0.0,0.0,0.0,0.0,0.0,0.0,0.0,0.0,0.0,0.0,0.0,0.0,0.0,0.0,0.0,0.0,0.0,0.0,0.0,0.0,0.0,0.0,0.0,0.0,0.0,0.0,0.0,0.0,0.0,0.0,0.0,0.0,0.0,0.0,0.0,0.0,0.0,0.0,0.0,0.0,0.0,0.0,0.0,0.0,0.0,0.0,0.0,0.0,0.0,0.0,0.0,0.0,0.0,0.0,0.0,0.0,0.0,0.0,0.0,0.0,0.0,0.0,0.0,0.0,0.0,0.0,0.0,0.0,0.0,0.0,0.0,0.0,0.0,0.0,0.0,0.0,0.0,0.0,0.0,0.0,0.0,0.0,0.0,0.0,0.0,0.0,0.0,0.0,0.0,0.0,0.0,0.0,0.0,0.0,0.0,0.0,0.0,0.0,0.0,0.0,0.0,0.0,0.0,0.0,0.0,0.0,0.0,0.0,0.0,0.0,0.0,0.0,0.0,0.0,0.0,0.0,0.0,0.0,0.0,0.0,0.0,0.0,0.0,0.0,0.0,0.0,0.0,0.0,0.0,0.0,0.0,0.0,0.0,0.0,0.0,0.0,0.0,0.0,0.0,0.0,0.0,0.0,0.0,0.0,0.0,0.0,0.0,0.0,0.0,0.0,0.0,0.0,0.0,0.0,0.0,0.0,0.0,0.0,0.0,0.0,0.0,0.0,0.0,0.0,0.0,0.0,0.0,0.0,0.0,0.0,0.0,0.0,0.0,0.0,0.0,0.0,0.0,0.0,0.0,0.0,0.0,0.0,0.0,0.0,0.0,0.0,0.0,0.0,0.0,0.0,0.0,0.0,0.0,0.0,0.0,0.0,0.0,0.0,0.0,0.0,0.0,0.0,0.0,0.0,0.0,0.0,0.0,0.0,0.0,0.0,0.0,0.0,0.0,0.0,0.0,0.0,0.0,0.0,0.0,0.0,0.0,0.0,0.0,0.0,0.0,0.0,0.0,0.0,0.0,0.0,0.0,0.0,0.0,0.0,0.0,0.0,0.0,0.0,0.0,0.0,0.0,0.0,0.0,0.0,0.0,0.0,0.0,0.0,0.0,0.0,0.0,0.0,0.0,0.0,0.0,0.0,0.0,0.0,0.0,0.0,0.0,0.0,0.0,0.0,0.0,0.0,0.0,0.0,0.0,0.0,0.0,0.0,0.0,0.0,0.0,0.0,0.0,0.0,0.0,0.0,0.0,0.0,0.0,0.0,0.0,0.0,0.0,0.0,0.0,0.0,0.0,0.0,0.0,0.0,0.0,0.0,0.0,0.0,0.0,0.0,0.0,0.0,0.0,0.0,0.0,0.0,0.0,0.0,0.0,0.0,0.0,0.0,0.0,0.0,0.0,0.0,0.0,0.0,0.0,0.0,0.0,0.0,0.0,0.0,0.0,0.0,0.0,0.0,0.0,0.0,0.0,0.0,0.0,0.0,0.0,0.0,0.0,0.0,0.0,0.0,0.0,0.0,0.0,0.0,0.0,0.0,0.0,0.0,0.0,0.0,0.0,0.0,0.0,0.0,0.0,0.0,0.0,0.0,0.0,0.0,0.0,0.0,0.0,0.0,0.0,0.0,0.0,0.0,0.0,0.0,0.0,0.0,0.0,0.0,0.0,0.0,0.0,0.0,0.0,0.0,0.0,0.0,0.0,0.0,0.0,0.0,0.0,0.0,0.0,0.0,0.0,0.0,0.0,0.0,0.0,0.0,0.0,0.0,0.0,0.0,0.0,0.0,0.0,0.0,0.0,0.0,0.0,0.0,0.0,0.0,0.0,0.0,0.0,0.0,0.0,0.0,0.0,0.0,0.0,0.0,0.0,0.0,0.0,0.0,0.0,0.0,0.0,0.0,0.0,0.0,0.0,0.0,0.0,0.0,0.0,0.0,0.0,0.0,0.0,0.0,0.0,0.0,0.0,0.0,0.0,0.0,0.0,0.0,0.0,0.0,0.0,0.0,0.0,0.0,0.0,0.0,0.0,0.0,0.0,0.0,0.0,0.0,0.0,0.0,0.0,0.0,0.0,0.0,0.0,0.0,0.0,0.0,0.0,0.0,0.0,0.0,0.0,0.0,0.0,0.0,0.0,0.0,0.0,0.0,0.0,0.0,0.0,0.0,0.0,0.0,0.0,0.0,0.0,0.0,0.0,0.0,0.0,0.0,0.0,0.0,0.0,0.0,0.0,0.0,0.0,0.0,0.0,0.0,0.0,0.0,0.0,0.0,0.0,0.0,0.0,0.0,0.0,0.0,0.0,0.0,0.0,0.0,0.0,0.0,0.0,0.0,0.0,0.0,0.0,0.0,0.0,0.0,0.0,0.0,0.0,0.0,0.0,0.0,0.0,0.0,0.0,0.0,0.0,0.0,0.0,0.0,0.0,0.0,0.0,0.0,0.0,0.0,0.0,0.0,0.0,0.0,0.0,0.0,0.0,0.0,0.0,0.0,0.0,0.0,0.0,0.0,0.0,0.0,0.0,0.0,0.0,0.0,0.0,0.0,0.0,0.0,0.0,0.0,0.0,0.0,0.0,0.0,0.0,0.0,0.0,0.0,0.0,0.0,0.0,0.0,0.0,0.0,0.0,0.0,0.0,0.0,0.0,0.0,0.0,0.0,0.0,0.0,0.0,0.0,0.0,0.0,0.0,0.0,0.0,0.0,0.0,0.0,0.0,0.0,0.0,0.0,0.0,0.0,0.0,0.0,0.0,0.0,0.0,0.0,0.0,0.0,0.0,0.0,0.0,0.0,0.0,0.0,0.0,0.0,0.0,0.0,0.0,0.0,0.0,0.0,0.0,0.0,0.0,0.0,0.0,0.0,0.0,0.0,0.0,0.0,0.0,0.0,0.0,0.0,0.0,0.0,0.0,0.0,0.0,0.0,0.0,0.0,0.0,0.0,0.0,0.0,0.0,0.0,0.0,0.0,0.0,0.0,0.0,0.0,0.0,0.0,0.0,0.0,0.0,0.0,0.0,0.0,0.0,0.0,0.0,0.0,0.0,0.0,0.0,0.0,0.0,0.0,0.0,0.0,0.0,0.0,0.0,0.0,0.0,0.0,0.0,0.0,0.0,0.0,0.0,0.0,0.0,0.0,0.0,0.0,0.0,0.0,0.0,0.0,0.0,0.0,0.0,0.0,0.0,0.0,0.0,0.0,0.0,0.0,0.0,0.0,0.0,0.0,0.0,0.0,0.0,0.0,0.0,0.0,0.0,0.0,0.0,0.0,0.0,0.0,0.0,0.0,0.0,0.0,0.0,0.0,0.0,0.0,0.0,0.0,0.0,0.0,0.0,0.0,0.0,0.0,0.0,0.0,0.0,0.0,0.0,0.0,0.0,0.0,0.0,0.0,0.0,0.0,0.0,0.0,0.0,0.0,0.0,0.0,0.0,0.0,0.0,0.0,0.0,0.0,0.0,0.0,0.0,0.0,0.0,0.0,0.0,0.0,0.0,0.0,0.0,0.0,0.0,0.0,0.0,0.0,0.0,0.0,0.0,0.0,0.0,0.0,0.0,0.0,0.0,0.0,0.0,0.0,0.0,0.0,0.0,0.0,0.0,0.0,0.0,0.0,0.0,0.0,0.0,0.0,0.0,0.0,0.0,0.0,0.0,0.0,0.0,0.0,0.0,0.0,0.0,0.0,0.0,0.0,0.0,0.0,0.0,0.0,0.0,0.0,0.0,0.0,0.0,0.0,0.0,0.0,0.0,0.0,0.0,0.0,0.0,0.0,0.0,0.0,0.0,0.0,0.0,0.0,0.0,0.0,0.0,0.0,0.0,0.0,0.0,0.0,0.0,0.0,0.0,0.0,0.0,0.0,0.0,0.0,0.0,0.0,0.0,0.0,0.0,0.0,0.0,0.0,0.0,0.0,0.0,0.0,0.0,0.0,0.0,0.0,0.0,0.0,0.0,0.0,0.0,0.0,0.0,0.0,0.0,0.0,0.0,0.0,0.0,0.0,0.0,0.0,0.0,0.0,0.0,0.0,0.0,0.0,0.0,0.0,0.0,0.0,0.0,0.0,0.0,0.0,0.0,0.0,0.0,0.0,0.0,0.0,0.0,0.0,0.0,0.0,0.0,0.0,0.0,0.0,0.0,0.0,0.0,0.0,0.0,0.0,0.0,0.0,0.0,0.0,0.0,0.0,0.0,0.0,0.0,0.0,0.0,0.0,0.0,0.0,0.0,0.0,0.0,0.9089,0.0,0.0,0.0,0.0,0.0,0.0,0.0,0.0,0.0,0.0,0.0,0.0,0.0,0.0,0.0,0.0,0.0,0.0,0.0,0.0,0.0,0.0,0.0,0.0,1.8143,1.805,1.805,1.805,1.7983,1.7836,0.0,0.0,0.0,0.0,0.0,0.0,0.0,1.7582,1.7582,1.7876,1.8742,2.0103,1.9367,0.0,0.0,0.0,0.0,0.0,0.0,0.0,0.0,0.0,0.0,0.0,0.0,0.0,0.0,0.0,0.0,0.0,0.0,0.0,0.0,0.0,0.0,0.0,0.0,0.0,0.0,0.0,0.0,0.0,0.0,0.0,0.0,0.0,0.0,0.0,0.0,0.0,0.0,0.0,0.0,0.0,0.0,0.0,0.0,0.0,0.0,0.0,0.0,0.0,0.0,0.0,0.0,0.0,0.0,0.0,0.0,0.0,0.0,0.0,0.0,0.0,0.0,0.0,0.0,0.0,0.0,0.0,0.0,0.0,0.0,0.0,0.0,0.0,0.9327,0.0,0.0,0.0,0.0,0.0,0.0,0.0,0.0,0.0,0.0,0.0,0.0,0.0,0.0,0.0,0.0,0.0,0.0,0.0,0.0,0.0,1.7675,1.7943,1.7729,1.7689,1.7943,1.7729,1.7582,1.7582,1.7542,0.0,0.0,0.0,1.7502,1.7502,1.7555,1.7635,1.7742,1.8504,2.0057,2.2127,0.0,0.0,0.0,0.0,0.0,0.0,0.0,0.0,0.0,0.0,0.0,0.0,0.0,0.0,0.0,0.0,0.0,0.0,0.0,0.0,0.0,0.0,0.0,0.0,0.0,0.0,0.0,0.0,0.0,0.0,0.0,0.0,0.0,0.0,0.0,0.0,0.0,0.0,0.0,0.0,0.0,0.0,0.0,0.0,0.0,0.0,0.0,0.0,0.0,0.0,0.0,0.0,0.0,0.0,0.0,0.0,0.0,0.0,0.0,0.0,0.0,0.0,0.0,0.0,0.0,0.0,0.0,1.3411,1.2489,1.2194,1.2194,1.179,1.1104,1.0921,1.0514,0.9964,0.9768,0.0,0.0,0.0,0.0,0.0,0.0,0.0,0.0,0.0,0.0,0.0,0.0,0.0,0.0,0.0,0.0,0.0,0.0,0.0,1.7595,1.7635,1.7609,1.7595,1.7635,1.7609,1.7582,1.7582,1.7341,1.7208,1.7208,1.7208,1.7208,1.7208,1.7448,1.7836,1.837,1.972,2.0698,2.1325,2.1881,2.1764,2.1042,2.0027,0.0,0.0,0.0,0.0,0.0,0.0,0.0,0.0,0.0,0.0,0.0,0.0,0.0,0.0,0.0,0.0,0.0,0.0,0.0,0.0,0.0,0.0,0.0,0.0,0.0,0.0,0.0,0.0,0.0,0.0,0.0,0.0,0.0,0.0,0.0,0.0,0.0,0.0,0.0,0.0,0.0,0.0,0.0,1.7662,1.8196,0.0,0.0,0.0,0.0,0.0,0.0,0.0,0.0,0.0,0.0,0.0,0.0,0.0,1.6976,1.7249,1.8025,1.9173,2.0769,2.1153,2.0188,1.8028,1.8028,1.6044,1.2651,1.2359,0.0,1.0568,1.0161,0.0,0.0,0.0,0.0,0.0,0.0,0.0,0.0,0.0,0.0,0.0,0.0,0.0,0.0,0.0,0.0,0.0,0.0,0.0,0.0,0.0,1.8036,1.833,1.833,1.9092,1.9212,1.8384,1.837,1.8023,1.7284,1.6994,1.6901,1.6901,1.7181,1.8116,1.972,2.1363,2.301,2.4573,2.4235,2.4583,2.5271,2.3297,2.1764,2.0441,1.976,0.0,0.0,0.0,0.0,0.0,0.0,0.0,0.0,0.0,0.0,0.0,0.0,0.0,0.0,0.0,0.0,0.0,0.0,0.0,0.0,0.0,0.0,0.0,0.0,0.0,0.0,0.0,0.0,0.0,0.0,0.0,0.0,0.0,0.0,0.0,0.0,0.0,0.0,0.0,1.7595,1.8317,1.825,1.8531,1.825,0.0,0.0,0.0,0.0,0.0,0.0,0.0,0.0,0.0,2.0863,2.1069,2.1443,2.2025,2.1954,2.2275,2.326,2.2531,2.1477,2.0517,1.9075,1.7373,1.5544,1.391,1.2739,1.204,1.1253,1.0643,1.0161,0.0,0.0,0.0,0.0,0.9178,0.9361,0.0,0.0,0.0,0.0,0.0,0.0,0.0,0.0,0.0,0.0,0.0,0.0,1.8009,1.8838,1.9426,1.9586,2.0521,2.0575,1.9332,1.9105,1.8464,1.7208,1.6794,1.6593,1.6593,1.7475,1.9092,2.147,2.3086,2.5001,2.7126,2.6279,2.6639,2.7668,2.5951,2.3888,2.1643,2.0962,2.0094,0.0,0.0,0.0,0.0,0.0,0.0,0.0,0.0,0.0,0.0,0.0,0.0,0.0,0.0,0.0,0.0,0.0,0.0,0.0,0.0,0.0,0.0,0.0,0.0,0.0,0.0,0.0,0.0,0.0,0.0,0.0,0.0,0.0,0.0,0.0,0.0,0.0,0.0,1.841,1.9065,1.8557,1.9412,1.9412,0.0,0.0,0.0,0.0,0.0,0.0,2.1523,2.1924,2.2726,2.4062,2.497,2.5758,2.6413,2.5628,2.5465,2.5628,2.338,2.2267,2.1741,1.915,1.7505,1.6925,1.4758,1.3627,1.3268,1.2257,1.1443,1.0819,1.067,1.0378,1.0039,0.9964,1.0059,1.0222,0.0,0.0,0.0,0.0,0.0,0.0,0.0,0.0,0.0,0.0,0.0,1.8343,1.9185,2.0067,2.0815,2.1376,2.1229,2.0842,2.0214,1.8865,1.7809,1.7181,1.6607,1.6299,1.6299,1.8784,2.1243,2.3621,2.481,2.5705,2.6464,2.6894,2.6881,2.6504,2.66,2.5865,2.4329,2.2619,2.1537,2.0802,0.0,0.0,0.0,0.0,0.0,0.0,0.0,0.0,0.0,0.0,0.0,0.0,0.0,0.0,0.0,0.0,0.0,0.0,0.0,0.0,0.0,0.0,0.0,0.0,0.0,0.0,0.0,0.0,0.0,0.0,0.0,0.0,0.0,0.0,0.0,0.0,0.0,0.0,0.0,1.9746,2.1724,0.0,0.0,0.0,0.0,2.0949,2.1243,2.2205,2.3928,2.4569,2.5678,2.7402,2.8323,2.8818,2.8858,2.9004,2.9043,2.8791,2.6285,2.3975,2.1858,1.9357,1.6939,1.4654,1.4333,1.4089,1.3736,1.2834,1.2182,1.1708,1.1145,1.0826,1.0643,1.0365,1.0439,1.0683,0.0,0.0,0.0,0.0,0.0,1.5899,1.6112,1.6219,1.642,1.6807,1.7889,1.8878,1.9573,2.1283,2.2539,2.2939,2.3567,2.3447,2.2298,2.0655,1.9386,1.8611,1.7275,1.7181,1.8517,2.0762,2.2712,2.4329,2.6066,2.7121,2.7535,2.8123,2.819,2.7816,2.7722,2.7175,2.6213,2.4449,2.2913,2.1563,2.0254,1.8918,0.0,0.0,0.0,0.0,0.0,0.0,0.0,0.0,0.0,0.0,0.0,0.0,0.0,0.0,0.0,0.0,0.0,0.0,0.0,0.0,0.0,0.0,0.0,0.0,0.0,0.0,0.0,0.0,0.0,0.0,0.0,0.0,0.0,0.0,0.0,0.0,0.0,2.1737,2.3367,0.0,2.2632,2.314,2.3567,2.3661,2.4636,2.5758,2.6974,2.7415,2.8177,2.9379,2.9726,2.998,3.0167,3.0087,2.9993,2.9887,2.8769,2.7047,2.4496,2.1991,1.9545,1.7128,1.5255,1.4326,1.4102,1.3682,1.3132,1.2535,1.2325,1.2033,1.1721,1.1613,1.164,1.1714,0.0,0.0,0.0,0.0,0.0,1.5832,1.5832,1.5992,1.6339,1.6927,1.821,1.9519,2.0708,2.2686,2.4115,2.4609,2.5184,2.485,2.3273,2.1416,1.9893,1.8811,1.7822,1.841,2.0775,2.2458,2.4088,2.5665,2.7241,2.8163,2.8457,2.8951,2.9032,2.8751,2.8537,2.8123,2.7482,2.6213,2.4596,2.2779,2.159,2.0294,1.8891,0.0,0.0,0.0,0.0,0.0,0.0,0.0,0.0,0.0,0.0,0.0,0.0,0.0,0.0,0.0,0.0,0.0,0.0,0.0,0.0,0.0,0.0,0.0,0.0,0.0,0.0,0.0,0.0,0.0,0.0,0.0,0.0,0.0,0.0,2.1122,2.2873,2.3273,2.497,2.5772,2.489,2.5518,2.6092,2.64,2.7415,2.8364,2.9152,2.9472,2.994,3.0635,3.0755,3.0849,3.0942,3.0648,3.0461,3.0354,2.9132,2.7341,2.4945,2.2394,1.9634,1.7065,1.5348,1.4421,1.4143,1.4095,1.3749,1.3247,1.3146,1.2868,1.2508,1.2461,1.244,1.2413,0.0,0.0,0.0,0.0,0.0,1.5832,1.5832,1.5832,1.6246,1.7408,1.8637,2.0294,2.2592,2.4209,2.5478,2.6346,2.5865,2.4783,2.302,2.0962,1.9158,1.7702,1.8263,1.9973,2.2886,2.3834,2.5424,2.7722,2.8337,2.8778,2.9058,2.9352,2.9339,2.9058,2.9058,2.8724,2.815,2.7843,2.656,2.4569,2.2792,2.1697,2.0895,0.0,0.0,0.0,0.0,0.0,0.0,0.0,0.0,0.0,0.0,0.0,0.0,0.0,0.0,0.0,0.0,0.0,0.0,0.0,0.0,0.0,0.0,0.0,0.0,0.0,0.0,0.0,0.0,0.0,0.0,0.0,0.0,0.0,1.992,2.2445,2.4302,2.4342,2.6653,2.7883,2.7028,2.8003,2.8804,2.9085,2.9379,2.9806,3.0368,3.0648,3.0929,3.1209,3.149,3.1503,3.1209,3.0929,3.0648,3.0368,2.7657,2.5127,2.2566,2.0159,1.7397,1.4517,1.4618,1.4407,1.3878,1.4021,1.3987,1.381,1.3519,1.3227,1.2942,1.2793,1.2732,1.2678,0.0,0.0,0.0,1.5832,1.5832,1.5832,1.5832,1.5832,1.6099,1.6847,1.8918,2.0882,2.2378,2.481,2.6533,2.6987,2.6293,2.5264,2.3915,2.1309,1.9519,1.8905,2.0454,2.2418,2.473,2.5865,2.7054,2.835,2.8951,2.9285,2.9366,2.9659,2.9646,2.9366,2.9366,2.9152,2.8764,2.8243,2.7575,2.668,2.4703,2.3166,2.1911,0.0,0.0,0.0,0.0,0.0,0.0,0.0,0.0,0.0,0.0,0.0,0.0,0.0,0.0,0.0,0.0,0.0,0.0,0.0,0.0,0.0,0.0,0.0,0.0,0.0,0.0,0.0,0.0,0.0,0.0,0.0,2.1069,2.2672,2.2672,2.4649,2.6507,2.7575,2.9098,2.9967,2.9726,3.0194,3.0541,3.0621,3.0902,3.1142,3.1303,3.0982,3.0822,3.0902,3.0996,3.0996,3.0915,3.0835,3.0755,3.0675,2.9417,2.7521,2.5127,2.2556,2.0042,1.7469,1.5518,1.4645,1.4482,1.4306,1.4082,1.3824,1.3641,1.3315,1.2956,1.2915,1.2752,1.2508,0.0,0.0,0.0,1.5832,1.5832,1.5832,1.5832,1.5832,1.6179,1.7141,1.9252,2.1269,2.2819,2.5064,2.6533,2.6707,2.6026,2.4823,2.302,2.0842,2.0383,2.1939,2.29,2.4671,2.7579,2.788,2.839,2.9152,2.9499,2.9726,2.986,3.002,2.994,2.9673,2.9927,2.9726,2.9205,2.8978,2.8497,2.7776,2.6453,2.5037,2.3581,2.2325,2.1443,2.0788,1.996,1.972,1.9626,1.8464,0.0,0.0,0.0,0.0,0.0,0.0,0.0,0.0,0.0,0.0,0.0,0.0,0.0,0.0,0.0,0.0,0.0,0.0,0.0,0.0,0.0,0.0,0.0,0.0,2.31,2.513,2.5879,2.7001,2.8257,2.9619,3.0488,3.1022,3.1142,3.1316,3.141,3.141,3.157,3.1664,3.1664,3.1343,3.1049,3.0795,3.1036,3.1036,3.0795,3.0795,3.0849,3.0969,3.0261,2.868,2.6382,2.3709,2.1077,1.8406,1.584,1.4563,1.4265,1.4156,1.3966,0.0,0.0,0.0,0.0,0.0,1.2766,1.2467,0.0,0.0,0.0,1.5778,1.5778,1.5792,1.5832,1.5832,1.6366,1.7849,1.9586,2.1443,2.3447,2.501,2.5905,2.5905,2.5277,2.3808,2.1269,2.0174,2.1366,2.5468,2.5068,2.6599,3.0336,2.9575,2.9432,3.002,3.002,3.0154,3.0408,3.0408,3.0261,3.0034,3.0528,3.0327,2.9646,2.9806,2.9272,2.831,2.7909,2.6907,2.5478,2.3834,2.3033,2.2619,2.1523,2.0788,2.0281,1.9813,0.0,0.0,0.0,0.0,0.0,0.0,0.0,0.0,0.0,0.0,0.0,0.0,0.0,0.0,0.0,0.0,0.0,0.0,0.0,0.0,0.0,0.0,0.0,0.0,2.5144,2.7281,2.8991,2.9272,2.9673,3.0715,3.1102,3.1383,3.1637,3.1664,3.1664,3.1664,3.1664,3.1664,3.1664,0.0,0.0,0.0,0.0,3.1316,3.0795,3.0822,3.0969,3.1209,3.0368,2.899,2.6985,2.3924,2.101,1.84,1.586,1.4333,1.3715,1.3824,1.377,1.3634,1.3709,1.358,1.3308,1.2983,1.2712,1.2494,0.0,0.0,1.5204,1.5444,1.5484,1.5565,1.5792,1.5832,1.6353,1.7822,1.9573,2.1283,2.2859,2.4569,2.5598,2.5598,2.4409,2.2939,2.1216,2.1122,2.2308,2.4679,2.5765,2.7391,2.9685,2.9676,3.0034,3.0621,3.0621,3.0648,3.0715,3.0715,3.0675,3.0621,3.0501,3.0474,3.0501,2.9847,2.9566,2.9486,2.847,2.7455,2.648,2.5665,2.517,2.4823,2.4115,2.3794,2.3474,2.1977,2.1603,2.1563,2.0249,0.0,0.0,0.0,0.0,0.0,0.0,0.0,0.0,0.0,0.0,0.0,0.0,0.0,0.0,0.0,0.0,0.0,0.0,0.0,0.0,2.477,2.6987,2.8978,3.0274,3.0662,3.0889,3.1116,3.141,3.161,3.1664,3.1664,3.1664,3.1664,3.1664,3.1664,3.1664,3.1223,3.0915,3.0795,3.0902,3.0902,3.0795,3.1022,3.1169,3.1223,3.0581,0.0,2.9586,2.4663,2.2011,2.1292,1.6595,1.4407,1.4163,1.4068,1.3871,1.3593,1.3261,1.3098,1.2983,1.2433,1.2352,1.2467,0.0,1.4763,1.5017,1.515,1.5177,1.5284,1.5565,1.5618,1.6032,1.7208,1.8784,2.0241,2.1416,2.2605,2.3313,2.3313,2.2231,2.212,2.3278,2.3116,2.4762,2.9003,2.8479,2.9145,3.1226,3.0804,3.0715,3.1009,3.1009,3.1009,3.1009,3.1009,3.0929,3.0795,3.0955,3.0849,3.0568,3.0421,3.01,2.9659,2.9205,2.8591,2.7843,2.6947,2.652,2.6306,2.5718,2.5237,2.4676,2.35,2.2993,2.2712,2.183,2.1042,2.0227,0.0,0.0,0.0,0.0,0.0,0.0,0.0,0.0,0.0,0.0,0.0,0.0,0.0,0.0,2.0722,2.1617,0.0,2.4957,2.656,2.8323,2.9833,3.0862,3.1263,3.145,3.145,3.1583,3.1664,3.1664,3.1664,3.1664,3.1664,3.1664,3.1664,3.1664,3.1396,3.1102,3.0808,3.1076,3.1089,3.0795,3.1076,3.1303,3.1436,3.0715,3.0354,3.0159,2.48,2.2281,2.169,1.6619,1.4278,1.4055,1.3831,1.3607,1.337,1.3078,1.2963,1.2915,1.2535,1.244,1.2481,0.0,0.0,1.4816,1.487,1.4883,1.4977,1.5271,1.5364,1.5738,1.6673,1.7943,1.9092,1.9973,2.0535,2.0788,2.0615,2.0267,2.1451,2.4773,2.4776,2.715,3.2618,3.0823,3.0739,3.279,3.1757,3.1249,3.1316,3.1316,3.1316,3.1316,3.1316,3.1183,3.0982,3.1396,3.1223,3.0635,3.0996,3.0635,2.9833,2.9887,2.9673,2.9165,2.7976,2.7482,2.7362,2.6774,2.5919,2.501,2.4529,2.3941,2.334,2.2899,2.2525,2.1871,1.992,1.9733,0.0,0.0,0.0,0.0,0.0,0.0,0.0,0.0,0.0,2.0013,2.0548,2.1443,2.2539,2.3848,2.505,2.6453,2.827,2.9472,3.0434,3.1209,3.1517,3.1664,3.1664,3.1664,3.1664,3.1664,3.1664,3.1664,3.1664,3.1664,3.1664,3.1664,3.1664,3.145,3.0982,3.1423,3.145,3.0969,3.1129,3.1343,3.157,3.0755,3.0354,3.0146,2.4744,2.2138,2.1419,1.644,1.4095,1.3817,1.3553,1.3336,1.3159,1.3017,1.2942,1.2895,1.2745,1.261,1.2501,0.0,0.0,0.0,1.4522,1.4563,1.4669,1.4963,1.5231,1.5805,1.6954,1.7716,1.8477,1.9372,1.976,1.9626,1.8851,2.012,2.1504,2.2739,2.4905,2.7109,2.9426,3.0173,3.0966,3.1434,3.1356,3.1356,3.1623,3.1623,3.1623,3.1623,3.1623,3.1597,3.157,3.1356,3.137,3.149,3.1036,3.0915,3.0969,3.0221,3.0034,3.0087,2.8898,2.8283,2.7963,2.7375,2.6266,2.5064,2.4997,2.4422,2.3754,2.3941,2.3621,2.2873,2.1323,0.0,1.9452,1.7595,1.6847,1.6874,1.8116,1.8851,1.9666,0.0,0.0,2.3327,2.3647,2.4823,2.6012,2.6694,2.7789,2.8925,2.9953,3.0662,3.1209,3.157,3.165,3.1664,3.1664,3.1664,3.1664,3.1664,3.1664,3.1664,3.1664,3.1664,3.1664,3.1664,3.1664,3.1637,3.157,3.1637,3.1637,3.157,3.1343,3.1249,3.1263,3.0648,3.0354,3.0146,2.4565,2.2067,2.1807,1.6362,1.4,1.3831,1.3668,1.3431,1.3159,1.3017,1.2874,1.2739,1.2583,1.2515,1.2501,0.0,0.0,0.0,1.4242,1.4269,1.4362,1.4656,1.4803,1.5124,1.5792,1.6393,1.6967,1.7502,1.7822,1.7716,1.7007,1.8878,2.1369,2.413,2.58,2.7989,3.135,3.1218,3.1102,3.1223,3.1396,3.1543,3.1664,3.1664,3.1664,3.1664,3.1664,3.1664,3.1664,3.1543,3.1463,3.141,3.133,3.1076,3.0702,3.0501,3.0194,2.9753,2.8925,2.8096,2.7228,2.6132,2.501,0.0,0.0,2.3033,2.2846,2.3487,2.3046,2.2111,2.1136,2.0347,0.0,1.8891,1.8758,0.0,0.0,2.0855,2.1911,2.2819,2.3674,2.4502,2.5304,2.6373,2.7442,2.8377,2.8965,2.9646,0.0,3.0929,3.1142,3.1597,3.1664,3.161,3.1436,3.1263,3.1156,3.1156,3.1463,3.153,3.1183,3.1476,3.1664,3.1664,3.1664,3.1664,3.1664,3.1664,3.1664,3.1664,3.1543,3.1396,3.1223,3.0808,3.0341,2.9654,2.4554,2.044,1.7452,1.4952,1.3851,1.3702,1.3458,1.3241,1.3037,1.2881,1.2732,1.2589,1.2522,1.2501,1.2501,0.0,0.0,0.0,1.4082,1.4082,1.4162,1.4362,1.4469,1.4603,1.4816,1.5284,1.5698,1.6005,1.6286,1.6299,1.5872,1.7849,2.069,2.4346,2.5811,2.8181,3.1944,3.1606,3.1263,3.1343,3.1557,3.1664,3.1664,3.1664,3.1664,3.1664,3.1664,3.1664,3.1664,3.1664,3.1557,3.1356,3.1583,3.1249,3.0595,3.0648,3.014,2.9272,2.843,2.7228,2.5838,2.4783,2.3728,0.0,0.0,2.1496,2.1617,2.2271,2.1991,2.1296,2.0628,1.984,1.9239,1.9492,0.0,0.0,2.1256,2.2525,2.3714,2.4249,2.489,2.5651,2.6667,2.7575,2.8497,2.9539,2.986,3.0274,3.1196,3.1169,3.1183,3.161,3.1597,3.1383,3.0915,3.0608,3.0341,3.0087,3.0889,3.1316,3.1062,3.1423,3.1664,3.1664,3.1664,3.1664,3.1664,3.1664,3.1664,3.1664,3.1503,3.1316,3.1102,3.0728,3.0221,2.9415,2.4531,1.9285,1.4224,1.4,1.3804,1.3607,1.3342,1.3125,1.2942,1.2793,1.2637,1.2501,1.2501,1.2501,1.2501,0.0,0.0,0.0,0.0,1.4082,1.4095,1.4095,1.4335,1.4522,1.4536,1.4803,1.5097,1.5391,1.5685,1.5845,1.5832,1.7475,1.9386,2.1571,2.4488,2.7028,2.9568,3.0608,3.1356,3.165,3.1664,3.1664,3.1664,3.1664,3.1664,3.1664,3.1664,3.1664,3.1664,3.1664,3.1664,3.1664,3.1664,3.149,3.1156,3.0595,2.9847,2.8898,2.7428,2.5625,2.3861,2.3808,0.0,0.0,0.0,2.0281,2.0294,2.0321,2.0695,0.0,2.008,1.8798,1.7836,1.8718,0.0,1.9519,2.1804,2.3287,2.4476,2.5625,2.656,2.7362,2.7963,2.8804,2.9619,3.0221,3.0795,3.1276,3.1597,3.165,3.165,3.1664,3.1423,3.0915,3.006,2.97,2.9179,2.831,2.9793,3.1049,3.1597,3.1664,3.1664,3.1664,3.1664,3.1664,3.1664,3.1664,3.1664,3.1664,3.1102,3.0808,3.0795,3.0221,2.9927,2.9694,2.4431,1.9247,1.4082,1.4068,1.3899,1.3614,1.3458,1.322,1.2942,1.2793,1.2637,1.2501,1.2501,1.2501,1.2501,0.0,0.0,0.0,0.0,0.0,1.4082,1.4082,1.4175,1.4229,1.4229,1.4656,0.0,0.0,0.0,0.0,0.0,1.6914,1.8397,2.0267,2.3153,2.5665,2.7629,2.978,3.0982,3.1089,3.1463,3.1664,3.1664,3.1664,3.1664,3.1664,3.1664,3.1664,3.1664,3.1664,3.1664,3.1664,3.1463,3.1089,3.0581,2.9793,2.8951,2.7923,2.5865,2.4168,2.2645,0.0,0.0,0.0,0.0,0.0,0.0,1.9172,1.9092,1.8637,1.7943,1.809,1.8624,1.9319,0.0,2.1911,2.35,2.4783,2.5905,2.6894,2.7495,2.7963,2.8364,2.8056,2.7843,2.823,2.815,2.8377,2.9459,2.9793,3.0261,3.1236,3.0782,3.0181,2.9686,2.9366,2.9648,3.1224,3.0602,3.0287,3.0488,3.1223,3.1664,3.1664,3.1664,3.1664,3.1664,3.1664,3.1664,3.1664,3.1276,3.0982,3.0782,2.9806,2.8432,2.679,2.3238,1.9655,1.6616,1.4735,1.3865,1.3736,1.3295,1.3051,1.2935,1.2678,1.2549,1.2501,1.2501,1.2501,1.2501,0.0,0.0,0.0,0.0,0.0,0.0,0.0,0.0,0.0,0.0,0.0,0.0,0.0,0.0,0.0,0.0,0.0,1.7542,1.9225,2.1403,2.3514,2.5491,2.7215,2.827,2.8591,2.8965,2.9312,2.9633,2.994,3.0314,3.0728,3.0835,3.0942,3.1036,3.1036,3.1036,3.1022,3.0621,3.0047,2.9312,2.811,2.6961,2.5732,2.3594,2.1977,0.0,0.0,0.0,0.0,0.0,0.0,1.7328,1.7702,1.7569,1.7301,1.7448,1.833,1.9506,2.0722,2.2258,2.3834,2.5224,2.6306,2.7188,2.7869,2.8177,2.8337,2.8417,2.7669,2.6974,2.6961,2.656,2.6613,2.7776,2.8123,2.8831,3.0515,3.0007,2.9459,2.9486,2.9699,3.0624,0.0,0.0,3.0942,3.1262,3.1307,3.1249,3.1356,3.1356,3.145,3.1664,3.1664,3.1623,3.1517,3.1223,3.0822,3.0314,2.9566,2.7836,2.5138,2.2521,1.999,1.7535,1.4936,1.3722,1.3498,1.3119,1.2963,1.2929,1.2623,1.2501,1.2501,1.2501,1.2501,1.2501,0.0,0.0,0.0,0.0,0.0,0.0,0.0,0.0,0.0,0.0,0.0,0.0,0.0,0.0,0.0,0.0,0.0,0.0,1.8263,1.9239,2.0762,2.3006,2.3247,2.3714,2.4556,2.4609,2.505,2.5892,2.672,2.7709,2.8818,2.9098,2.9379,2.9619,2.9633,2.9633,2.9566,2.9005,2.8257,2.7308,2.5585,2.4048,2.2579,2.0815,1.9265,0.0,0.0,0.0,0.0,0.0,0.0,1.666,1.6152,1.6393,1.7141,1.8584,1.9466,2.0481,2.2752,2.4048,2.5157,2.6867,2.7709,2.8203,2.8511,2.8577,2.8457,2.8083,2.7495,2.6841,0.0,0.0,2.5932,2.6627,2.6787,2.7549,2.9646,2.9205,2.8871,0.0,0.0,0.0,0.0,0.0,0.0,3.3977,3.1791,3.0528,3.0822,3.0835,3.1089,3.165,3.1664,3.153,3.1223,3.0902,3.0314,2.9459,2.9446,2.7874,2.5043,2.2749,1.9923,1.6888,1.4718,1.3505,1.2983,1.2969,1.2956,1.2922,1.2617,1.2501,1.2501,1.2501,1.2501,1.2501,0.0,0.0,0.0,0.0,0.0,0.0,0.0,0.0,0.0,0.0,0.0,0.0,0.0,0.0,0.0,0.0,0.0,0.0,1.6486,1.817,1.9412,2.0013,2.2151,2.3434,2.3661,2.4302,2.4743,2.497,2.5197,2.5464,2.5758,2.5838,2.5798,2.5665,2.5892,2.5745,2.5331,2.5184,2.4716,2.3995,2.2899,2.2098,2.1363,1.9599,1.8557,0.0,0.0,0.0,0.0,0.0,0.0,0.0,1.7969,1.8544,1.9172,1.9987,2.1269,2.2659,2.3701,2.5104,2.648,2.7362,2.7696,2.7896,2.819,2.8096,2.7602,2.6426,2.501,2.3607,0.0,2.2245,2.3046,2.5184,2.6253,0.0,2.9927,2.986,0.0,3.1728,0.0,3.4408,3.7975,3.5492,0.0,3.6483,3.3081,3.1129,3.1436,3.145,3.1517,3.1664,3.1664,3.153,3.1223,3.0501,2.9806,2.9152,2.8938,2.7401,2.4773,2.2343,1.9714,1.7273,1.4754,1.3532,1.3275,1.3051,1.2895,1.2773,1.2576,1.2501,1.2501,1.2501,1.2501,1.2501,0.0,0.0,0.0,0.0,0.0,0.0,0.0,0.0,0.0,0.0,0.0,0.0,0.0,0.0,0.0,0.0,0.0,0.0,0.0,1.6914,1.7675,1.7943,1.9292,2.016,2.0414,2.0909,2.1283,2.1537,2.2071,2.2525,2.2899,2.3166,2.326,2.3233,2.3273,2.3166,2.2966,2.2579,2.2071,0.0,0.0,1.9679,1.9038,1.7796,1.7221,0.0,0.0,0.0,0.0,0.0,0.0,1.805,1.9586,2.0307,2.0855,2.2365,0.0,2.4502,2.5478,2.6653,2.7682,2.8016,2.8096,2.7936,2.7321,2.6947,2.6172,2.4182,2.2873,2.1643,2.0174,2.0361,2.143,2.3567,0.0,0.0,2.9245,3.0175,3.1296,0.0,3.516,0.0,4.0746,3.7841,3.6257,3.766,3.3489,3.0969,3.1263,3.1289,3.1343,3.1476,3.1476,3.1209,3.0662,3.0034,2.9432,2.8845,2.8551,2.7029,2.4503,2.2033,1.9409,1.7002,1.4638,1.3431,1.3098,1.3003,1.2868,1.2712,1.2562,1.2501,1.2501,1.2501,1.2501,1.2501,0.0,0.0,0.0,0.0,0.0,0.0,0.0,0.0,0.0,0.0,1.483,1.507,0.0,0.0,0.0,0.0,0.0,0.0,0.0,0.0,1.6046,1.6513,1.6112,1.6126,1.6633,1.6687,1.6954,1.7462,1.8504,1.9386,2.0107,2.0615,2.0949,2.1096,2.0895,2.0895,2.1002,2.0281,1.9653,1.9078,1.809,1.7221,1.6473,0.0,0.0,0.0,0.0,0.0,0.0,0.0,1.8771,1.8838,2.1162,2.2044,2.2659,2.4997,2.5772,2.6146,2.7415,2.8203,2.8644,2.8564,2.8511,2.803,2.6293,2.5545,2.4489,2.1911,0.0,2.0361,1.9052,1.9519,2.0668,2.2325,0.0,2.5598,2.8514,3.0548,3.2478,3.4679,3.7759,4.0391,4.1969,3.9458,3.7953,3.8219,3.3387,3.0568,3.0889,3.0875,3.0942,3.1156,3.1089,3.0688,2.9927,2.9553,2.9085,2.8537,2.823,2.6722,2.3897,2.162,1.9027,1.6112,1.4282,1.3247,1.2739,1.2874,1.284,1.2684,1.2556,1.2501,1.2501,1.2501,1.2501,1.2501,0.0,0.0,0.0,0.0,0.0,0.0,0.0,0.0,0.0,0.0,1.5084,1.507,0.0,0.0,0.0,0.0,0.0,0.0,0.0,0.0,0.0,1.5631,1.5992,1.6246,1.6339,1.658,1.6754,1.686,1.7061,1.7128,1.7034,1.7141,1.6954,1.654,1.674,1.658,1.6192,1.6273,1.6112,1.5805,1.5845,1.5765,1.5645,0.0,0.0,0.0,0.0,0.0,0.0,0.0,2.0067,2.0949,2.3073,2.4583,2.5692,2.6386,2.7108,2.7736,2.7989,2.8511,2.8845,2.835,2.8043,2.7455,2.5932,2.4609,0.0,0.0,1.9653,1.8798,1.829,1.8918,2.0401,2.31,2.4369,2.6348,3.0345,3.1985,3.4377,0.0,3.9734,4.1317,4.4722,4.0016,0.0,3.8186,3.3591,3.0955,3.149,3.1289,3.1062,3.0875,3.0394,3.0074,2.9913,2.9152,2.8577,2.8217,2.7923,2.557,2.1275,2.0558,1.8,1.4009,1.3446,0.0,1.2732,1.2759,1.2678,1.2535,1.2515,1.2501,1.2501,1.2501,1.2501,1.2508,0.0,0.0,0.0,0.0,0.0,0.0,0.0,1.4763,1.507,1.5965,1.5952,1.5805,1.5645,1.5752,1.5832,0.0,0.0,0.0,0.0,0.0,0.0,0.0,0.0,0.0,1.6046,1.6179,1.6179,1.6019,0.0,1.6019,1.5591,1.5899,1.5738,1.5177,1.5324,1.5217,1.4963,1.495,1.4578,1.4063,1.4996,1.5008,0.0,0.0,0.0,0.0,0.0,0.0,0.0,0.0,1.9679,2.1149,2.3995,2.5678,2.6707,2.7148,2.7802,2.839,2.839,2.8818,2.9085,2.8337,2.7802,2.6774,2.4075,0.0,0.0,0.0,1.7742,1.7422,1.6981,1.7876,1.9439,2.1777,2.3153,2.5672,3.0334,3.2592,3.5409,3.9964,4.1304,4.2835,4.4752,4.0043,3.7128,3.766,3.3154,3.0662,3.1396,3.1022,3.0635,3.0341,2.9913,2.9539,2.9232,2.8818,2.8377,2.7909,2.6428,2.3951,2.0382,1.9008,1.6525,1.3275,1.3207,1.2915,1.2515,1.2664,1.2549,1.2291,1.244,1.2501,1.2501,1.2501,1.2501,1.2508,0.0,0.0,0.0,0.0,0.0,0.0,1.4903,1.5177,1.5565,1.674,1.6887,1.67,1.6166,1.6059,1.5965,0.0,0.0,0.0,0.0,0.0,0.0,0.0,0.0,0.0,0.0,0.0,0.0,1.51,1.5334,0.0,0.0,0.0,0.0,0.0,1.441,1.4461,1.4395,1.4435,1.3963,0.0,0.0,1.4679,0.0,0.0,0.0,0.0,0.0,0.0,0.0,0.0,1.8851,2.0401,2.35,2.5384,2.6547,2.7081,2.7789,2.8457,2.8644,2.9032,2.9165,2.819,2.7468,2.6039,2.2378,2.0949,0.0,1.662,1.6286,1.6433,1.6166,1.7074,1.8477,0.0,2.159,2.4191,2.9523,3.2063,3.5147,3.9731,4.1861,0.0,4.3626,3.9483,0.0,3.6642,3.2347,3.0247,3.0996,3.0541,3.0127,2.9833,2.9486,2.9072,2.8604,2.847,2.8136,2.7602,2.5059,2.2617,2.0089,1.7593,1.531,1.3078,1.3078,1.2759,1.2264,1.2562,1.2433,1.2094,1.2386,1.2501,1.2501,1.2501,1.2508,1.2515,0.0,0.0,0.0,0.0,0.0,0.0,1.4361,1.5257,1.6166,1.7355,1.7502,1.7382,1.7061,1.6794,1.6406,0.0,0.0,0.0,0.0,0.0,0.0,0.0,0.0,0.0,0.0,0.0,0.0,1.4028,1.4064,0.0,0.0,0.0,0.0,0.0,0.0,1.2715,1.2661,1.3698,0.0,0.0,0.0,0.0,0.0,0.0,0.0,0.0,0.0,0.0,0.0,0.0,0.0,1.8945,2.0601,2.302,2.5304,2.5625,0.0,0.0,2.8778,2.9045,2.8804,2.7642,2.6707,2.5277,2.2245,0.0,1.8945,1.7021,1.6246,1.6139,1.6887,1.7141,1.7983,0.0,0.0,2.2448,2.8103,2.964,3.2601,3.9044,0.0,0.0,4.1141,3.7792,3.5232,3.4154,3.1483,3.0074,3.0421,3.014,2.982,2.9539,2.8978,2.8657,2.8604,2.8056,2.7629,2.7295,2.4752,2.2099,1.9624,1.734,1.4955,1.2773,1.2773,1.2508,0.0,1.24,1.2338,1.2094,1.2386,1.2501,1.2501,1.2501,1.2522,1.2535,0.0,0.0,0.0,0.0,0.0,0.0,1.4995,1.5458,1.6126,1.7662,1.7862,1.7822,1.7702,1.7422,1.686,1.5912,0.0,0.0,0.0,0.0,0.0,0.0,0.0,0.0,0.0,0.0,1.514,1.3872,1.4663,0.0,0.0,0.0,0.0,0.0,0.0,1.1661,1.1305,0.0,0.0,0.0,0.0,0.0,0.0,0.0,0.0,0.0,0.0,0.0,0.0,0.0,0.0,0.0,1.7689,1.9305,0.0,0.0,2.4943,2.6533,2.7255,2.8096,2.8537,2.7522,2.6199,2.4436,2.1657,0.0,1.833,1.654,1.5992,1.5939,1.6286,1.6353,1.6887,0.0,0.0,0.0,2.6269,2.7476,2.9965,3.6,3.68,3.717,3.7981,3.5233,3.2493,3.0522,2.9417,2.9058,2.9539,2.9459,2.9259,2.8965,2.8551,2.8243,2.8056,2.7642,2.6626,2.5,2.2644,2.0241,1.7654,1.5345,1.3742,1.2732,1.2732,1.2372,0.0,1.2305,1.2223,1.1843,1.2318,1.2501,1.2501,1.2501,1.2467,1.2099,0.0,0.0,0.0,0.0,0.0,1.3063,1.5233,1.5551,1.6072,1.7582,1.7862,1.7916,1.7916,1.7555,1.6994,1.6166,1.5925,0.0,0.0,0.0,0.0,0.0,0.0,0.0,0.0,0.0,1.4949,1.3295,1.4172,1.3695,0.0,0.0,1.1836,1.1323,0.0,0.0,0.0,0.0,0.0,0.0,0.0,0.0,0.0,0.0,0.0,0.0,0.0,0.0,0.0,0.0,0.0,0.0,0.0,0.0,0.0,0.0,2.3046,2.4917,2.5772,2.6961,2.7776,2.7054,2.5411,2.338,0.0,0.0,1.7662,1.6139,1.5832,1.5832,1.5832,1.5832,1.6192,0.0,0.0,1.9264,2.3887,2.4996,2.7323,3.2889,3.3562,3.4032,3.5491,3.2953,3.0553,2.8601,2.8323,2.843,2.8751,2.8684,2.8591,2.847,2.8177,2.7869,2.7575,2.7281,2.5989,2.3572,2.1135,1.8711,1.6055,1.3902,1.2813,1.2535,1.2623,1.2318,0.0,1.2291,1.2203,1.1803,1.2305,1.2501,1.2494,1.2454,1.24,1.1861,0.0,0.0,0.0,0.0,0.0,1.2942,1.4691,1.5458,1.6139,1.7048,1.7408,1.7582,1.7582,1.7061,1.6714,1.67,1.6166,0.0,0.0,0.0,0.0,0.0,0.0,0.0,0.0,0.0,1.4567,1.195,1.195,1.0583,0.8038,0.8038,0.7957,0.7904,0.0,0.0,0.0,0.0,0.0,0.0,0.0,0.0,0.0,0.0,0.0,0.0,0.0,0.0,0.0,0.0,0.0,0.0,0.0,1.5845,1.6326,0.0,2.1056,2.3207,2.469,2.5732,2.6346,2.6039,2.4195,2.2058,0.0,1.8637,1.6914,1.6019,1.5832,1.5832,1.5832,1.5832,1.6126,0.0,0.0,0.0,2.0828,2.2124,2.5039,3.0529,3.0198,3.0701,3.384,3.1295,2.9352,2.9045,2.8764,2.847,2.8163,2.7869,2.7843,2.8136,2.7856,2.7562,2.7268,2.6974,2.5693,2.33,2.0716,1.7971,1.5436,1.3501,1.2345,1.2088,1.2379,1.2332,0.0,1.2379,1.2325,1.2088,1.2386,1.2501,1.2481,1.2345,1.2332,1.1861,0.0,0.0,0.0,0.0,0.0,0.0,1.4515,1.499,1.5551,1.6433,1.6807,1.7141,1.7542,1.7061,1.67,1.67,1.6166,0.0,0.0,0.0,0.0,0.0,0.0,0.0,0.0,0.0,1.2304,1.0771,1.1667,1.1169,0.9477,0.9477,0.9426,0.914,0.8571,0.0,0.0,0.0,0.0,0.0,0.0,0.0,0.0,0.0,0.0,0.0,0.0,0.0,0.0,0.0,0.0,0.0,0.0,0.0,0.0,1.6967,1.8637,2.0401,2.147,2.2405,2.302,2.2712,2.1483,2.0054,1.8985,1.7756,1.6647,1.5965,1.5832,1.5832,1.5832,1.5832,1.6259,1.7555,0.0,0.0,2.0815,2.2124,2.4036,2.6915,2.8368,2.9467,3.024,2.9157,2.831,2.8417,2.7976,2.7736,2.7829,2.7749,2.7642,2.7549,2.7255,2.7054,2.6961,2.648,2.4402,2.0793,1.9844,1.7198,1.3347,1.2852,1.244,1.2081,1.2372,1.2332,1.2088,1.2379,1.2325,1.2094,1.2386,1.2501,1.2488,1.2519,1.2277,1.2038,0.0,0.0,0.0,0.0,0.0,0.0,1.3847,1.4405,1.503,1.5698,1.5939,1.6313,1.7007,1.6567,1.6339,1.6673,1.5667,0.0,0.0,0.0,0.0,0.0,0.0,0.0,1.195,1.195,1.1401,1.0263,1.1098,1.0804,0.9556,0.9493,0.9314,0.9049,0.8286,0.7848,0.0,0.0,0.0,0.0,0.0,0.0,1.2522,0.0,0.0,0.0,0.0,0.0,0.0,0.0,0.0,0.0,0.0,0.0,0.0,0.0,1.6887,1.805,1.9372,2.0388,2.1042,2.0962,1.9893,1.8731,1.817,0.0,1.6273,1.5912,1.6005,1.6086,1.5872,1.6005,1.6393,1.7101,1.7769,1.8651,1.9933,2.1323,2.2819,2.4489,2.7291,2.8659,2.7936,2.8003,2.803,2.7976,2.7642,2.7415,2.7375,2.7362,2.7241,2.6947,2.6867,2.672,2.6493,2.5322,2.2972,1.9467,1.8397,1.6009,1.2216,1.2508,1.2433,1.2081,1.2372,1.24,0.0,1.2427,1.2393,1.2244,1.2372,1.242,1.24,1.2381,1.1345,1.0059,0.0,0.0,0.0,0.0,0.0,0.0,0.0,1.3786,1.4616,1.4897,1.495,1.5284,1.6126,1.5725,1.5738,1.6567,1.5045,0.0,0.0,0.0,0.0,0.0,0.0,0.0,1.1658,1.1658,1.116,1.0215,1.0161,0.9556,0.8465,0.8343,0.8201,0.8038,0.8038,0.8038,0.0,0.0,0.0,0.0,0.9312,0.9903,0.0,0.0,0.0,0.0,0.0,0.0,0.0,0.0,0.0,0.0,0.0,0.0,0.0,0.0,0.0,0.0,0.0,1.9292,1.9987,2.0267,1.9105,1.7889,1.7889,1.682,0.0,1.5885,1.6326,1.654,1.6019,1.638,1.6593,1.6072,1.7408,1.8544,1.8611,2.0187,2.1857,2.3287,2.6716,2.8418,2.6934,2.7856,2.831,2.7736,2.7682,2.7415,2.6827,2.6787,2.6653,2.6333,2.6427,2.6308,2.5803,2.3827,2.1491,1.8702,1.687,1.4597,1.204,1.2359,1.2332,1.206,1.2359,1.2481,1.2467,1.2467,1.2467,1.2461,1.2325,1.2277,1.2244,1.1986,0.9487,0.6798,0.0,0.0,0.0,0.0,0.0,0.0,0.0,0.0,0.0,0.0,1.483,1.5124,1.5551,1.5484,1.5565,0.0,0.0,0.0,0.0,0.0,0.0,0.0,0.0,0.0,0.8924,0.8916,0.8922,0.883,0.8902,0.8702,0.8323,0.8397,0.8289,0.8038,0.8038,0.8038,0.0,0.0,0.0,0.0,0.8329,0.9122,0.0,0.0,0.0,0.0,1.5343,1.5832,0.0,0.0,0.0,0.0,0.0,0.0,0.0,0.0,1.5832,1.5939,1.642,0.0,1.6874,1.6954,1.666,1.6353,0.0,1.6086,0.0,0.0,0.0,1.6727,1.682,1.7128,1.7408,1.7488,1.825,1.9052,1.9733,2.1937,0.0,2.4569,2.6581,2.7635,2.6547,2.7348,2.7856,2.7709,2.7495,2.7108,2.652,2.6493,2.6253,2.5732,2.4351,2.3622,2.3707,2.2674,2.0212,1.6295,1.5837,1.42,1.1742,1.2264,1.2277,1.1904,1.221,1.2271,1.2169,1.2169,1.2169,1.2162,1.2128,1.2115,1.2101,1.2113,0.9645,0.5907,0.0,0.0,0.0,0.0,0.0,0.0,0.0,0.0,0.0,0.0,1.4656,1.4923,1.5351,1.5391,1.5232,0.0,0.0,0.0,0.0,0.0,0.0,0.0,0.0,0.8726,0.8038,0.8038,0.8147,0.837,0.8377,0.8377,0.837,0.8377,0.8262,0.8038,0.8038,0.8038,0.8038,0.0,0.0,0.0,0.8924,0.0,0.0,0.0,0.0,0.0,1.5149,1.5712,0.0,1.5832,1.5832,1.5832,0.0,0.0,0.0,0.0,1.5832,1.5832,1.5832,1.5832,1.5899,1.6166,1.6032,1.5899,1.6166,0.0,0.0,0.0,0.0,1.6754,1.6914,1.7074,1.7275,1.7569,1.813,1.9065,2.0615,2.2311,2.3701,2.4569,2.5638,2.6319,2.6386,2.7068,2.7442,2.7308,2.7028,2.6667,2.6213,2.6066,2.536,2.4111,2.2874,2.2413,2.2543,2.0253,1.7864,1.5291,1.4509,1.331,1.1837,1.2291,1.2332,1.204,1.2067,1.2074,1.2054,1.1918,1.1938,1.2054,1.1999,1.1979,1.1972,1.1877,1.0486,0.7943,0.0,0.0,0.0,0.0,0.0,0.0,0.0,0.0,0.0,0.0,0.0,0.0,0.0,0.0,0.0,0.0,0.0,0.0,0.0,0.0,0.0,0.0,0.8627,0.8038,0.8038,0.8038,0.816,0.8418,0.8316,0.8323,0.8411,0.8316,0.8187,0.8038,0.8038,0.8038,0.8038,0.8038,0.8627,0.0,0.9903,0.0,0.0,0.0,0.0,0.0,0.0,0.0,0.0,1.5752,1.5738,1.5712,1.5752,0.0,0.0,0.0,0.0,0.0,1.5752,1.5765,1.5912,1.6553,1.6259,1.5979,1.6567,0.0,0.0,0.0,0.0,0.0,1.6901,1.7061,0.0,0.0,0.0,1.9225,2.1443,2.2298,2.306,2.4088,2.4663,2.5304,2.6172,2.6787,2.7028,2.6774,2.644,2.6132,2.5838,2.5585,2.4482,2.2401,2.1731,2.1311,2.0995,1.7615,1.5514,1.4555,1.3239,1.2311,1.2033,1.2311,1.2352,1.2203,1.1945,0.0,1.1972,1.1721,1.1769,1.1986,1.1891,1.155,1.1091,1.1471,1.1596,1.0547,0.0,0.0,0.0,0.0,0.0,0.0,0.0,0.0,0.0,0.0,0.0,0.0,0.0,0.0,0.0,0.0,0.0,0.0,0.0,0.0,0.0,0.8329,0.8137,0.8038,0.8038,0.8038,0.8065,0.8106,0.8214,0.8214,0.8113,0.8221,0.8187,0.8038,0.8038,0.8038,0.8038,0.8038,0.8137,0.8435,0.9509,0.0,0.0,0.0,0.0,0.0,0.0,0.0,0.0,1.5378,1.5297,1.5137,1.5391,0.0,0.0,0.0,0.0,0.0,1.5391,1.5458,1.5658,1.65,1.6259,1.5979,1.6567,1.6246,1.6139,0.0,0.0,0.0,0.0,1.8651,1.9011,0.0,0.0,2.0828,2.2432,2.3394,2.3995,2.4182,2.5558,2.6266,2.5705,2.6172,2.6507,2.6453,2.5959,2.5518,2.5224,2.517,2.4109,2.1869,2.0005,1.8319,1.6492,1.5888,1.4637,1.2508,1.2388,1.2162,1.187,1.2047,1.2047,1.1898,0.0,1.1775,1.1681,1.164,1.166,1.1714,1.1694,0.963,0.7144,1.0396,1.1596,1.0535,0.0,0.0,0.0,0.0,0.0,0.0,0.0,0.0,0.0,0.0,0.0,0.0,0.0,0.0,0.0,0.0,0.0,0.0,0.0,0.0,0.8627,0.8038,0.8038,0.8038,0.8038,0.8038,0.8079,0.8167,0.8235,0.8235,0.8167,0.8153,0.8106,0.8038,0.8038,0.8038,0.8038,0.8038,0.8435,0.9122,0.0,0.0,0.0,0.0,0.0,0.0,0.0,0.0,0.0,0.0,1.5204,1.5017,1.5311,0.0,0.0,0.0,0.0,0.0,1.5124,1.5284,1.5645,1.6687,1.638,1.6152,1.7395,1.6714,0.0,0.0,0.0,0.0,0.0,0.0,1.9025,1.9613,0.0,2.2525,2.3046,2.3607,2.4088,2.4396,2.5144,2.5545,2.5304,2.5812,2.6092,2.5932,2.5518,2.5224,2.509,2.3856,2.2181,2.0091,1.7967,1.5946,1.374,1.3831,1.3253,1.2067,1.2291,1.2203,1.1837,1.2074,1.2054,1.1823,0.0,1.1606,1.1606,1.1315,1.1355,1.166,1.1543,1.0523,0.8609,0.6275,0.5377,0.4763,0.0,0.0,0.0,0.0,0.0,0.0,0.0,0.0,0.0,0.0,0.0,0.0,0.0,0.0,0.0,0.0,0.0,0.0,0.0,0.8082,0.8004,0.8038,0.8038,0.8038,0.8038,0.8072,0.8153,0.8269,0.8269,0.8255,0.8214,0.8092,0.8038,0.8038,0.8038,0.8038,0.8038,0.8038,0.8627,0.9608,0.0,0.0,0.0,0.0,0.0,0.0,0.0,0.0,0.0,0.0,0.0,0.0,0.0,0.0,0.0,1.4471,1.4573,1.4776,1.4843,1.5017,1.5471,1.6647,1.638,1.6313,1.817,0.0,0.0,0.0,0.0,0.0,0.0,1.8504,0.0,2.1096,2.2739,2.3808,2.3928,2.4142,2.4476,2.4983,2.505,2.5104,2.5264,2.5625,2.5732,2.5438,2.5144,2.482,2.4357,2.2619,2.0391,1.7967,1.625,1.4509,1.2291,1.2366,1.2305,1.2121,1.2345,1.225,1.1891,1.2094,1.2033,1.1769,1.1545,1.1511,1.1613,1.1261,1.1315,1.1529,1.1543,1.0486,0.8117,0.2168,0.0,0.0,0.0,0.0,0.0,0.0,0.0,0.0,0.0,0.0,0.0,0.0,0.0,0.0,0.0,0.0,0.0,0.0,0.0,0.0,0.0,0.8497,0.7889,0.8031,0.8038,0.8038,0.8038,0.818,0.8262,0.8269,0.8269,0.8201,0.8058,0.8045,0.8038,0.8038,0.8038,0.8038,0.8038,0.8038,0.8038,0.8237,0.9509,0.0,0.0,0.0,0.0,0.0,0.0,0.0,0.0,0.0,0.0,0.0,0.0,0.0,1.3965,1.282,1.3259,1.4215,1.4482,1.4563,1.487,1.6046,1.6086,1.6366,1.8424,1.7515,0.0,1.9225,0.0,0.0,0.0,1.9893,2.0561,2.2084,2.314,2.4235,2.5585,2.5785,2.5919,2.6226,2.6266,2.6159,2.5919,2.5678,2.5424,2.513,2.4836,2.3761,2.1924,2.1763,1.9779,1.5845,1.5522,1.4382,1.2291,1.2162,1.2155,1.2277,1.2298,1.2216,1.204,1.1918,1.1782,1.1633,1.1613,1.1619,1.1653,1.1633,1.1523,1.1576,1.1586,0.7119,0.0703,0.0141,0.0,0.0,0.0,0.0,0.0,0.0,0.0,0.0,0.0,0.0,0.0,0.0,0.0,0.0,0.0,0.0,0.0,0.0,0.0,0.0,0.0,0.871,0.8556,0.8031,0.8038,0.8038,0.8038,0.8099,0.8174,0.8269,0.8269,0.8241,0.818,0.8085,0.8038,0.8038,0.8038,0.8038,0.8038,0.8038,0.8038,0.8038,0.8528,0.8534,0.0,0.0,0.0,0.0,0.0,0.0,0.0,0.0,1.1149,1.1251,1.1134,1.1499,1.1821,1.1381,1.2077,1.2966,1.3065,1.3973,1.5084,1.6246,1.6179,0.0,0.0,1.7969,1.7609,1.9426,1.9105,0.0,0.0,0.0,2.1617,2.2552,2.3754,2.4783,2.5331,2.5571,2.5718,2.5825,2.5838,2.5732,2.5438,2.5304,2.5117,2.4823,2.3476,2.2435,2.1514,1.9106,1.7011,1.5362,1.4002,1.2885,1.2149,1.2088,1.204,1.2006,1.2101,1.2067,1.1918,1.1857,1.1762,1.164,1.164,1.166,1.1543,1.1556,1.1576,1.1134,0.6335,0.2553,0.0,0.0,0.0,0.0,0.0,0.0,0.0,0.0,0.0,0.0,0.0,0.0,0.0,0.0,0.0,0.0,0.0,0.0,0.0,0.0,0.0,0.0,0.7533,0.8333,0.8592,0.7896,0.7902,0.7923,0.7963,0.797,0.8065,0.8269,0.8269,0.8248,0.8194,0.8092,0.8038,0.8038,0.7991,0.797,0.7963,0.7923,0.7902,0.7902,0.7902,0.7753,0.0,0.0,0.0,0.0,0.0,0.0,0.0,0.0,0.9948,1.0038,0.9907,1.0211,1.0519,1.0183,1.1123,1.2345,1.2428,1.3611,1.5097,1.6273,1.6126,0.0,1.8664,1.8504,1.837,2.0134,2.008,0.0,0.0,0.0,0.0,0.0,2.3955,2.4903,2.5184,2.5384,2.5518,2.5518,2.5518,2.508,2.4173,2.4147,2.3718,2.2831,2.1452,2.028,1.9582,1.6889,1.4935,1.4287,1.2799,1.1986,1.1986,1.1945,1.187,1.1775,1.1884,1.1898,1.183,1.1843,1.1775,1.1509,1.0329,1.0474,1.1647,1.166,1.0144,0.7451,0.2127,0.0,0.0,0.0,0.0,0.0,0.0,0.0,0.0,0.0,0.0,0.0,0.0,0.0,0.9246,0.9246,1.0586,0.0,0.0,0.0,0.0,0.0,0.0,0.0,0.7136,0.7285,0.7434,0.759,0.7597,0.7665,0.7807,0.7814,0.7963,0.8269,0.8269,0.8187,0.8038,0.8038,0.8038,0.8031,0.7882,0.7814,0.7801,0.7665,0.7604,0.7597,0.7597,0.7509,0.7373,0.0,0.0,0.0,0.0,0.0,0.0,0.0,0.7929,0.8719,0.7489,0.8703,1.0356,0.9244,1.0529,1.2295,1.2651,1.3623,1.4803,1.5979,1.5845,0.0,1.9118,1.9118,1.9158,2.1496,2.2218,2.2231,2.1657,2.1804,0.0,2.2766,2.3621,2.4516,2.5384,2.5504,2.5504,2.5504,2.5504,2.4456,2.2153,2.1977,2.1102,1.8734,1.8572,1.7567,1.5411,1.5252,1.4279,1.221,1.1911,1.183,1.183,1.1687,1.1633,1.1653,1.1509,1.1569,1.183,1.1864,1.1803,1.1365,0.7557,0.7954,1.1511,1.1511,0.691,0.0,0.0,0.0,0.0,0.0,0.0,0.0,0.0,0.0,0.0,0.0,0.0,0.0,0.0,0.0,0.7694,0.7592,0.8055,0.0,0.0,0.0,0.0,0.0,0.0,0.0,0.6831,0.7846,0.8169,0.7526,0.7543,0.7617,0.7658,0.776,0.7909,0.8106,0.7997,0.7923,0.7875,0.778,0.7733,0.774,0.7896,0.7855,0.7672,0.7841,0.7787,0.7597,0.7597,0.7509,0.7373,0.0,0.0,0.0,0.0,0.0,0.0,0.0,0.0,0.0,0.7224,0.7577,0.8143,0.8033,0.8918,1.0036,1.0343,1.2038,0.0,1.3573,1.5134,0.0,0.0,1.8133,0.0,0.0,2.1897,2.1764,2.159,2.2485,0.0,2.2899,2.2612,2.293,2.4701,2.244,2.1208,2.2591,2.1522,2.0417,1.9735,1.9584,1.9401,1.8572,1.7218,1.6011,1.5231,1.3629,1.2522,1.1898,1.1762,1.1728,1.183,1.1708,1.1647,1.1509,0.8868,0.9039,1.1596,1.161,1.1596,1.1569,1.0384,0.7391,0.343,0.3398,0.2094,0.0,0.0,0.0,0.0,0.0,0.0,0.0,0.0,0.0,0.0,0.0,0.0,0.0,0.0,0.0,0.6932,0.6851,0.6912,0.6987,0.0,0.0,0.0,0.0,0.0,0.0,0.0,0.7543,0.7808,0.719,0.7285,0.7387,0.7509,0.7706,0.7828,0.7868,0.7828,0.7787,0.7733,0.7651,0.7611,0.7624,0.7746,0.7896,0.7923,0.7753,0.7503,0.7441,0.7441,0.738,0.7299,0.0,0.0,0.0,0.0,0.0,0.0,0.0,0.0,0.0,0.7068,0.0,0.7333,0.74,0.8231,0.9217,0.9627,1.1135,0.0,1.2925,1.4201,1.5411,1.5592,0.0,0.0,0.0,2.1939,2.1217,2.1467,2.1377,0.0,2.097,2.0681,2.0841,2.2049,2.008,1.9025,2.0241,1.9327,1.823,1.7388,1.7312,1.7028,1.6197,1.4884,1.3995,1.3979,1.264,1.1803,1.1748,1.1674,1.1674,1.1762,1.1701,1.1536,1.1543,0.9189,0.8464,0.9356,1.0925,1.164,1.1502,0.8371,0.429,0.0,0.0,0.0,0.0,0.0,0.0,0.0,0.0,0.0,0.0,0.0,0.0,0.6302,0.6451,0.0,0.0,0.0,0.0,0.6695,0.6681,0.6695,0.6749,0.0,0.0,0.0,0.0,0.0,0.0,0.0,0.6675,0.6749,0.6898,0.6932,0.7075,0.7346,0.7631,0.7706,0.7563,0.7706,0.7712,0.7691,0.7396,0.7302,0.7221,0.721,0.7526,0.7964,0.7188,0.6853,0.6739,0.6739,0.6739,0.6739,0.6739,0.0,0.0,0.0,0.0,0.0,0.0,0.0,0.0,0.6999,0.7353,0.7516,0.7258,0.8214,0.9485,0.9797,0.0,0.0,1.3015,1.2879,0.0,1.4272,1.8139,2.1841,2.3236,0.0,2.0451,2.0897,1.9284,1.789,1.809,1.8291,1.8421,1.8572,1.825,1.8089,1.824,1.8069,1.7227,1.5252,1.5084,1.4365,1.2429,1.2257,1.2189,1.2047,1.1898,1.1755,1.1626,1.1626,1.1482,1.1044,1.1365,1.1536,1.1556,1.1569,0.9351,0.538,0.895,1.0506,1.0191,0.31,0.0,0.0,0.0,0.0,0.0,0.0,0.0,0.0,0.0,0.0,0.0,0.0,0.0,0.6302,0.6451,0.0,0.0,0.0,0.0,0.0,0.6539,0.0,0.0,0.0,0.0,0.0,0.0,0.0,0.0,0.0,0.6458,0.6586,0.6742,0.6973,0.7122,0.719,0.7387,0.7421,0.7175,0.7421,0.7475,0.7448,0.5385,0.4435,0.4443,0.4475,0.4547,0.4687,0.4917,0.4789,0.4376,0.4376,0.4376,0.4376,0.4376,0.4376,0.0,0.0,0.0,0.0,0.0,0.0,0.0,0.6548,0.7141,0.7222,0.7468,0.7956,0.8405,0.8692,0.9642,0.0,0.0,1.0921,1.265,1.5525,1.6911,1.8031,1.8845,1.8545,1.8404,1.8999,1.8761,1.8441,1.8491,1.718,1.6751,1.8421,1.5725,1.4286,1.5763,1.4453,1.3327,1.2849,1.2878,1.2585,1.2115,1.1999,1.1918,1.1884,1.1742,1.166,1.1647,1.1538,1.0173,0.701,1.0125,1.1537,1.1543,1.1538,0.7993,0.1255,0.2152,0.2455,0.2429,0.0698,0.0,0.0,0.0,0.0,0.0,0.0,0.0,0.0,0.0,0.0,0.0,0.0,0.0,0.0,0.0,0.0,0.0,0.0,0.0,0.0,0.0,0.0,0.0,0.0,0.0,0.0,0.0,0.0,0.0,0.0,0.0,0.6471,0.6695,0.7054,0.719,0.7142,0.7285,0.6744,0.5468,0.6687,0.7228,0.7228,0.5869,0.4032,0.188,0.1832,0.1918,0.1882,0.22,0.2192,0.1878,0.1878,0.1878,0.1878,0.1878,0.1878,0.1878,0.0,0.0,0.0,0.0,0.0,0.0,0.0,0.0,0.5445,0.5629,0.675,0.7916,0.8309,0.0,0.0,0.914,0.0,1.1673,1.3308,1.3891,1.4284,1.461,1.5713,1.6499,1.688,1.625,1.553,1.5445,1.4533,1.4231,1.5278,1.3567,1.2627,1.3656,1.2849,1.2033,1.1959,1.202,1.2033,1.1959,1.183,1.1894,1.1894,1.1701,1.1598,1.1605,1.1543,1.0652,0.8651,0.6906,0.6041,0.6041,0.6089,0.3944,0.0,0.0,0.0,0.0,0.0,0.0,0.0,0.0,0.0,0.0,0.0,0.0,0.0,0.0,0.0,0.0,0.0,0.0,0.0,0.0,0.0,0.0,0.0,0.0,0.0,0.0,0.0,0.0,0.0,0.0,0.0,0.0,0.0,0.0,0.0,0.0,0.0,0.6688,0.7082,0.7279,0.7132,0.7231,0.6329,0.4165,0.6151,0.7078,0.7125,0.6292,0.3817,0.0,0.0,0.0,0.0,0.0,0.0,0.0,0.0,0.0,0.0,0.0,0.0,0.0,0.0,0.0,0.0,0.0,0.0,0.0,0.0,0.0,0.2989,0.2976,0.5139,0.768,0.8004,0.0,0.9003,0.9469,0.9978,0.0,1.0534,1.0934,1.1375,1.1721,1.3326,1.4687,1.4572,1.3349,1.221,1.2081,1.206,1.206,1.206,1.204,1.202,1.202,1.1999,1.1938,1.1809,1.1918,1.1925,1.1775,1.1825,1.1613,1.0849,1.0645,1.0961,1.1545,1.1552,1.0404,0.7706,0.1393,-0.181,-0.181,-0.1252,-0.0975,-0.0977,-0.0964,-0.0548,0.0,0.0,0.0,0.0,0.0,0.0,0.0,0.0,0.0,0.0,0.0,0.0,0.0,0.0,0.0,0.0,0.0,0.0,0.0,0.0,0.0,0.0,0.0,0.6338,0.6345,0.0,0.6288,0.6295,0.6315,0.6302,0.6288,0.6288,0.0,0.0,0.6695,0.6806,0.6987,0.7125,0.7149,0.6986,0.6641,0.6903,0.7106,0.0,0.0,0.0,0.0,0.0,0.0,0.0,0.0,0.0,0.0,0.0,0.0,0.0,0.0,0.0,0.0,0.0,0.0,0.0,0.0,0.0,0.0,0.0,0.0,0.0452,0.0448,0.3648,0.7192,0.729,0.0,0.9615,0.0,0.9673,0.993,0.0,0.0,1.0968,0.0,1.1921,1.236,1.248,1.2223,1.2088,1.2067,1.206,1.206,1.206,1.1945,1.1864,1.1864,1.1755,1.1674,1.1647,1.1687,1.1647,1.164,1.164,1.0137,0.6741,0.6577,0.8124,1.144,1.16,0.5374,-0.7612,-0.8758,-0.925,-0.9244,-0.6084,-0.4614,-0.4667,-0.4738,-0.2982,0.0,0.0,0.0,0.0,0.0,0.0,0.0,0.0,0.0,0.0,0.0,0.0,0.0,0.0,0.0,0.0,0.0,0.0,0.0,0.0,0.0,0.0,0.0,0.0,0.6338,0.6338,0.6338,0.6338,0.6338,0.6338,0.6338,0.6338,0.6482,0.6606,0.6675,0.684,0.6979,0.7069,0.7062,0.7125,0.7069,0.4472,0.0,0.0,0.0985,0.0,0.0,0.0,0.0,0.0,0.0,0.0,0.0,0.0,0.0,0.0,0.0,0.0,0.0,0.0,0.0,0.0,0.0,0.0,0.0,0.0,0.0,0.0,0.0,0.1461,0.3399,0.4777,0.7188,0.9327,0.0,0.9503,0.9605,1.0493,1.0582,1.0643,1.124,1.1409,1.1531,1.1769,1.1877,1.1904,1.1823,1.1816,1.1816,1.1816,1.1755,1.1681,1.1592,1.1531,1.1463,1.1402,1.1402,1.0517,0.8459,1.0417,1.0796,0.917,0.4947,0.3283,0.5077,0.1225,-0.4075,-1.0677,-1.0745,-1.0699,-1.0685,-0.9163,-0.837,-0.8418,-0.8365,-0.6472,-0.2978,-0.3076,-0.2912,-0.2757,-0.2741,-0.2732,-0.2725,-0.2709,-0.1557,0.0,0.0,0.0,-0.0521,0.0,0.0,0.0,0.0,0.0,0.0,0.0,0.0,0.0,0.0,0.0,0.6338,0.6338,0.0,0.0,0.0,0.6338,0.6261,0.6268,0.6462,0.6304,0.5761,0.6463,0.699,0.7127,0.593,0.5309,0.5293,0.0,0.0,0.0,0.0,0.0,0.0,0.0,0.0,0.0,0.0,0.0,0.0,0.0,0.0,0.0,0.0,0.0,0.0,0.0,0.0,0.0,0.0,0.0,0.0,0.0,0.0,0.0,0.0,0.0,0.0365,0.0,0.0,0.6917,0.828,0.8983,0.9474,0.0,0.0,1.0417,1.1114,1.1159,1.1289,1.1423,1.1572,1.1626,1.1518,1.1504,1.1504,1.1504,1.1504,1.1463,1.1362,1.1348,1.1314,1.1233,1.1372,1.0228,0.7521,0.8168,0.8681,0.8649,0.3113,-0.0808,-0.2694,-0.7848,-1.0725,-1.0705,-1.0692,-1.0672,-1.0652,-1.0652,-1.0652,-1.0652,-1.0652,-0.9262,-0.6664,-0.6647,-0.6456,-0.6235,-0.6215,-0.6178,-0.6133,-0.6112,-0.4616,-0.2334,-0.1539,-0.1284,-0.1938,0.0,0.0,0.0,0.0,0.0,0.0,0.0,0.0,0.0,0.0,0.0,0.6338,0.6338,0.6338,0.6338,0.6338,0.6338,0.6268,0.6274,0.6288,0.5387,0.3396,0.5224,0.0,0.7127,0.2662,0.0333,0.0,0.0,0.0,0.0,0.0,0.0,0.0,0.0,0.0,0.0,0.0,0.0,0.0,0.0,0.0,0.0,0.0,0.0,0.0,0.0,0.0,0.0,0.0,0.0,0.0,0.0,0.0,0.0,0.0,0.0,0.0,0.0,0.0294,0.0,0.4404,0.7481,0.9637,0.0,0.0,1.0093,1.0962,1.1162,1.1142,1.1166,1.1269,1.1192,1.1185,1.1185,1.1185,1.1185,1.1185,1.1199,1.1358,1.1365,1.1233,1.1246,1.142,1.1525,1.1372,0.4678,0.0546,0.0539,0.0269,-0.31,-0.9912,-1.0443,-1.0705,-1.0705,-1.0652,-1.0744,-1.0724,-1.0724,-1.0724,-1.0724,-1.0724,-1.0511,-1.0234,-1.0148,-1.0022,-1.0009,-0.962,-0.951,-0.96,-0.9601,-0.9386,-0.886,-0.5788,-0.4614,-0.4697,0.0,0.0,0.0,0.0,0.0,0.0,0.0,0.0,0.0,0.0,0.0,0.0,0.0,0.6274,0.6274,0.6281,0.6281,0.6288,0.6288,0.6302,0.5937,0.5179,0.3263,0.2307,0.2545,0.0882,0.0,0.0,0.0,0.0,0.0,0.0,0.0,0.0,0.0,0.0,0.0,0.0,0.0,0.0,0.0,0.0,0.0,0.0,0.0,0.0,0.0,0.0,0.0,0.0,0.0,0.0,0.0,0.0,0.0,0.0,0.0,0.0,0.0,0.0,0.0,0.1448,0.2677,0.402,0.5926,0.6226,0.635,0.725,0.7456,0.7418,0.7449,0.9492,1.1214,1.1214,1.1214,1.118,1.1219,1.1205,1.1205,1.1219,0.9137,0.8563,1.0712,1.0994,0.9157,0.4499,0.1558,0.0,0.0,0.0,-0.3089,-0.9914,-1.0163,-1.0136,-1.037,-1.0337,-1.0446,-1.0439,-1.0439,-1.0439,-1.0439,-1.0439,-1.0351,-1.0202,-1.0168,-1.0127,-1.0073,-1.0019,-0.9848,-0.9794,-0.9747,-0.9828,-0.9699,-0.8464,-0.8088,-0.8002,0.0,0.0,0.0,0.0,0.0,0.6338,0.6338,0.6268,0.6268,0.6268,0.0,0.0,0.0,0.0,0.5246,0.5257,0.5257,0.5497,0.6224,0.6322,0.5689,0.4252,0.1492,0.0,0.0,0.0,0.0,0.0,0.0,0.0,0.0,0.0,-0.0749,-0.2144,-0.2074,-0.1348,0.0,0.0,0.0,0.0,0.0,0.0,0.0,0.0,0.0,0.0,0.0,0.0,0.0,0.0,0.0,0.0,0.0,0.0,0.0,0.0,0.0,0.0,-0.1067,0.0,0.0,0.0,0.0,0.0586,0.2717,0.2957,0.2826,0.3426,0.4603,0.543,0.535,0.7508,0.9256,0.9285,0.9285,0.9256,0.93,0.9288,0.9701,1.0927,0.8898,0.7403,0.7089,0.7084,0.5089,0.0388,0.0,0.0,0.0,0.0,-0.253,-0.8028,-0.9196,-0.9954,-1.0176,-1.0283,-1.0283,-1.0283,-1.0283,-1.0283,-1.0283,-1.0283,-1.0195,-1.0046,-1.0046,-1.0019,-0.9971,-0.9971,-0.991,-0.9822,-0.9822,-0.9767,-0.9854,-0.9761,-0.9794,-0.9751,0.0,0.0,0.6338,0.6338,0.6338,0.6338,0.6261,0.6274,0.6274,0.6197,0.0,0.0,0.0,0.0,0.0,0.3044,0.3044,0.3917,0.6002,0.6087,0.4252,0.0157,0.0,0.0,0.0,0.0,0.0,0.0,0.0,0.0,0.0,0.0,-0.224,-0.6221,-0.6293,-0.3976,-0.0212,0.0,-0.0106,-0.0106,0.0,0.0,0.0,0.0,0.0,0.0,0.0,0.0,0.0,0.0,0.0,0.0,0.0,0.0,0.0,0.0,0.0,0.0,0.0,0.0,0.0,0.0,-0.0091,-0.0093,-0.0,0.0,0.0,0.0,0.2805,0.5215,0.5293,0.5189,0.5206,0.5252,0.5262,0.5262,0.5259,0.5259,0.6558,0.998,1.0378,0.7632,0.0645,0.0,0.0,0.0,0.0,-0.0129,-0.0258,-0.0258,-0.1801,-0.4999,-0.8108,-0.9921,-1.027,-1.027,-1.027,-1.027,-1.027,-1.027,-1.027,-1.027,-1.0181,-1.0039,-1.0039,-0.9958,-0.9822,-0.9822,-0.9822,-0.9822,-0.9822,-0.9822,-0.9822,-0.9822,-0.9822,-0.9822,0.0,0.6338,0.6268,0.6274,0.6274,0.6274,0.6288,0.6288,0.573,0.0,0.0,0.0,0.0,0.0,0.0862,0.0862,0.0862,0.1097,0.1728,0.1728,0.1257,0.0079,0.0,0.0,0.0,0.0,0.0,-0.0,0.0,0.0,0.0,0.0,0.0,0.0,-0.5563,-0.565,-0.4458,-0.3653,0.0,-0.2469,-0.0744,0.0,0.0,0.0,0.0,0.0,0.0,0.0,0.0,0.0,-0.2267,-0.5228,0.0,0.0,0.0,0.0,0.0,0.0,-0.5415,0.0,0.0,0.0,0.0,0.0,-0.0364,0.0,0.0,0.0,0.0783,0.1533,0.1438,0.1469,0.1493,0.1497,0.1511,0.1516,0.15,0.1497,0.188,0.2791,0.2921,0.216,0.0254,0.0,0.0,0.0,0.0,-0.2077,-0.6777,-0.7027,-0.7505,-0.847,-0.9354,-0.9848,-0.9951,-0.9951,-0.9951,-0.9951,-0.9951,-0.9951,-0.9951,-0.9951,-0.9924,-0.9883,-0.9883,-0.9863,-0.9822,-0.9822,-0.9822,-0.9822,-0.9822,-0.9822,-0.9822,-0.9822,-0.9822,-0.9822,0.6274,0.6274,0.6281,0.6281,0.5562,0.4929,0.4935,0.5743,0.5827,0.0,0.0,0.0,0.0,0.0,0.0,0.0,0.0,0.0,0.0,0.0,0.0,0.0,0.0,-0.0864,-0.2594,-0.2619,-0.222,-0.1331,0.0,0.0,0.0,0.0,0.0,0.0,-0.5716,-0.6329,0.0,0.0,0.0,0.0,-0.3683,0.0,0.0,0.0,0.0,0.0,0.0,0.0,0.0,0.0,-0.3168,0.0,0.0,0.0,0.0,0.0,0.0,0.0,0.0,0.0,0.0,0.0,0.0,0.0,-0.3273,-0.1421,-0.0709,-0.3205,-0.3755,-0.3246,-0.1729,-0.1647,-0.1796,-0.2035,-0.2061,-0.1595,-0.0247,0.0,0.0,0.0,-0.2376,-0.413,-0.413,-0.2874,-0.199,-0.2096,-0.206,-0.3749,-0.7547,-0.9051,-0.9781,-0.9856,-0.9856,-0.9842,-0.9822,-0.9822,-0.9822,-0.9822,-0.9822,-0.9822,-0.9822,-0.9822,-0.9822,-0.9822,-0.9822,-0.9822,-0.9822,-0.9822,-0.9822,-0.9822,-0.9822,-0.9822,-0.9822,-0.9822,-0.9822,-0.9822,0.0,0.5977,0.6054,0.6217,0.4701,0.3281,0.2813,0.4399,0.5605,0.0,0.2358,0.0,0.0,0.0,0.0,0.0,-0.0392,-0.0707,-0.0707,-0.0471,-0.0314,-0.0314,-0.0314,-0.212,-0.5846,-0.6211,-0.5388,-0.3437,0.0,0.0,0.0,0.0,0.0,0.0,-0.6274,-0.6342,-0.6478,0.0,0.0,-0.8628,-0.768,-0.453,0.0,0.0,-0.0963,-0.0959,-0.0664,-0.0554,-0.0547,-0.0555,-0.3532,0.0,0.0,0.0,0.0,0.0,-0.662,0.0,0.0,0.0,0.0,0.0,-0.6336,0.0,-0.6887,-0.3635,-0.1995,-0.7178,-0.858,-0.7806,-0.4679,-0.427,-0.4548,-0.5119,-0.5303,-0.4242,-0.0855,-0.0493,-0.0493,-0.0491,-0.5671,-0.9432,-0.9814,-0.7158,-0.541,-0.541,-0.541,-0.541,-0.541,-0.8267,-0.9761,-0.9849,-0.9849,-0.9842,-0.9822,-0.9822,-0.9822,-0.9822,-0.9822,-0.9822,-0.9822,-0.9822,-0.9822,-0.9822,-0.9822,-0.9822,-0.9822,-0.9822,-0.9822,-0.9822,-0.9822,-0.9822,-0.9822,-0.9937,-1.0058,-1.0058,0.3752,0.3752,0.4307,0.5996,0.5924,0.4565,0.1097,0.0942,0.1257,0.1257,0.0549,0.0,0.0,0.0,0.0,0.0,-0.3146,-0.505,-0.505,-0.3448,-0.2501,-0.2501,-0.2501,-0.2891,-0.3679,-0.5448,-0.6087,-0.5652,0.0,0.0,0.0,0.0,0.0,0.0,-0.6268,-0.6281,-0.6322,0.0,0.0,-0.7547,-0.8206,0.0,-0.3202,-0.6097,-0.7197,-0.6821,-0.4491,-0.3616,-0.363,-0.3642,-0.5638,-0.8014,0.0,0.0,0.0,-0.6844,0.0,0.0,0.0,0.0,0.0,0.0,0.0,0.0,-0.6466,-0.4957,-0.3695,-0.413,-0.6338,-0.7999,-0.7241,-0.6744,-0.6603,-0.7045,-0.7695,-0.6995,-0.3648,-0.363,-0.3899,-0.392,-0.509,-0.6908,-0.9536,-0.9277,-0.8897,-0.8897,-0.8897,-0.8891,-0.8867,-0.949,-0.9856,-0.9829,-0.9829,-0.9829,-0.9822,-0.9822,-0.9822,-0.9822,-0.9822,-0.9822,-0.9822,-0.9822,-0.9822,-0.9822,-0.9822,-0.9822,-0.9822,-0.9822,-0.9822,-0.9822,-0.9822,-0.9822,-0.9943,-1.1261,-1.1736,-1.1976,0.1566,0.1566,0.1881,0.2986,0.3146,0.2437,0.0314,0.0,0.0,0.0,0.0,0.0,0.0,0.0,0.0,0.0,0.0,0.0,0.0,-0.5263,-0.4701,-0.4701,-0.4701,-0.4696,-0.4696,-0.5724,-0.6281,-0.6281,0.0,0.0,0.0,0.0,0.0,0.0,0.0,0.0,0.0,0.0,-0.6871,-0.7217,-0.8185,0.0,-0.4986,-0.6212,-0.7656,-0.8714,-0.721,-0.6654,-0.666,-0.6706,-0.7399,0.0,-0.7972,-0.7685,-0.7326,0.0,-0.6878,-0.6715,0.0,0.0,0.0,-0.6817,0.0,0.0,0.0,-0.6894,-0.6554,-0.7285,-0.8606,-0.9562,-0.934,-0.8637,-0.8151,-0.8357,-0.8364,-0.7842,-0.6177,-0.647,-0.6985,-0.735,-0.7317,-0.8,-0.9632,-0.9747,-0.9741,-0.9741,-0.9741,-0.9856,-0.9842,-0.9836,-0.9836,-0.9822,-0.9822,-0.9822,-0.9822,-0.9822,-0.9822,-0.9822,-0.9822,-0.9822,-0.9822,-0.9822,-0.9822,-0.9822,-0.9822,-0.9822,-0.9822,-0.9822,-1.0301,-1.0899,-1.0058,-1.0301,-1.114,-1.1856,-1.2689,-1.3526,0.0,0.0,0.0,0.0,0.0,0.0,0.0,0.0,0.0,0.0,0.0,0.0,0.0,0.0,0.0,0.0,0.0,0.0,0.0,0.0,-0.6349,-0.6295,-0.6288,-0.6288,-0.6274,-0.6274,-0.6268,-0.6338,0.0,0.0,0.0,0.0,0.0,0.0,0.0,0.0,0.0,0.0,0.0,-0.7285,0.0,-0.7533,-0.6327,-0.5612,-0.6805,-0.8809,-0.8863,-0.8883,-0.8856,-0.8784,-0.8628,-0.8282,-0.8229,-0.7858,0.0,0.0,0.0,0.0,0.0,0.0,0.0,0.0,0.0,-0.7476,0.0,0.0,0.0,-1.0916,-1.1056,-1.0771,-1.0465,-0.9723,-0.9232,-0.9232,-0.8604,-0.8272,-0.8525,-0.8648,-0.8928,-0.9439,-0.9591,-0.9598,-0.9632,-0.9646,-0.9686,-0.9774,-0.9781,-0.9795,-0.9822,-0.9822,-0.9822,-0.9822,-0.9822,-0.9822,-0.9822,-0.9822,-0.9822,-0.9822,-0.9822,-0.9822,-0.9822,-0.9822,-0.9822,-0.9822,-0.9822,-0.9822,-0.9822,-1.0179,-1.102,-1.2097,-1.0778,-1.1261,-1.2689,-1.3048,-1.4004,-1.5074,0.0,0.0,0.0,0.0,0.0,0.0,0.0,0.0,0.0,0.0,0.0,0.0,0.0,0.0,0.0,0.0,0.0,0.0,-0.6337,0.0,0.0,-0.6274,-0.6268,-0.6268,-0.6261,-0.6261,-0.6261,-0.6338,0.0,0.0,0.0,0.0,0.0,0.0,-0.6338,0.0,0.0,0.0,-0.7265,0.0,-0.8194,-0.8309,0.0,-0.8317,-0.8362,-0.8388,-0.8742,-0.8947,-0.8899,0.0,-0.8506,-0.8438,0.0,-0.7855,-0.757,-0.757,0.0,0.0,0.0,0.0,0.0,0.0,-0.9481,0.0,0.0,0.0,-0.9727,-0.9564,0.0,-0.9717,-0.9607,0.0,0.0,-0.9606,-0.9017,-0.9033,-1.0278,-0.9127,-0.816,-0.8438,-0.8567,-0.8689,-0.8825,-0.896,-0.9205,-0.9605,-0.9632,-0.9686,-0.9815,-0.9822,-0.9822,-0.9822,-0.9822,-0.9822,-0.9822,-0.9822,-0.9822,-0.9822,-0.9822,-0.9822,-0.9822,-0.9822,-0.9822,-0.9822,-0.9822,-0.9822,-0.9943,-1.1382,-1.2097,-1.2217,-1.1976,-1.2928,-1.448,-1.5902,-1.6609,-1.6938,0.0,0.0,0.0,0.0,0.0,0.0,0.0,0.0,-0.0877,0.0,0.0,0.0,0.0,0.0,0.0,0.0,0.0,-0.7039,0.0,0.0,0.0,-0.6519,-0.6349,-0.6563,-0.7173,-0.7173,-0.748,-0.8008,-0.8008,0.0,0.0,0.0,0.0,0.0,-0.7173,0.0,-0.6844,0.0,-0.7366,0.0,0.0,-0.816,0.0,-0.8723,-0.8763,-0.8642,-0.8696,-0.8784,-0.8866,0.0,-0.8459,0.0,0.0,0.0,0.0,-0.7855,0.0,0.0,0.0,0.0,0.0,0.0,0.0,0.0,-1.1209,0.0,-1.1032,0.0,0.0,0.0,0.0,0.0,0.0,0.0,-0.9774,-0.9452,-1.0057,-0.9446,-0.9376,-1.0323,-0.9272,-0.8574,-0.8818,-0.9277,-0.9472,-0.9191,-0.9867,-1.0055,-0.9429,-0.968,-0.9822,-0.9822,-0.9822,-0.9822,-0.9822,-0.9822,-0.9822,-0.9822,-0.9822,-0.9822,-0.9822,-0.9822,-0.9822,-0.9822,-0.9822,-1.0251,-1.0994,-1.17,-1.2922,-1.4436,-1.4436,-1.5067,-1.602,-1.6727,-1.756,-1.8506,0.0,0.0,0.0,0.0,0.0,0.0,0.0,-0.1208,0.0,0.0,0.0,0.0,-0.4775,-0.6062,0.0,0.0,-0.7431,-0.7231,0.0,0.0,-0.6824,0.0,0.0,0.0,0.0,-0.7837,-0.8313,-0.9301,-0.9301,0.0,0.0,0.0,0.0,0.0,0.0,-0.7589,-0.7218,0.0,-0.7502,-0.7896,-0.8174,-0.8289,-0.8323,-0.8676,-0.8866,-0.8906,-0.8689,-0.875,-0.8859,-0.8336,-0.8452,0.0,-0.8296,-0.8106,-0.8058,0.0,0.0,0.0,-0.9681,0.0,0.0,0.0,0.0,0.0,0.0,0.0,0.0,0.0,0.0,0.0,0.0,0.0,0.0,0.0,0.0,-1.0251,-1.0509,-1.0069,-1.0133,-1.1405,-1.0222,-0.9389,-0.9489,-1.019,-1.0223,-0.9262,-1.0123,-1.0262,-0.9202,-0.9517,-0.9761,-0.9761,-0.9802,-0.9822,-0.9822,-0.9822,-0.9802,-0.9761,-0.9761,-0.9741,-0.97,-0.97,-0.9933,-1.0292,-1.0292,-1.1043,-1.232,-1.2785,-1.4229,-1.6304,-1.6654,-1.7159,-1.7677,-1.7603,-1.8339,-1.9345,0.0,0.0,0.0,0.0,0.0,0.0,0.0,0.0,0.0,0.0,0.0,0.0,0.0,0.0,0.0,0.0,0.0,-0.7724,-0.7691,0.0,-0.7129,0.0,0.0,-0.6863,0.0,-0.7964,-0.8313,-0.9301,-0.9301,0.0,0.0,0.0,0.0,0.0,0.0,-0.7911,-0.8139,-0.7786,-0.776,-0.8085,-0.8676,-0.8913,-0.8879,0.0,-0.8682,-0.894,-0.8927,0.0,0.0,-0.8574,-0.8479,0.0,0.0,0.0,0.0,0.0,0.0,0.0,0.0,0.0,0.0,-1.2718,0.0,0.0,0.0,0.0,-1.3895,0.0,0.0,0.0,0.0,0.0,0.0,0.0,0.0,0.0,0.0,-1.101,-0.9883,-1.0366,-1.1161,-1.1462,-1.1076,-1.1527,-1.1274,-1.0087,-1.0217,-0.9962,-0.894,-0.9374,-0.9618,-0.9618,-0.9747,-0.9822,-0.9822,-0.9822,-0.9754,-0.9618,-0.9618,-0.9537,-0.9395,-0.9395,-1.0192,-1.1446,-1.1446,-1.2232,-1.3818,-1.5299,-1.6124,-1.6677,-1.821,-1.8977,-1.9332,-1.8924,-1.9118,-1.9292,0.0,0.0,0.0,0.0,0.0,0.0,0.0,-0.3311,0.0,0.0,0.0,0.0,0.0,-0.7328,-0.77,0.0,0.0,-0.811,-0.776,-0.7556,0.0,0.0,0.0,-0.7545,0.0,-0.9086,-0.9818,-1.1329,-1.1329,0.0,0.0,0.0,0.0,0.0,0.0,-0.9223,0.0,0.0,0.0,0.0,0.0,-0.8635,-0.8648,0.0,-0.8852,-0.894,-0.894,-0.894,0.0,-0.8587,-0.8615,-0.875,-0.8547,-0.8411,-0.8391,-0.8696,-0.9324,-1.0054,0.0,0.0,-1.3291,-1.4469,0.0,0.0,0.0,0.0,0.0,0.0,0.0,0.0,0.0,0.0,0.0,0.0,0.0,0.0,0.0,-1.2196,-1.1775,-1.1958,-1.1931,-1.1456,-1.0563,-1.1367,-1.1373,-1.025,-1.1199,0.0,-1.019,-1.0246,-1.0273,-1.0273,-0.9849,-0.9632,-0.953,-0.9632,-0.9605,-0.9456,-0.9456,-0.9435,-0.9381,-0.9381,-1.0178,-1.1536,-1.1536,-1.2824,-1.5044,-1.5609,-1.6344,-1.7252,-1.7807,-1.8223,-1.8531,-1.8811,-1.8985,-1.9011,0.0,0.0,0.0,0.0,0.0,0.0,0.0,0.0,0.0,0.0,-0.7127,0.0,-0.695,0.0,-0.7814,0.0,-0.8282,-0.8187,-0.8058,-0.7665,0.0,-0.7746,-0.7312,0.0,0.0,-0.9615,-1.053,-1.222,-1.228,-1.2412,0.0,0.0,0.0,0.0,0.0,-0.9914,-0.8773,-0.9033,-0.871,0.0,0.0,-0.8547,0.0,0.0,-0.8845,-0.894,0.0,-0.894,-0.8906,-0.871,-0.8777,-0.8906,-0.871,-0.8642,-0.8682,-0.8879,-0.9305,-0.9906,-1.0882,-1.2386,0.0,-1.5304,-1.5589,0.0,-1.6209,0.0,-1.5164,0.0,0.0,0.0,0.0,0.0,0.0,0.0,0.0,0.0,0.0,-1.3112,-1.3248,-1.3621,-1.3107,-1.2338,-1.1394,-1.2171,-1.2087,-1.0795,0.0,0.0,0.0,-1.1042,-1.1254,-1.1324,-1.1208,-1.0973,-1.0978,-1.0973,-1.0717,-1.0089,-1.0089,-1.006,-1.0008,-1.0008,-1.1013,-1.2907,-1.2907,-1.4161,-1.6331,-1.6331,-1.694,-1.7742,-1.7742,-1.7929,-1.8237,-1.8517,-1.8611,-1.8584,0.0,-0.0157,0.0,0.0,-0.3706,0.0,0.0,0.0,-0.7336,0.0,-0.6877,-0.6149,-0.6152,-0.7346,-0.8214,-0.8459,-0.8092,-0.8018,-0.8425,-0.7651,0.0,0.0,-0.7366,-0.7613,-0.9064,0.0,0.0,0.0,-1.226,0.0,0.0,0.0,0.0,0.0,-1.1046,0.0,-0.9306,-0.9226,-0.8528,-0.7678,-0.8235,-0.8642,-0.8886,-0.8594,-0.8669,-0.9044,-0.894,-0.894,-0.894,-0.894,-0.894,-0.894,-0.894,-0.894,-0.894,-0.894,-0.9042,-0.949,-1.106,-1.2908,-1.4573,-1.5344,-1.6763,0.0,0.0,0.0,-1.6633,0.0,0.0,0.0,0.0,0.0,0.0,0.0,0.0,0.0,0.0,0.0,-1.4099,-1.5084,-1.4545,-1.3857,-1.3306,-1.3681,-1.3348,0.0,0.0,0.0,0.0,-1.1745,-1.2339,-1.271,-1.3187,-1.3625,-1.3665,-1.3532,-1.2758,-1.1243,-1.1243,-1.1159,-1.1,-1.1109,-1.2615,-1.5304,-1.5198,-1.6062,-1.7582,-1.7477,-1.7649,-1.8023,-1.7996,-1.8183,-1.841,-1.8143,-1.8036,-1.8023,0.0,-0.2515,-0.4653,0.0,-0.6263,-0.7447,0.0,0.0,0.0,0.0,-0.7515,-0.8659,-0.8452,-0.8863,-0.8917,-0.8526,-0.8377,0.0,0.0,0.0,0.0,-0.8194,-0.7916,-0.8175,-0.908,-1.0148,0.0,-1.2077,0.0,0.0,-1.2929,0.0,0.0,0.0,0.0,0.0,-0.9296,-0.9856,-0.928,-0.8099,-0.814,-0.833,-0.8587,0.0,-0.9304,-1.0351,-0.9265,-0.894,-0.894,-0.894,-0.894,-0.894,-0.894,-0.894,-0.894,-0.894,-0.9042,-0.9511,-1.1216,-1.3021,-1.4729,-1.6218,-1.7328,-1.7903,0.0,0.0,0.0,0.0,0.0,0.0,0.0,0.0,0.0,0.0,0.0,0.0,0.0,0.0,0.0,-1.5155,-1.4405,-1.3737,-1.3577,-1.3327,-1.2855,0.0,0.0,0.0,-1.3212,-1.2848,-1.3113,-1.4004,-1.2067,-1.1769,-1.3426,-1.1109,-1.0327,-1.1177,-1.1177,-1.061,-0.9478,-1.0562,-1.2073,-1.3804,-1.2724,-1.4234,-1.7477,-1.6393,-1.6655,-1.7702,-1.7689,-1.7742,-1.7836,-1.7996,-1.7903,-1.7702,-0.2777,-0.3929,0.0,-0.6146,0.0,0.0,-0.7034,0.0,0.0,-0.6282,-0.8112,0.0,-0.9265,-0.9365,-0.9354,-0.8913,-0.8513,0.0,-0.8208,0.0,0.0,-0.8248,-0.8058,-0.8118,-0.8442,-0.9621,0.0,-1.163,0.0,0.0,-1.2933,0.0,0.0,0.0,0.0,-1.118,-0.9981,-1.0575,-1.0044,-0.8976,-0.9142,-0.9027,0.0,-0.8533,-0.9617,-1.1,-1.0131,-1.0241,-1.0781,-1.0781,-1.0781,-1.0672,-1.0021,-1.0351,-1.0672,-1.0021,-1.0469,-1.1405,-1.3077,-1.4479,-1.5665,-1.7207,-1.8107,-1.8477,-1.7903,-1.7849,-1.7702,0.0,-1.7061,-1.7114,0.0,0.0,0.0,0.0,0.0,0.0,0.0,0.0,0.0,0.0,-1.5508,-1.4919,-1.4974,-1.3535,-1.2478,-1.2318,0.0,0.0,0.0,-1.3837,-1.4112,-1.4481,-1.3025,-1.271,-1.3615,-1.1521,-1.0573,-1.0971,-1.0971,-1.0517,-0.9919,-1.0672,-1.1864,-1.3264,-1.2398,-1.348,-1.5743,-1.553,-1.5849,-1.6698,-1.7226,-1.7475,-1.7582,-1.7635,-1.7622,-1.7582,-0.6304,0.0,0.0,0.0,0.0,0.0,0.0,-0.7305,0.0,-0.8109,0.0,-0.9277,-0.9265,-0.9272,-0.9367,-0.9327,0.0,-0.8255,-0.8628,-0.7902,-0.7699,-0.8248,-0.7997,-0.778,-0.7658,-0.8871,-1.0084,0.0,0.0,0.0,0.0,0.0,0.0,0.0,0.0,0.0,0.0,-1.1131,-1.0839,-1.0163,-1.0767,-1.0322,-0.9392,-0.9154,-1.0182,-1.1647,-1.1647,-1.2398,-1.3264,-1.3264,-1.3264,-1.3048,-1.1755,-1.2299,-1.3048,-1.1755,-1.2421,-1.3789,-1.5505,-1.6186,-1.6834,-1.8302,-1.8958,-1.9092,-1.8263,-1.849,-1.8691,-1.809,-1.8009,-1.7876,-1.7315,0.0,0.0,0.0,0.0,0.0,0.0,0.0,0.0,0.0,0.0,0.0,-1.6278,-1.3966,-1.2439,-1.2439,-1.2798,0.0,0.0,0.0,-1.4874,-1.4379,-1.457,-1.4418,-1.394,-1.2636,-1.1548,-1.0732,-1.0621,-1.067,-1.0816,-1.0925,-1.1801,-1.3009,-1.3009,-1.3234,-1.3696,-1.4843,-1.5459,-1.5716,-1.6769,-1.7248,-1.7435,-1.7181,-1.7248,-1.7475,0.0,0.0,0.0,0.0,0.0,-0.6691,-0.5636,-0.7283,-0.8626,-0.8739,-0.9272,-0.9618,-0.9408,-0.9381,-0.9279,-0.9035,-0.8642,0.0,0.0,0.0,0.0,-0.8262,-0.8099,-0.7991,-0.7963,-1.0192,-1.152,0.0,0.0,0.0,0.0,0.0,0.0,0.0,0.0,0.0,-1.1836,-1.1144,0.0,-1.1845,-1.2243,-1.2339,-1.2135,-1.2404,-1.3408,-1.4663,-1.4663,-1.4019,-1.3264,-1.3264,-1.3264,-1.3264,-1.3048,-1.3048,-1.3264,-1.294,-1.3078,-1.3733,-1.5666,-1.6298,-1.6803,-1.8748,-1.9105,-1.8891,-1.8504,-1.849,-1.8397,-1.7782,-1.7862,-1.7929,-1.7569,0.0,0.0,0.0,0.0,0.0,0.0,0.0,0.0,0.0,0.0,-1.6404,-1.4698,-1.3902,-1.3462,-1.3462,-1.3755,-1.3796,-1.3454,0.0,-1.3672,0.0,-1.2286,-1.1949,0.0,0.0,-0.9415,-1.1,-1.0484,-0.9782,-0.8977,-1.0225,-1.0931,-1.1291,-1.1291,-1.2772,-1.5079,-1.5083,-1.5609,-1.6544,-1.6693,-1.682,-1.6847,-1.6807,-1.682,-1.6927,0.0,0.0,0.0,0.0,0.0,0.0,0.0,-0.8202,0.0,-0.8878,-0.9198,-0.9435,-0.9279,-0.9266,-0.9205,-0.9062,-0.8703,-0.852,-0.8615,-0.8255,-0.814,-0.837,-0.816,-0.8259,-0.8756,-1.0184,-1.1394,-1.2455,0.0,0.0,0.0,0.0,0.0,0.0,0.0,-1.2492,0.0,0.0,0.0,-1.3072,-1.381,-1.3688,-1.3077,-1.3291,-1.4126,-1.5411,-1.5411,-1.5423,-1.553,-1.553,-1.553,-1.5423,-1.4663,-1.4877,-1.5446,-1.4819,-1.519,-1.5934,-1.7116,-1.7452,-1.7601,-1.8414,-1.8811,-1.8811,-1.8357,-1.849,-1.8544,-1.7943,-1.7943,-1.8022,-1.7834,-1.7625,0.0,0.0,0.0,0.0,0.0,0.0,-1.8392,0.0,0.0,0.0,0.0,-1.5996,-1.4864,-1.3289,-1.3563,-1.3532,-1.2795,-1.332,-1.3407,0.0,0.0,0.0,-1.1077,0.0,-0.8329,-0.9495,-0.9168,-0.8895,-0.8479,-0.9205,-1.0023,-1.0928,-1.0721,-1.2,-1.4319,-1.4826,-1.5716,-1.6687,-1.654,-1.6567,-1.6687,-1.654,-1.658,-1.674,0.0,-0.6625,0.0,0.0,-0.7563,0.0,-0.8384,-0.9055,-0.9345,-0.9023,-0.9097,-0.9205,-0.9205,-0.9171,-0.913,-0.9062,-0.8764,-0.8615,-0.8696,-0.8343,-0.8194,-0.8336,-0.8449,-0.8796,-0.9554,-1.0412,-1.1582,0.0,0.0,0.0,0.0,0.0,0.0,0.0,0.0,0.0,0.0,0.0,-1.5127,-1.434,-1.5318,-1.507,-1.4158,-1.4158,-1.4832,-1.5849,-1.5849,-1.6605,-1.7582,-1.7582,-1.7582,-1.7371,-1.6274,-1.6605,-1.7411,-1.6535,-1.7054,-1.8009,-1.8317,-1.8397,-1.8357,-1.8183,-1.8437,-1.8611,-1.8156,-1.8357,-1.8504,-1.8036,-1.8104,-1.8171,-1.8184,-1.8468,0.0,0.0,0.0,0.0,0.0,0.0,-1.8689,0.0,0.0,0.0,-1.8199,-1.7199,-1.5515,-1.3055,-1.3414,-1.3301,-1.2136,-1.3106,-1.3092,-1.1792,-1.1625,-1.1023,-0.9836,0.0,-0.843,-0.8528,-0.8393,-0.8392,-0.8391,-0.8695,-0.9518,-1.086,-1.1227,-1.2382,-1.4071,-1.4977,-1.5745,-1.65,-1.6273,-1.6313,-1.65,-1.6339,-1.638,-1.6526,0.0,0.0,0.0,0.0,0.0,0.0,-0.8832,-0.9062,-0.9239,-0.9347,-0.9361,-0.9361,-0.9361,-0.9239,-0.9042,-0.8777,-0.8838,-0.8615,-0.7957,-0.8248,-0.8269,-0.7889,-0.9151,-0.9887,-0.9943,-1.2308,-1.3646,0.0,0.0,-1.3625,0.0,0.0,0.0,0.0,0.0,0.0,0.0,-1.5257,-1.5644,-1.6064,-1.6434,-1.6636,-1.6872,-1.6872,-1.7029,-1.7371,-1.7371,-1.7477,-1.7582,-1.7582,-1.7582,-1.7582,-1.7477,-1.7477,-1.7582,-1.7503,-1.7516,-1.7689,-1.8009,-1.809,-1.8143,-1.8384,-1.829,-1.8116,-1.8063,-1.7876,-1.7689,-1.7635,-1.833,-1.8817,-1.8489,-1.9434,-1.9765,0.0,0.0,0.0,0.0,0.0,-1.6741,-1.7003,0.0,0.0,-1.4831,-1.4621,-1.4224,-1.357,-1.4197,-1.4026,-1.279,-1.2545,-1.2273,-1.1922,-1.1849,-1.1722,-1.1482,-1.0842,-1.0396,-1.0182,-0.9614,-0.8925,-0.8079,-0.926,-1.0138,-1.0871,-1.3324,-1.519,-1.6351,-1.6275,-1.6082,-1.5912,-1.5885,-1.5885,-1.5939,-1.6179,-1.6126,-1.5952,0.0,0.0,0.0,0.0,0.0,0.0,0.0,-0.9137,-0.9245,-0.913,-0.9191,-0.9245,-0.9245,-0.911,-0.8974,-0.8859,-0.8906,-0.8771,-0.8377,-0.8431,-0.8364,-0.8099,-0.9335,-1.0386,-1.117,-1.2909,-1.4268,0.0,0.0,0.0,0.0,0.0,0.0,0.0,0.0,-1.4469,-1.5003,-1.5645,-1.6059,-1.6299,-1.6593,-1.678,-1.6887,-1.6887,-1.6954,-1.7061,-1.7061,-1.7061,-1.7061,-1.7061,-1.7288,-1.7582,-1.7582,-1.7582,-1.7622,-1.7809,-1.7862,-1.7929,-1.8237,-1.8183,-1.8076,-1.8196,-1.813,-1.805,-1.805,-1.7956,-1.7809,-1.7622,-1.8207,-1.8745,-1.8334,-1.8785,-1.8937,-1.8357,0.0,0.0,0.0,0.0,0.0,-1.9412,0.0,-1.706,-1.7146,-1.5617,-1.4678,0.0,-1.4427,-1.3913,-1.3129,-1.2914,-1.2683,-1.2307,0.0,-1.2013,-1.2132,-1.1512,-1.0877,-1.0113,-1.0126,-0.9371,-0.8038,-0.8528,-0.939,-1.0423,-1.3489,-1.4968,-1.5332,-1.6203,-1.6366,-1.6099,-1.6099,-1.5992,-1.5845,-1.5965,-1.5939,-1.5872,-0.8751,0.0,-0.7018,0.0,-0.9028,-0.9137,-0.8967,-0.9191,-0.9239,-0.8852,-0.8974,-0.9089,-0.9089,-0.9001,-0.8899,-0.8811,-0.8845,-0.875,-0.8465,-0.8431,-0.8336,-0.8147,-0.9747,0.0,-1.1853,-1.3596,-1.4854,-1.5832,-1.471,0.0,0.0,0.0,0.0,0.0,-1.4643,-1.5017,-1.5257,-1.5872,-1.6139,-1.6166,-1.6366,-1.65,-1.658,-1.658,-1.6633,-1.67,-1.67,-1.67,-1.67,-1.67,-1.6981,-1.7341,-1.7422,-1.7515,-1.7622,-1.7849,-1.7916,-1.7956,-1.817,-1.8076,-1.7916,-1.7916,-1.7916,-1.7916,-1.7916,-1.7836,-1.7675,-1.7275,-1.7953,-1.8417,-1.8088,-1.8675,-1.892,-1.8224,0.0,0.0,0.0,-1.9418,0.0,-2.0234,-1.8243,-1.7046,-1.7432,-1.558,-1.4547,0.0,0.0,-1.3707,-1.3464,-1.3112,-1.2894,0.0,0.0,0.0,-1.2554,-1.2141,-1.1306,-1.0078,-1.0264,-0.9579,-0.8167,-0.8564,-0.9786,-1.1544,-1.3735,-1.4772,-1.5072,-1.6025,-1.6326,-1.6139,-1.6139,-1.6019,-1.5845,-1.5925,-1.6089,-1.6427,-0.8536,-0.9198,-0.9422,-0.9724,-0.9734,-0.9612,-0.9028,-0.9191,-0.9164,-0.8567,-0.875,-0.894,-0.894,-0.894,-0.8818,-0.8513,-0.8628,-0.8459,-0.7862,-0.8106,-0.8133,0.0,0.0,-1.1853,-1.195,-1.4472,-1.5832,-1.5832,0.0,0.0,-1.4509,0.0,-1.4656,-1.4977,-1.5551,-1.5818,-1.5818,-1.5832,-1.5832,-1.5832,-1.5845,-1.6019,-1.6273,-1.6273,-1.646,-1.67,-1.67,-1.67,-1.67,-1.67,-1.6714,-1.6767,-1.7061,-1.7355,-1.7582,-1.7582,-1.7582,-1.7595,-1.7595,-1.7595,-1.7582,-1.7582,-1.7582,-1.7582,-1.7582,-1.7368,-1.6994,-1.6406,-1.723,-1.7978,-1.7759,-1.9679,-2.0323,-1.7301,0.0,0.0,0.0,-1.8066,0.0,-1.8155,-1.5617,-1.397,-1.3985,-1.3454,0.0,0.0,0.0,-1.3593,-1.3665,0.0,0.0,-1.3213,-1.3227,0.0,-1.3018,-1.2848,-1.19,-1.0163,-1.0347,-0.9719,-0.8584,-1.0024,-1.219,-1.4896,-1.4483,-1.5208,-1.666,-1.6072,-1.5832,-1.5832,-1.5832,-1.5832,-1.5872,-1.6152,-1.684,-1.7729,-0.8626,-0.9185,-0.9652,-0.9496,-0.9585,-0.9612,-0.9422,-0.93,-0.9157,-0.896,-0.894,-0.894,-0.894,-0.894,-0.8899,0.0,-0.856,-0.837,0.0,-0.8072,-0.835,-0.9225,-1.0668,-1.1765,-1.2603,-1.4393,-1.5244,-1.5244,0.0,0.0,0.0,-1.483,-1.5084,-1.5565,-1.5752,-1.5832,-1.5832,-1.5832,-1.5832,-1.5832,-1.5832,-1.5885,-1.5965,-1.5965,-1.6032,-1.6112,-1.6112,-1.6112,-1.6112,-1.6112,-1.6246,-1.646,-1.6754,-1.7048,-1.7328,-1.7528,-1.7582,-1.7582,-1.7582,-1.7582,-1.7582,-1.7582,-1.7435,-1.7341,-1.7542,-1.7194,-1.674,-1.6353,-1.6388,-1.6781,-1.7527,-1.8319,-1.8632,-1.8088,-1.9974,0.0,-1.9252,0.0,-2.006,-1.941,-1.6854,-1.5251,-1.5343,-1.3609,0.0,0.0,0.0,0.0,0.0,0.0,0.0,0.0,-1.335,0.0,-1.2899,-1.2397,-1.1548,-1.0355,-1.0644,-0.9941,-0.8486,-0.8996,-1.0264,-1.2067,-1.2853,-1.3959,-1.5456,-1.609,-1.6313,-1.6126,-1.6126,-1.6005,-1.594,-1.6876,-1.7413,-1.7822,-0.9096,-0.9449,-0.97,-0.9503,-0.9544,-0.9537,-0.9306,-0.9205,-0.9096,-0.8927,-0.8927,-0.894,-0.894,-0.894,0.0,-0.894,-0.8628,-0.8445,-0.8479,-0.8664,-0.9068,-0.9993,-1.1382,-1.2554,-1.3298,-1.4628,0.0,-1.5284,-1.5284,-1.5284,-1.5284,-1.5284,-1.5484,-1.5832,-1.5832,-1.5832,-1.5832,-1.5832,-1.5832,-1.5832,-1.5832,-1.5832,-1.5832,-1.5832,-1.5832,-1.5832,-1.5832,-1.5832,-1.5832,-1.5832,-1.5952,-1.6152,-1.6446,-1.6673,-1.6901,-1.7301,-1.7422,-1.7422,-1.7422,-1.7502,-1.7582,-1.7582,-1.7448,-1.7301,-1.7261,-1.6967,-1.6693,-1.6856,-1.6798,-1.7108,-1.8411,-1.897,-1.9288,-1.919,-2.0607,-2.1355,-2.0261,0.0,-2.0216,-1.8972,-1.7093,-1.5605,0.0,-1.3839,-1.3382,0.0,0.0,0.0,0.0,0.0,-1.3847,-1.324,-1.3205,-1.2737,-1.1747,-1.1373,-1.0776,-0.9715,-0.9992,-0.9593,-0.8655,-0.8594,-0.9746,-1.1686,-1.2167,-1.3634,-1.5557,-1.6163,-1.6273,-1.6112,-1.6112,-1.6279,-1.6574,-1.7404,-1.8226,-1.9163,-0.9696,-0.9612,-0.9612,0.0,-0.9585,-0.9408,-0.8845,-0.8974,-0.8994,-0.8581,-0.8771,-0.894,-0.894,-0.894,-0.8933,-0.8927,0.0,0.0,-0.8492,-0.9524,-1.0146,-1.01,-1.249,-1.3921,-1.4017,-1.5184,-1.5792,-1.5832,-1.5832,-1.5832,-1.5832,-1.5832,-1.5818,-1.5805,-1.5805,-1.5805,-1.5805,-1.5805,-1.5805,-1.5832,-1.5832,-1.5832,-1.5832,-1.5832,-1.5832,-1.5832,-1.5832,-1.5832,-1.5832,-1.5832,-1.5832,-1.5885,-1.6179,-1.6259,-1.6353,-1.6941,-1.7114,-1.7114,-1.7114,-1.7328,-1.7555,-1.7555,-1.7569,-1.7422,-1.682,-1.6687,-1.6922,-1.7537,-1.8033,-1.8719,-2.0025,-2.1194,-2.1675,-2.0492,-2.1658,-2.2197,-2.0875,-2.0259,-1.9183,-1.7286,0.0,0.0,-1.3505,-1.4041,-1.4215,0.0,0.0,0.0,0.0,0.0,-1.3498,-1.235,-1.28,-1.2007,-0.9925,-1.0095,-0.9633,-0.873,-0.8872,-0.894,-0.8933,-0.8886,-1.0493,-1.3204,-1.2669,-1.4013,-1.6633,-1.6086,-1.5845,-1.5832,-1.5927,-1.6669,-1.7684,-1.787,-1.9405,-2.1284,0.0,0.0,-0.9659,-0.932,-0.9361,-0.9388,-0.9245,-0.9089,-0.8988,-0.8994,-0.896,-0.894,-0.894,-0.894,-0.8893,-0.8777,-0.8418,-0.8282,-0.8472,-0.919,-1.021,-1.1444,-1.2559,-1.3664,-1.4695,-1.5073,-1.5391,-1.5832,-1.5832,-1.5832,-1.5832,-1.5832,-1.5712,-1.5498,-1.5498,-1.5498,-1.5498,-1.5498,-1.5631,-1.5832,-1.5832,-1.5832,-1.5832,-1.5832,-1.5832,-1.5832,-1.5832,-1.5832,-1.5832,-1.5832,-1.5832,-1.5885,-1.6179,-1.6112,-1.6046,-1.6633,-1.6807,-1.6807,-1.6807,-1.7021,-1.7248,-1.7248,-1.7422,-1.7368,-1.6553,-1.654,-1.6922,-1.7537,-1.8033,-1.902,-2.1177,-2.2075,-2.2555,-2.2903,-2.3236,-2.2823,-2.0909,-1.9962,-1.8891,0.0,-1.6078,-1.5309,-1.4832,-1.4888,-1.4776,0.0,0.0,-1.4887,-1.5019,-1.442,-1.3138,-1.1141,-1.1241,-1.0573,-0.9204,-0.9247,-0.9064,-0.8886,-0.892,-0.894,-0.8933,-0.9854,-1.1167,-1.2991,-1.3696,-1.4883,-1.6366,-1.6219,-1.6032,-1.5927,-1.6857,-1.7404,-1.7963,-1.977,-2.0836,-2.1391,-0.9367,-0.9551,-0.9625,-0.9313,-0.9266,-0.9252,-0.9191,-0.9042,-0.8967,-0.9042,-0.8988,-0.894,-0.894,-0.894,-0.8879,-0.8723,-0.8486,-0.8557,-0.919,-1.0233,-1.1404,-1.2716,-1.3802,-1.46,-1.5364,-1.5364,-1.5511,-1.5832,-1.5832,-1.5832,-1.5832,-1.5698,-1.5551,-1.5391,-1.5257,-1.5271,-1.5391,-1.5391,-1.5565,-1.5832,-1.5832,-1.5832,-1.5818,-1.5685,-1.5631,-1.5631,-1.5631,-1.5631,-1.5658,-1.5792,-1.5832,-1.5858,-1.6019,-1.5965,-1.5885,-1.6206,-1.65,-1.67,-1.67,-1.7021,-1.7341,-1.7341,-1.7462,-1.7422,-1.6807,-1.7282,-1.8052,-1.8892,-1.9813,-2.1207,-2.3037,-2.3448,-2.3578,-2.401,-2.3262,-2.2039,-2.0438,-1.9256,-1.7996,-1.6508,-1.5965,-1.5619,-1.5343,-1.5599,-1.5591,-1.519,-1.5404,0.0,-1.4049,-1.3613,-1.2946,-1.18,-1.1173,-1.0296,-0.9035,-0.8974,-0.894,-0.894,-0.9588,-0.9919,-0.9911,-1.1324,-1.2607,-1.3865,-1.4344,-1.522,-1.6259,-1.6126,-1.6348,-1.6763,-1.7404,-1.8411,-1.9497,-2.0836,-2.1658,-2.2296,-0.9761,-0.9659,-0.953,-0.9374,-0.9239,-0.9103,-0.896,-0.894,-0.894,-0.894,-0.892,-0.8913,-0.894,-0.8899,-0.8818,-0.8689,-0.8655,-0.9053,-0.9884,-1.1334,-1.2625,-1.3596,-1.5045,-1.5805,-1.5765,-1.5765,-1.5765,-1.5765,-1.5805,-1.5805,-1.5752,-1.5511,-1.5351,-1.5257,-1.5003,-1.503,-1.5271,-1.5271,-1.5431,-1.5698,-1.5698,-1.5698,-1.5671,-1.5431,-1.5337,-1.5337,-1.5337,-1.5337,-1.5364,-1.5618,-1.5698,-1.5698,-1.5698,-1.5698,-1.5712,-1.5752,-1.6152,-1.658,-1.658,-1.6967,-1.7408,-1.7502,-1.7488,-1.7395,-1.7194,-1.8209,-1.9384,-2.0442,-2.2048,-2.3703,-2.4869,-2.4766,-2.438,-2.4152,-2.2418,-2.0761,-1.9562,0.0,-1.6963,-1.5869,-1.6053,-1.6063,-1.5658,-1.6273,-1.642,-1.5712,-1.5879,-1.4961,-1.2516,-1.2362,-1.2471,-1.2711,-1.1515,-1.0277,-0.9184,-0.9042,-0.9078,-0.9293,-1.0468,-1.1219,-1.1428,-1.2911,-1.4071,-1.5024,-1.4934,-1.5482,-1.6538,-1.6239,-1.6857,-1.7963,-1.8133,-1.9497,-2.1302,-2.1728,-2.2435,-2.3374,-0.9456,-0.9435,-0.9367,-0.9211,-0.9171,-0.9103,-0.896,-0.894,-0.894,-0.894,-0.8825,-0.8798,-0.8927,-0.871,-0.8547,-0.852,-0.8411,-0.8419,-0.8575,-1.0726,-1.2078,-1.2242,-1.4567,-1.5712,-1.5471,-1.5471,-1.5471,-1.5471,-1.5712,-1.5698,-1.5458,-1.5418,-1.5124,-1.4656,-1.4603,-1.4616,-1.4656,-1.4656,-1.483,-1.5097,-1.5097,-1.5097,-1.5097,-1.5044,-1.503,-1.503,-1.503,-1.503,-1.5044,-1.5084,-1.5097,-1.5097,-1.5097,-1.5097,-1.515,-1.5391,-1.5698,-1.5965,-1.5965,-1.6219,-1.6593,-1.7088,-1.7034,-1.6901,-1.7101,-1.8038,-1.9094,-2.0393,-2.2048,-2.3703,-2.4869,-2.5019,-2.4446,-2.2797,-2.1725,-2.0268,-1.7876,0.0,-1.6672,-1.617,-1.6188,-1.6373,-1.6473,-1.662,-1.6754,-1.6874,-1.5594,-1.4777,-1.4895,-1.2529,-1.1321,-1.1671,-1.044,-0.9551,-0.9347,-0.9198,-0.9785,-1.0883,-1.1067,-1.1755,-1.3048,-1.4239,-1.4862,-1.5012,-1.5757,-1.669,-1.7765,-1.7537,-1.8133,-1.9314,-2.0296,-2.0944,-2.1498,-2.3481,-2.405,-2.3992,-0.9388,-0.9313,-0.9239,-0.9164,-0.9089,-0.9015,-0.8947,-0.894,-0.894,-0.894,-0.8804,-0.8737,-0.8811,-0.8615,-0.8452,-0.8377,-0.8309,-0.8235,-0.8153,-0.9846,-1.117,-1.1853,-1.3788,-1.4728,-1.4465,-1.4302,-1.4302,-1.4452,-1.5245,-1.5524,-1.5391,-1.5244,-1.4937,-1.4509,-1.4362,-1.4376,-1.4522,-1.4522,-1.4696,-1.4963,-1.4963,-1.4963,-1.495,-1.479,-1.4723,-1.4723,-1.4723,-1.4723,-1.475,-1.491,-1.4963,-1.4963,-1.4963,-1.4963,-1.499,-1.5124,-1.5591,-1.6099,-1.6259,-1.6406,-1.6607,-1.7048,-1.7048,-1.7021,-1.7315,-1.8278,-1.9381,-1.9969,-2.1296,-2.2606,-2.3198,-2.2955,-2.2423,-2.1709,-2.0421,-1.8988,-1.7384,-1.6919,-1.6504,-1.5812,-1.6388,-1.6794,-1.6927,-1.7088,-1.7168,-1.7154,-1.5786,-1.4687,-1.4039,-1.2219,-1.0883,-1.0266,-0.968,-0.9838,-1.064,-1.0378,-1.1056,-1.259,-1.3148,-1.3804,-1.4449,-1.5834,-1.6339,-1.6278,-1.7073,-1.7761,-1.8148,-1.8551,-1.9405,-2.0477,-2.1105,-2.2082,-2.3288,-2.4093,-2.4554,-2.4973,-0.9185,-0.9191,-0.9103,-0.911,-0.9015,-0.894,-0.894,-0.8906,-0.8886,-0.8886,-0.8723,-0.8621,-0.8655,-0.8492,-0.835,-0.8275,-0.8235,-0.8167,-0.8045,-0.8924,-1.0092,-1.1365,-1.2662,-1.3282,-1.3136,-1.3135,-1.3282,-1.3516,-1.4694,-1.5257,-1.519,-1.4963,-1.4696,-1.4416,-1.392,-1.3762,-1.397,-1.3709,-1.3736,-1.3938,-1.3938,-1.4116,-1.4369,-1.4047,-1.4156,-1.4416,-1.4416,-1.4416,-1.4456,-1.4683,-1.4763,-1.4763,-1.4763,-1.4763,-1.4776,-1.4843,-1.5431,-1.6139,-1.642,-1.65,-1.6607,-1.7048,-1.7048,-1.7061,-1.7488,-1.8547,-1.9538,-1.9612,-2.0743,-2.1744,-2.1744,-2.1131,-2.0638,-2.0443,0.0,-1.7799,-1.6978,-1.6747,-1.6373,-1.5873,-1.6607,-1.7181,-1.7248,-1.7448,-1.7515,-1.7368,-1.5837,-1.4341,-1.3093,-1.1585,-1.0545,-0.9766,-0.9925,-1.06,-1.191,-1.1759,-1.2625,-1.4224,-1.5024,-1.5636,-1.5956,-1.7041,-1.763,-1.764,-1.8209,-1.8656,-1.8989,-1.9645,-2.0604,-2.1618,-2.1864,-2.2918,-2.443,-2.4587,-2.5018,-2.5711,-0.8923,-0.8876,-0.896,-0.887,-0.896,-0.894,-0.894,-0.8818,-0.873,-0.873,-0.8479,-0.835,-0.8486,-0.8241,-0.8126,-0.8255,-0.814,-0.8052,-0.8038,-0.8137,-0.8726,-1.01,-1.1163,-1.1609,-1.1497,-1.2484,-1.2991,-1.2857,-1.4308,-1.4856,-1.4589,-1.4563,-1.4402,-1.4122,-1.2954,-1.2419,-1.2357,-1.1327,-1.0906,-1.0916,-1.0916,-1.1521,-1.2466,-1.2454,-1.3149,-1.4122,-1.4122,-1.4122,-1.4122,-1.4148,-1.4148,-1.4148,-1.4148,-1.4148,-1.4202,-1.4469,-1.499,-1.5524,-1.5818,-1.5899,-1.6099,-1.6941,-1.674,-1.6553,-1.7395,-1.8494,-1.9269,-1.9568,-2.0743,-2.1744,-2.1744,-2.1329,-2.0475,-1.8808,0.0,0.0,-1.6062,-1.5886,-1.6195,-1.6927,-1.7101,-1.7248,-1.7528,-1.7569,-1.7689,-1.7956,-1.5229,-1.3678,-1.3658,-1.1078,-1.0048,-1.129,-1.1579,-1.1879,-1.2175,-1.3183,-1.4456,-1.5939,-1.5549,-1.6168,-1.7477,-1.7582,-1.8033,-1.8831,-1.8607,-1.9622,-2.1529,-2.1284,-2.1632,-2.2454,-2.3449,-2.3659,-2.3668,-2.5615,-2.6,-2.5725,-0.8208,-0.7399,-0.671,-0.8536,-0.8876,-0.8863,-0.885,-0.8716,-0.8615,-0.871,-0.8452,-0.8289,-0.8343,-0.8167,-0.8065,-0.8119,-0.8072,-0.8038,-0.8038,-0.8038,-0.8627,-0.9903,-0.9526,-0.9585,-1.0359,-1.048,-1.0639,-1.0768,-1.1991,-1.256,-1.2369,-1.2369,-1.2243,-1.1906,-1.1466,-1.1209,-1.1209,-1.0778,-1.0605,-1.0605,-1.0605,-1.1295,-1.2322,-1.2322,-1.3027,-1.4082,-1.4082,-1.4082,-1.4082,-1.4082,-1.4082,-1.4082,-1.4082,-1.4082,-1.4108,-1.4215,-1.4669,-1.519,-1.5484,-1.5832,-1.6179,-1.6526,-1.6714,-1.6901,-1.7235,-1.777,-1.8268,-1.838,-1.8812,-1.9109,-1.9109,-1.8847,-1.8426,-1.7992,0.0,-1.7023,-1.672,-1.6647,-1.6767,-1.7114,-1.7315,-1.7462,-1.7569,-1.7582,-1.7716,-1.8023,-1.615,-1.4657,-1.3913,-1.1733,-1.1255,-1.2721,-1.38,-1.4582,-1.4844,-1.482,-1.5771,-1.7563,-1.6991,-1.7041,-1.7582,-1.8499,-1.8949,-1.9033,-2.0346,-2.1105,-2.141,-2.2505,-2.3012,-2.3125,-2.4079,-2.4847,-2.5347,-2.5808,-2.6238,-2.6766,-0.5304,-0.5292,-0.4845,-0.5959,-0.6848,-0.7512,-0.7494,-0.8157,-0.8714,-0.8594,-0.837,-0.8208,-0.8208,-0.8106,-0.8038,-0.8038,-0.8038,-0.8038,-0.8038,-0.8038,-0.8435,-0.9312,-0.842,-0.8243,-0.9148,-0.9132,-0.9275,-0.9342,-1.0413,-1.0926,-1.0926,-1.0926,-1.0845,-1.0605,-1.0269,-1.0096,-1.0009,-0.9662,-0.9488,-0.9488,-0.9488,-1.0433,-1.1809,-1.1809,-1.2772,-1.4082,-1.4082,-1.4082,-1.4082,-1.4082,-1.4082,-1.4082,-1.4082,-1.4082,-1.4122,-1.4309,-1.4656,-1.5044,-1.5431,-1.5899,-1.6299,-1.638,-1.6714,-1.7034,-1.723,-1.7368,-1.7582,-1.7582,-1.7582,-1.7582,-1.7582,-1.7422,-1.7315,-1.7422,-1.7181,-1.7021,-1.7141,-1.7235,-1.7288,-1.7288,-1.7462,-1.7582,-1.7582,-1.7582,-1.7716,-1.8023,-1.6696,-1.522,-1.382,-1.2674,-1.2673,-1.4046,-1.5217,-1.6196,-1.7016,-1.6478,-1.6946,-1.8343,-1.7822,-1.7738,-1.806,-1.8964,-1.9542,-2.0003,-2.1492,-2.2135,-2.2138,-2.3426,-2.3861,-2.3667,-2.4681,-2.5431,-2.6039,-2.5877,-2.6544,-2.7429,0.0,-0.2445,-0.3501,-0.0531,-0.2441,-0.4457,-0.4457,-0.6928,-0.8749,-0.8536,-0.818,-0.7972,-0.7972,-0.7952,-0.8038,-0.8038,-0.8038,-0.8038,-0.8038,-0.8038,-0.8038,-0.8038,-0.8038,-0.797,-0.7814,-0.8785,-0.925,-0.9066,-1.0105,-1.0605,-1.0605,-1.0605,-1.0605,-1.0519,-0.941,-0.8886,-0.8807,-0.7577,-0.7143,-0.7143,-0.7143,-0.8528,-1.0605,-1.0605,-1.2003,-1.4082,-1.4082,-1.4082,-1.4082,-1.4082,-1.4082,-1.4082,-1.4082,-1.4082,-1.4202,-1.479,-1.4963,-1.5084,-1.5671,-1.6046,-1.6339,-1.6633,-1.67,-1.678,-1.7088,-1.7368,-1.7582,-1.7582,-1.7582,-1.7582,-1.7582,-1.7582,-1.7488,-1.7194,-1.7395,-1.7475,-1.7194,-1.7395,-1.7582,-1.7582,-1.7582,-1.7582,-1.7582,-1.7582,-1.7716,-1.8023,-1.6599,-1.5043,-1.3608,-1.3497,-1.4046,-1.5423,-1.5561,-1.6478,-1.8009,-1.8036,-1.805,-1.805,-1.7729,-1.8137,-1.8947,-1.9048,-2.0053,-2.1841,-2.1841,-2.2625,-2.3971,-2.3971,-2.4052,-2.434,-2.5238,-2.5372,-2.5158,-2.6094,-2.7027,-2.7604,0.0,-0.0752,-0.1064,-0.0107,-0.0746,-0.1382,-0.138,-0.2091,-0.3411,-0.5382,-0.539,-0.5937,-0.7779,-0.7972,-0.7965,-0.7965,-0.8045,-0.8038,-0.8038,-0.8038,-0.8038,-0.8038,-0.8038,-0.797,-0.7814,-0.8044,-0.8073,-0.7905,-0.8093,-0.8185,-0.8185,-0.8185,-0.8185,-0.8097,-0.7753,-0.7665,-0.7577,-0.7231,-0.7143,-0.7143,-0.7143,-0.8009,-0.941,-0.941,-1.0875,-1.2857,-1.2857,-1.3379,-1.4082,-1.4082,-1.4082,-1.4082,-1.4082,-1.4082,-1.4162,-1.4536,-1.4656,-1.4776,-1.5364,-1.5591,-1.5778,-1.6273,-1.6714,-1.7034,-1.7128,-1.7368,-1.7582,-1.7582,-1.7582,-1.7582,-1.7582,-1.7582,-1.7555,-1.7462,-1.7528,-1.7555,-1.7462,-1.7528,-1.7582,-1.7582,-1.7582,-1.7582,-1.7582,-1.7582,-1.7716,-1.8023,-1.6771,-1.6232,-1.6611,-1.5603,-1.5584,-1.6935,-1.7013,-1.7277,-1.7716,-1.7716,-1.7822,-1.8023,-1.7515,-1.7942,-1.9048,-1.9787,-2.0774,-2.1915,-2.3221,-2.3628,-2.3591,-2.4692,-2.501,-2.487,-2.5825,-2.6148,-2.6094,-2.6396,-2.6645,-2.696,0.0,0.0,0.0,0.0,0.0,0.0,0.0,0.0,-0.0615,-0.2455,-0.253,-0.3416,-0.6152,-0.6448,-0.6853,-0.7879,-0.7965,-0.8052,-0.8038,-0.8038,-0.8038,-0.8038,-0.8038,-0.797,-0.7814,-0.7672,-0.7522,-0.7373,-0.7217,-0.7143,-0.7143,-0.7143,-0.7143,-0.7143,-0.7143,-0.7143,-0.7143,-0.7143,-0.7143,-0.7143,-0.7143,-0.7841,-0.8894,-0.8894,-1.0009,-1.1638,-1.1638,-1.2419,-1.3379,-1.3379,-1.373,-1.4082,-1.4082,-1.4082,-1.4148,-1.4429,-1.4603,-1.4803,-1.5271,-1.5484,-1.5685,-1.6152,-1.662,-1.6981,-1.6981,-1.7288,-1.7582,-1.7582,-1.7582,-1.7582,-1.7582,-1.7488,-1.7448,-1.7569,-1.7488,-1.7448,-1.7569,-1.7582,-1.7542,-1.7422,-1.7515,-1.7542,-1.7422,-1.7515,-1.7662,-1.7849,-1.713,-1.6997,-1.7596,-1.6813,-1.663,-1.7422,-1.7301,-1.7355,-1.7582,-1.7355,-1.7382,-1.7662,-1.7695,-1.8296,-1.9434,-2.0566,-2.1675,-2.2763,-2.3896,-2.4339,-2.4282,-2.5205,-2.5613,-2.5652,-2.6233,-2.6533,-2.6533,-2.6533,-2.6918,-2.7604,0.0,0.0,0.0,0.0,0.0,0.0,0.0,0.0,0.0,0.0,0.0,-0.0906,-0.3327,-0.3823,-0.5027,-0.7472,-0.7872,-0.7959,-0.8038,-0.8038,-0.8038,-0.8038,-0.8024,-0.7957,-0.7814,-0.7672,-0.7516,-0.7353,-0.721,-0.7143,-0.7143,-0.7143,-0.7143,-0.7143,-0.7143,-0.7143,-0.7143,-0.7143,-0.7143,-0.7143,-0.7143,-0.7753,-0.8719,-0.8719,-0.9488,-1.0433,-1.0433,-1.1209,-1.2151,-1.2151,-1.2942,-1.3913,-1.3913,-1.3997,-1.4148,-1.4469,-1.4736,-1.5003,-1.5337,-1.5605,-1.5858,-1.6152,-1.6446,-1.6687,-1.6727,-1.7154,-1.7542,-1.7542,-1.7528,-1.7502,-1.7502,-1.7288,-1.7194,-1.7462,-1.7288,-1.7208,-1.7462,-1.7528,-1.7435,-1.7141,-1.7368,-1.7435,-1.7181,-1.7408,-1.7582,-1.7582,-1.7555,-1.7422,-1.7168,-1.7128,-1.7114,-1.7114,-1.6847,-1.6967,-1.7502,-1.7042,-1.6935,-1.7244,-1.8095,-1.9012,-2.0102,-2.1309,-2.2694,-2.4136,-2.4177,-2.4746,-2.5607,-2.5633,-2.6019,-2.6533,-2.6533,-2.6533,-2.6577,-2.6577,-2.7604,-2.8939,0.0,0.0,0.0,0.0,0.0,0.0,0.0,0.0,0.0,0.0,0.0,-0.0202,-0.0807,-0.272,-0.4228,-0.4826,-0.6836,-0.8045,-0.8038,-0.8038,-0.8038,-0.8038,-0.7923,-0.7841,-0.7814,-0.7672,-0.7468,-0.719,-0.7156,-0.7143,-0.7143,-0.7143,-0.7143,-0.7143,-0.7143,-0.7143,-0.7143,-0.7143,-0.7143,-0.7143,-0.7143,-0.7231,-0.7489,-0.7489,-0.8185,-0.9235,-0.9235,-1.0009,-1.095,-1.095,-1.1735,-1.2674,-1.2674,-1.3379,-1.4188,-1.471,-1.475,-1.4776,-1.5538,-1.5618,-1.5565,-1.5858,-1.6152,-1.6486,-1.6941,-1.7154,-1.7248,-1.7248,-1.7061,-1.6901,-1.6901,-1.6847,-1.682,-1.6887,-1.6847,-1.682,-1.6887,-1.7101,-1.7128,-1.6834,-1.7061,-1.7221,-1.7257,-1.7408,-1.7582,-1.7582,-1.7368,-1.7208,-1.7154,-1.6927,-1.6807,-1.6807,-1.674,-1.6767,-1.6901,-1.7513,-1.7598,-1.7244,-1.7879,-1.9241,-2.1239,-2.2307,-2.3644,-2.5297,-2.5734,-2.582,-2.5656,-2.6135,-2.6357,-2.6533,-2.6533,-2.6918,-2.7404,-2.7404,-2.8103,-2.9199,0.0,0.0,0.0,0.0,0.0,0.0,0.0,0.0,0.0,0.0,0.0,0.0,0.0,-0.1211,-0.3126,-0.5651,-0.7166,-0.7972,-0.7965,-0.7965,-0.7965,-0.7965,-0.7892,-0.7811,-0.7744,-0.7773,-0.7577,-0.7251,-0.7251,-0.721,-0.7143,-0.7143,-0.7177,-0.7244,-0.7177,-0.7183,-0.7244,-0.717,-0.7143,-0.7143,-0.7143,-0.7143,-0.7143,-0.7143,-0.7489,-0.8017,-0.8017,-0.8798,-0.9836,-1.0443,-1.1037,-1.1466,-1.1466,-1.1906,-1.2576,-1.3461,-1.3711,-1.3926,-1.5061,-1.5404,-1.5471,-1.5752,-1.6046,-1.6353,-1.666,-1.6834,-1.6941,-1.6941,-1.6807,-1.67,-1.67,-1.6593,-1.654,-1.6687,-1.67,-1.67,-1.67,-1.6967,-1.6994,-1.6553,-1.6754,-1.6941,-1.6941,-1.7208,-1.7382,-1.7382,-1.7235,-1.7088,-1.6941,-1.666,-1.6567,-1.67,-1.6433,-1.6783,-1.7809,-1.7882,-1.8097,-1.8459,-1.9805,-2.1066,-2.2307,-2.3953,-2.5196,-2.6092,-2.6376,-2.6282,-2.6042,-2.6357,-2.6533,-2.6533,-2.6918,-2.7364,-2.7776,-2.8538,-2.952,-3.0807,0.0,0.0,0.0,0.0,0.0,0.0,0.0,0.0,0.0,0.0,0.0,0.0,0.0,0.0,-0.1816,-0.6274,-0.7089,-0.729,-0.7272,-0.7272,-0.7272,-0.7272,-0.7353,-0.7198,-0.7015,-0.7192,-0.7337,-0.7421,-0.7414,-0.7249,-0.7101,-0.7121,-0.7188,-0.7373,-0.7244,-0.7272,-0.74,-0.7217,-0.7156,-0.7177,-0.7149,-0.7143,-0.7143,-0.7143,-0.7143,-0.7143,-0.7143,-0.7768,-0.8761,-0.9717,-1.0173,-1.0377,-1.0377,-1.0552,-1.0901,-1.1902,-1.2323,-1.2909,-1.4372,-1.4996,-1.5245,-1.567,-1.6019,-1.6192,-1.6192,-1.642,-1.6633,-1.6633,-1.6593,-1.6553,-1.6553,-1.6353,-1.6299,-1.658,-1.6633,-1.6647,-1.67,-1.6914,-1.6874,-1.6339,-1.6486,-1.6633,-1.6633,-1.6901,-1.7074,-1.7074,-1.7034,-1.6887,-1.6647,-1.6353,-1.6313,-1.6553,-1.6278,-1.6938,-1.8795,-1.8468,-1.8923,-2.0205,-2.2283,-2.3162,-2.3075,-2.5333,-2.6417,-2.651,-2.6641,-2.6578,-2.6533,-2.6533,-2.6602,-2.6782,-2.7404,-2.7973,-2.8502,-3.016,-3.1627,-3.3034,0.0,0.0,0.0,0.0,0.0,0.0,0.0,0.0,0.0,0.0,0.0,0.0,0.0,0.0,-0.0302,-0.1006,-0.3215,-0.4522,-0.4522,-0.4522,-0.4522,-0.4522,-0.4555,-0.4544,-0.4503,-0.4339,-0.5331,-0.7611,-0.7321,-0.715,-0.7106,-0.7137,-0.7137,-0.7132,-0.7289,-0.7356,-0.7369,-0.7175,-0.7217,-0.7326,-0.719,-0.7143,-0.7143,-0.7143,-0.7143,-0.7143,-0.7143,-0.7313,-0.7612,-0.7786,-0.8603,-0.9451,-0.9451,-1.0177,-1.1121,-1.1497,-1.1672,-1.2026,-1.3601,-1.4088,-1.441,-1.5534,-1.5858,-1.5885,-1.5885,-1.6112,-1.6326,-1.6326,-1.6126,-1.5952,-1.5952,-1.5912,-1.5992,-1.6286,-1.6326,-1.642,-1.6673,-1.674,-1.6647,-1.6313,-1.6313,-1.6326,-1.6326,-1.6593,-1.6767,-1.6767,-1.654,-1.638,-1.6339,-1.6046,-1.5912,-1.5952,-1.6899,-1.7572,-1.7878,-1.9837,-2.0872,-2.1105,-2.3501,-2.3978,-2.3055,-2.4906,-2.5994,-2.6562,-2.6992,-2.6972,-2.6533,-2.6533,-2.6918,-2.7537,-2.767,-2.8983,-3.104,-3.3022,-3.4248,-3.5048,0.0,0.0,0.0,0.0,0.0,0.0,0.0,0.0,0.0,0.0,0.0,0.0,0.0,0.0,0.0,0.0,-0.1118,-0.1731,-0.1814,-0.1728,-0.1731,-0.1813,-0.3202,-0.4004,-0.4034,-0.3704,-0.4274,-0.5625,-0.5456,-0.5265,-0.5162,-0.5115,-0.511,-0.5162,-0.5194,-0.6073,-0.7523,-0.7478,-0.7326,-0.7197,-0.7299,-0.7217,-0.7143,-0.7143,-0.7143,-0.7143,-0.7143,-0.7238,-0.7373,-0.7373,-0.7838,-0.8333,-0.8333,-0.8707,-0.9266,-1.009,-1.0304,-1.0716,-1.3014,-1.3661,-1.398,-1.5399,-1.5832,-1.5832,-1.5832,-1.5925,-1.6019,-1.6019,-1.5925,-1.5832,-1.5832,-1.5832,-1.5925,-1.6219,-1.6406,-1.65,-1.6473,-1.6607,-1.654,-1.6086,-1.6019,-1.6019,-1.6019,-1.6286,-1.646,-1.646,-1.6339,-1.6273,-1.6273,-1.5992,-1.6184,-1.7099,-1.7507,-1.8427,-1.9995,-2.087,-2.1658,-2.2315,-2.4018,-2.4724,-2.4492,-2.5949,-2.6718,-2.6944,-2.7155,-2.7221,-2.7162,-2.7162,-2.7364,-2.7841,-2.9171,-3.1294,-3.3695,-3.4598,-3.5385,-3.6011]}]]